<?xml version='1.0' encoding='UTF-8'?><gpx version="1.1" creator="JPX - https://github.com/jenetics/jpx" xmlns="http://www.topografix.com/GPX/1/1"><trk><trkseg><trkpt lat="42.620980430551526" lon="13.648144372112894"><ele>440.0</ele><time>2026-04-18T08:45:39Z</time></trkpt><trkpt lat="42.620901595109565" lon="13.648035776667774"><ele>440.0</ele><time>2026-04-18T08:45:41Z</time></trkpt><trkpt lat="42.620877615996605" lon="13.647907691701636"><ele>440.0</ele><time>2026-04-18T08:45:43Z</time></trkpt><trkpt lat="42.62084848476096" lon="13.647812274278685"><ele>440.0</ele><time>2026-04-18T08:45:45Z</time></trkpt><trkpt lat="42.62076628171384" lon="13.647784655331982"><ele>440.0</ele><time>2026-04-18T08:45:46Z</time></trkpt><trkpt lat="42.62094153324139" lon="13.647646565828628"><ele>437.8</ele><time>2026-04-18T08:45:51Z</time></trkpt><trkpt lat="42.62099443203757" lon="13.647591679607707"><ele>435.6</ele><time>2026-04-18T08:45:52Z</time></trkpt><trkpt lat="42.62106568328317" lon="13.647552804668546"><ele>433.4</ele><time>2026-04-18T08:45:53Z</time></trkpt><trkpt lat="42.62114135174441" lon="13.647529748920823"><ele>431.2</ele><time>2026-04-18T08:45:54Z</time></trkpt><trkpt lat="42.62123584366267" lon="13.647509409608377"><ele>429.0</ele><time>2026-04-18T08:45:55Z</time></trkpt><trkpt lat="42.621377317730364" lon="13.647474265378289"><ele>428.3333333333333</ele><time>2026-04-18T08:45:56Z</time></trkpt><trkpt lat="42.6214826887974" lon="13.647457809416066"><ele>427.66666666666663</ele><time>2026-04-18T08:45:57Z</time></trkpt><trkpt lat="42.62155156382031" lon="13.647428702038813"><ele>427.0</ele><time>2026-04-18T08:45:58Z</time></trkpt><trkpt lat="42.62162360341036" lon="13.647340391932968"><ele>426.3333333333333</ele><time>2026-04-18T08:46:00Z</time></trkpt><trkpt lat="42.62162032370839" lon="13.64725410597188"><ele>425.66666666666663</ele><time>2026-04-18T08:46:01Z</time></trkpt><trkpt lat="42.621614227624505" lon="13.647160901308391"><ele>425.0</ele><time>2026-04-18T08:46:02Z</time></trkpt><trkpt lat="42.621548048509" lon="13.647015041021605"><ele>424.8333333333333</ele><time>2026-04-18T08:46:04Z</time></trkpt><trkpt lat="42.62150455937589" lon="13.64693544394452"><ele>424.66666666666663</ele><time>2026-04-18T08:46:05Z</time></trkpt><trkpt lat="42.62146230789303" lon="13.646848588910427"><ele>424.5</ele><time>2026-04-18T08:46:06Z</time></trkpt><trkpt lat="42.621418632134144" lon="13.646751968279546"><ele>424.33333333333337</ele><time>2026-04-18T08:46:07Z</time></trkpt><trkpt lat="42.62136905754768" lon="13.646657294027328"><ele>424.1666666666667</ele><time>2026-04-18T08:46:08Z</time></trkpt><trkpt lat="42.62131644481818" lon="13.646558442614136"><ele>424.0</ele><time>2026-04-18T08:46:09Z</time></trkpt><trkpt lat="42.62127551582091" lon="13.646429103339255"><ele>424.0</ele><time>2026-04-18T08:46:10Z</time></trkpt><trkpt lat="42.62122069637772" lon="13.64627679866918"><ele>424.0</ele><time>2026-04-18T08:46:11Z</time></trkpt><trkpt lat="42.62116449068453" lon="13.646097418363263"><ele>424.0</ele><time>2026-04-18T08:46:12Z</time></trkpt><trkpt lat="42.62110544553126" lon="13.645893835948327"><ele>424.0</ele><time>2026-04-18T08:46:13Z</time></trkpt><trkpt lat="42.621054102702004" lon="13.645703650795099"><ele>424.50000000000006</ele><time>2026-04-18T08:46:14Z</time></trkpt><trkpt lat="42.6210175898524" lon="13.64557430598824"><ele>425.0</ele><time>2026-04-18T08:46:15Z</time></trkpt><trkpt lat="42.62097508533553" lon="13.645494069800913"><ele>425.5</ele><time>2026-04-18T08:46:16Z</time></trkpt><trkpt lat="42.6209480020255" lon="13.645404156637442"><ele>426.0</ele><time>2026-04-18T08:46:18Z</time></trkpt><trkpt lat="42.62090221257183" lon="13.6453428520023"><ele>426.50000000000006</ele><time>2026-04-18T08:46:21Z</time></trkpt><trkpt lat="42.62089063683441" lon="13.645235531504438"><ele>427.0</ele><time>2026-04-18T08:46:23Z</time></trkpt><trkpt lat="42.62084525869683" lon="13.645147753111484"><ele>429.40000000000003</ele><time>2026-04-18T08:46:25Z</time></trkpt><trkpt lat="42.6208049644474" lon="13.645054212530097"><ele>431.80000000000007</ele><time>2026-04-18T08:46:26Z</time></trkpt><trkpt lat="42.62072643953819" lon="13.644946413188197"><ele>434.2</ele><time>2026-04-18T08:46:28Z</time></trkpt><trkpt lat="42.620646443930134" lon="13.644851815352423"><ele>436.6</ele><time>2026-04-18T08:46:30Z</time></trkpt><trkpt lat="42.62057416871116" lon="13.6447226208124"><ele>439.0</ele><time>2026-04-18T08:46:32Z</time></trkpt><trkpt lat="42.620558959810865" lon="13.644633707614203"><ele>439.0</ele><time>2026-04-18T08:46:33Z</time></trkpt><trkpt lat="42.62054600689478" lon="13.644473101470048"><ele>439.0</ele><time>2026-04-18T08:46:35Z</time></trkpt><trkpt lat="42.62055789560987" lon="13.644327079195685"><ele>439.0</ele><time>2026-04-18T08:46:37Z</time></trkpt><trkpt lat="42.62063277339426" lon="13.64421551521426"><ele>439.0</ele><time>2026-04-18T08:46:39Z</time></trkpt><trkpt lat="42.62069818466622" lon="13.644203006823982"><ele>439.0</ele><time>2026-04-18T08:46:40Z</time></trkpt><trkpt lat="42.62077094177336" lon="13.6442362708075"><ele>440.1666666666667</ele><time>2026-04-18T08:46:41Z</time></trkpt><trkpt lat="42.620846700772034" lon="13.644241394808002"><ele>441.33333333333337</ele><time>2026-04-18T08:46:42Z</time></trkpt><trkpt lat="42.62091140533506" lon="13.644237336924098"><ele>442.5</ele><time>2026-04-18T08:46:43Z</time></trkpt><trkpt lat="42.62099187763875" lon="13.64424352580611"><ele>443.66666666666663</ele><time>2026-04-18T08:46:44Z</time></trkpt><trkpt lat="42.621088316981506" lon="13.64425013960315"><ele>444.8333333333333</ele><time>2026-04-18T08:46:45Z</time></trkpt><trkpt lat="42.62119374391511" lon="13.644251644536803"><ele>446.0</ele><time>2026-04-18T08:46:46Z</time></trkpt><trkpt lat="42.621355995635334" lon="13.644260584585316"><ele>447.75</ele><time>2026-04-18T08:46:47Z</time></trkpt><trkpt lat="42.621485948256165" lon="13.64426094445672"><ele>449.5</ele><time>2026-04-18T08:46:48Z</time></trkpt><trkpt lat="42.62159401437019" lon="13.644266821562887"><ele>451.25</ele><time>2026-04-18T08:46:49Z</time></trkpt><trkpt lat="42.621718714709615" lon="13.644234449182505"><ele>453.0</ele><time>2026-04-18T08:46:50Z</time></trkpt><trkpt lat="42.62181609308854" lon="13.644122761322924"><ele>453.0</ele><time>2026-04-18T08:46:51Z</time></trkpt><trkpt lat="42.62194867732443" lon="13.644241058361219"><ele>452.99999999999994</ele><time>2026-04-18T08:46:52Z</time></trkpt><trkpt lat="42.622029284340954" lon="13.644211108581809"><ele>452.99999999999994</ele><time>2026-04-18T08:46:53Z</time></trkpt><trkpt lat="42.62210584688832" lon="13.644175028931537"><ele>453.0</ele><time>2026-04-18T08:46:54Z</time></trkpt><trkpt lat="42.6221963167624" lon="13.644120355945432"><ele>453.0</ele><time>2026-04-18T08:46:55Z</time></trkpt><trkpt lat="42.622290460917284" lon="13.64406024897089"><ele>455.0</ele><time>2026-04-18T08:46:56Z</time></trkpt><trkpt lat="42.622398789438336" lon="13.643986363900677"><ele>457.0</ele><time>2026-04-18T08:46:57Z</time></trkpt><trkpt lat="42.6224757629239" lon="13.64392056680655"><ele>459.0</ele><time>2026-04-18T08:46:57.999Z</time></trkpt><trkpt lat="42.62254341358587" lon="13.643836612013741"><ele>461.0</ele><time>2026-04-18T08:46:58.999Z</time></trkpt><trkpt lat="42.62257314975006" lon="13.643735826574835"><ele>463.0</ele><time>2026-04-18T08:46:59.999Z</time></trkpt><trkpt lat="42.62259040510354" lon="13.643651763229874"><ele>465.0</ele><time>2026-04-18T08:47:00.999Z</time></trkpt><trkpt lat="42.62252874330829" lon="13.643442687167283"><ele>467.0</ele><time>2026-04-18T08:47:01.999Z</time></trkpt><trkpt lat="42.62253221852835" lon="13.643287579966673"><ele>469.0</ele><time>2026-04-18T08:47:02.999Z</time></trkpt><trkpt lat="42.62254643085233" lon="13.643154030319428"><ele>471.0</ele><time>2026-04-18T08:47:03.999Z</time></trkpt><trkpt lat="42.62254866269663" lon="13.643000207904159"><ele>473.0</ele><time>2026-04-18T08:47:04.999Z</time></trkpt><trkpt lat="42.62254512509101" lon="13.642844839685392"><ele>475.0</ele><time>2026-04-18T08:47:05.999Z</time></trkpt><trkpt lat="42.62254598027419" lon="13.642715571334179"><ele>478.8</ele><time>2026-04-18T08:47:06.999Z</time></trkpt><trkpt lat="42.62256183392734" lon="13.642607952412844"><ele>482.6</ele><time>2026-04-18T08:47:07.999Z</time></trkpt><trkpt lat="42.622561002052976" lon="13.64248936403911"><ele>486.4</ele><time>2026-04-18T08:47:08.999Z</time></trkpt><trkpt lat="42.622581898201034" lon="13.642386659224984"><ele>490.2</ele><time>2026-04-18T08:47:09.999Z</time></trkpt><trkpt lat="42.622581941232326" lon="13.642189971165886"><ele>494.0</ele><time>2026-04-18T08:47:10.999Z</time></trkpt><trkpt lat="42.6226019293626" lon="13.642072245450716"><ele>496.2</ele><time>2026-04-18T08:47:11.999Z</time></trkpt><trkpt lat="42.62260887142534" lon="13.64193646043021"><ele>498.4</ele><time>2026-04-18T08:47:12.999Z</time></trkpt><trkpt lat="42.62262346515714" lon="13.641824114254362"><ele>500.6</ele><time>2026-04-18T08:47:13.999Z</time></trkpt><trkpt lat="42.62267363466235" lon="13.641730478407174"><ele>502.8</ele><time>2026-04-18T08:47:41Z</time></trkpt><trkpt lat="42.62266787928753" lon="13.641613041813935"><ele>505.0</ele><time>2026-04-18T08:47:44Z</time></trkpt><trkpt lat="42.62264925277264" lon="13.64147665754971"><ele>505.0</ele><time>2026-04-18T08:47:46Z</time></trkpt><trkpt lat="42.62258447123106" lon="13.641324687060226"><ele>505.0</ele><time>2026-04-18T08:47:48Z</time></trkpt><trkpt lat="42.62252329209225" lon="13.641237266854024"><ele>505.0</ele><time>2026-04-18T08:47:49Z</time></trkpt><trkpt lat="42.622457120315026" lon="13.64114055178949"><ele>505.0</ele><time>2026-04-18T08:47:50Z</time></trkpt><trkpt lat="42.622396154454826" lon="13.641063617477295"><ele>505.0</ele><time>2026-04-18T08:47:51Z</time></trkpt><trkpt lat="42.62233847665386" lon="13.64093796152029"><ele>504.6666666666667</ele><time>2026-04-18T08:47:52Z</time></trkpt><trkpt lat="42.622281545413294" lon="13.64081446443665"><ele>504.33333333333337</ele><time>2026-04-18T08:47:53Z</time></trkpt><trkpt lat="42.62223879426367" lon="13.640713367088322"><ele>504.0</ele><time>2026-04-18T08:47:54Z</time></trkpt><trkpt lat="42.622196257811254" lon="13.640629528054777"><ele>503.66666666666663</ele><time>2026-04-18T08:47:55Z</time></trkpt><trkpt lat="42.62217314053672" lon="13.64053463516308"><ele>503.3333333333333</ele><time>2026-04-18T08:47:56Z</time></trkpt><trkpt lat="42.622086108038836" lon="13.640449155484948"><ele>503.0</ele><time>2026-04-18T08:47:58Z</time></trkpt><trkpt lat="42.62201514255761" lon="13.640389901462083"><ele>506.4</ele><time>2026-04-18T08:47:59Z</time></trkpt><trkpt lat="42.62194388093314" lon="13.640304423772507"><ele>509.79999999999995</ele><time>2026-04-18T08:48:00Z</time></trkpt><trkpt lat="42.62188622691973" lon="13.64018289277992"><ele>513.2</ele><time>2026-04-18T08:48:01Z</time></trkpt><trkpt lat="42.621823374081835" lon="13.640075741477203"><ele>516.6</ele><time>2026-04-18T08:48:02Z</time></trkpt><trkpt lat="42.62173886271521" lon="13.640006822265638"><ele>520.0</ele><time>2026-04-18T08:48:03Z</time></trkpt><trkpt lat="42.62166285320792" lon="13.639937344743288"><ele>520.0</ele><time>2026-04-18T08:48:04Z</time></trkpt><trkpt lat="42.62159427610891" lon="13.639885517628018"><ele>520.0</ele><time>2026-04-18T08:48:05Z</time></trkpt><trkpt lat="42.62152135868947" lon="13.639876693976149"><ele>520.0</ele><time>2026-04-18T08:48:06Z</time></trkpt><trkpt lat="42.6214483314635" lon="13.63986695764448"><ele>520.0</ele><time>2026-04-18T08:48:07Z</time></trkpt><trkpt lat="42.62134446863443" lon="13.639755382095467"><ele>520.0</ele><time>2026-04-18T08:48:09Z</time></trkpt><trkpt lat="42.62132892847626" lon="13.639619785718597"><ele>520.0</ele><time>2026-04-18T08:48:10Z</time></trkpt><trkpt lat="42.621306277033575" lon="13.639484795180223"><ele>520.0</ele><time>2026-04-18T08:48:11Z</time></trkpt><trkpt lat="42.621269979429364" lon="13.639337034919146"><ele>520.0</ele><time>2026-04-18T08:48:12Z</time></trkpt><trkpt lat="42.62125086533387" lon="13.639202212335444"><ele>520.0</ele><time>2026-04-18T08:48:13Z</time></trkpt><trkpt lat="42.62123388080304" lon="13.638937272469692"><ele>517.8</ele><time>2026-04-18T08:48:15Z</time></trkpt><trkpt lat="42.621224797762444" lon="13.638795473281812"><ele>515.6</ele><time>2026-04-18T08:48:16Z</time></trkpt><trkpt lat="42.62117644502101" lon="13.638673811221583"><ele>513.4</ele><time>2026-04-18T08:48:17Z</time></trkpt><trkpt lat="42.6211329696225" lon="13.638548791331568"><ele>511.2</ele><time>2026-04-18T08:48:18Z</time></trkpt><trkpt lat="42.62106809267594" lon="13.638406512546402"><ele>509.0</ele><time>2026-04-18T08:48:19Z</time></trkpt><trkpt lat="42.621002009891384" lon="13.63827377360294"><ele>514.0</ele><time>2026-04-18T08:48:20Z</time></trkpt><trkpt lat="42.62096816325723" lon="13.638113499971462"><ele>519.0</ele><time>2026-04-18T08:48:21Z</time></trkpt><trkpt lat="42.62095663364372" lon="13.638022009343038"><ele>524.0</ele><time>2026-04-18T08:49:05Z</time></trkpt><trkpt lat="42.62092031110544" lon="13.637943065393312"><ele>529.0</ele><time>2026-04-18T08:49:13Z</time></trkpt><trkpt lat="42.62087131091041" lon="13.63788765706847"><ele>534.0</ele><time>2026-04-18T08:49:15Z</time></trkpt><trkpt lat="42.62079519297355" lon="13.637820022667498"><ele>539.0</ele><time>2026-04-18T08:49:17Z</time></trkpt><trkpt lat="42.620687937267824" lon="13.637750679095735"><ele>539.0</ele><time>2026-04-18T08:49:19Z</time></trkpt><trkpt lat="42.62063188247009" lon="13.637704332979254"><ele>539.0</ele><time>2026-04-18T08:49:19.999Z</time></trkpt><trkpt lat="42.62057992531396" lon="13.637645310561602"><ele>539.0</ele><time>2026-04-18T08:49:20.999Z</time></trkpt><trkpt lat="42.620540243482736" lon="13.63757658878365"><ele>539.0</ele><time>2026-04-18T08:49:21.999Z</time></trkpt><trkpt lat="42.620510906166984" lon="13.637487794331134"><ele>539.0</ele><time>2026-04-18T08:49:22.999Z</time></trkpt><trkpt lat="42.62048583101283" lon="13.637376919481348"><ele>539.0</ele><time>2026-04-18T08:49:24.999Z</time></trkpt><trkpt lat="42.62046595893903" lon="13.637276475593161"><ele>539.0</ele><time>2026-04-18T08:49:27Z</time></trkpt><trkpt lat="42.6204173863576" lon="13.63719595999014"><ele>539.0</ele><time>2026-04-18T08:49:29Z</time></trkpt><trkpt lat="42.620361963518384" lon="13.637030950409704"><ele>539.0</ele><time>2026-04-18T08:49:38Z</time></trkpt><trkpt lat="42.62032163676696" lon="13.636941801194332"><ele>539.0</ele><time>2026-04-18T08:49:39Z</time></trkpt><trkpt lat="42.620264467545596" lon="13.636825836928345"><ele>539.0</ele><time>2026-04-18T08:49:40Z</time></trkpt><trkpt lat="42.62021162405364" lon="13.636708558906783"><ele>539.0</ele><time>2026-04-18T08:49:41Z</time></trkpt><trkpt lat="42.620172155766014" lon="13.636588550205458"><ele>538.6</ele><time>2026-04-18T08:49:42Z</time></trkpt><trkpt lat="42.62013847089417" lon="13.636459998355853"><ele>538.2</ele><time>2026-04-18T08:49:43Z</time></trkpt><trkpt lat="42.62010766878551" lon="13.636313841301462"><ele>537.8000000000001</ele><time>2026-04-18T08:49:44Z</time></trkpt><trkpt lat="42.62009852252244" lon="13.63618168847181"><ele>537.4</ele><time>2026-04-18T08:49:45Z</time></trkpt><trkpt lat="42.620114701277096" lon="13.636034338630571"><ele>537.0</ele><time>2026-04-18T08:49:46Z</time></trkpt><trkpt lat="42.62009992576106" lon="13.635908975654086"><ele>538.4</ele><time>2026-04-18T08:49:47Z</time></trkpt><trkpt lat="42.62005866644657" lon="13.635779446366712"><ele>539.8000000000001</ele><time>2026-04-18T08:49:48Z</time></trkpt><trkpt lat="42.61999286703046" lon="13.635639360452364"><ele>541.2</ele><time>2026-04-18T08:49:49Z</time></trkpt><trkpt lat="42.619929943250796" lon="13.635514780787512"><ele>542.6</ele><time>2026-04-18T08:49:50Z</time></trkpt><trkpt lat="42.61987028056316" lon="13.635385899892945"><ele>544.0</ele><time>2026-04-18T08:49:51Z</time></trkpt><trkpt lat="42.619798673025294" lon="13.635268119908837"><ele>545.4</ele><time>2026-04-18T08:49:52Z</time></trkpt><trkpt lat="42.61971452672367" lon="13.635167409638706"><ele>546.8</ele><time>2026-04-18T08:49:53Z</time></trkpt><trkpt lat="42.61967134349136" lon="13.635046215898472"><ele>548.2</ele><time>2026-04-18T08:49:54Z</time></trkpt><trkpt lat="42.61965614382186" lon="13.634931909338418"><ele>549.6</ele><time>2026-04-18T08:49:55Z</time></trkpt><trkpt lat="42.619631924635" lon="13.634805830067304"><ele>551.0</ele><time>2026-04-18T08:49:56Z</time></trkpt><trkpt lat="42.619630207455785" lon="13.634682992512385"><ele>551.0</ele><time>2026-04-18T08:49:57Z</time></trkpt><trkpt lat="42.61961823355494" lon="13.6345472592767"><ele>551.0</ele><time>2026-04-18T08:49:58Z</time></trkpt><trkpt lat="42.61956820632676" lon="13.634457652072175"><ele>551.0</ele><time>2026-04-18T08:49:59Z</time></trkpt><trkpt lat="42.61950948139052" lon="13.634306498439376"><ele>551.0</ele><time>2026-04-18T08:50:00Z</time></trkpt><trkpt lat="42.61947289231796" lon="13.634158191328934"><ele>551.0</ele><time>2026-04-18T08:50:01Z</time></trkpt><trkpt lat="42.619452065589826" lon="13.634020727373416"><ele>554.0</ele><time>2026-04-18T08:50:02Z</time></trkpt><trkpt lat="42.61942304710115" lon="13.633888896827314"><ele>557.0</ele><time>2026-04-18T08:50:03Z</time></trkpt><trkpt lat="42.619408152597394" lon="13.633739483257285"><ele>560.0</ele><time>2026-04-18T08:50:04Z</time></trkpt><trkpt lat="42.619405844470315" lon="13.633567387866016"><ele>563.0</ele><time>2026-04-18T08:50:05Z</time></trkpt><trkpt lat="42.61939131772222" lon="13.633394762668207"><ele>564.4</ele><time>2026-04-18T08:50:06Z</time></trkpt><trkpt lat="42.61937741117929" lon="13.633253858700808"><ele>565.8</ele><time>2026-04-18T08:50:07Z</time></trkpt><trkpt lat="42.61935295540986" lon="13.633156970437042"><ele>567.2</ele><time>2026-04-18T08:50:08Z</time></trkpt><trkpt lat="42.61927718433197" lon="13.63304025797768"><ele>568.6</ele><time>2026-04-18T08:50:09Z</time></trkpt><trkpt lat="42.61918363047658" lon="13.632928342586164"><ele>570.0</ele><time>2026-04-18T08:50:10Z</time></trkpt><trkpt lat="42.61908617566248" lon="13.632749365325616"><ele>572.6</ele><time>2026-04-18T08:50:11Z</time></trkpt><trkpt lat="42.619018844486135" lon="13.63256303877475"><ele>575.2</ele><time>2026-04-18T08:50:12Z</time></trkpt><trkpt lat="42.61898207925747" lon="13.632410406179636"><ele>577.8</ele><time>2026-04-18T08:50:13Z</time></trkpt><trkpt lat="42.618949138116385" lon="13.632277211998051"><ele>580.4</ele><time>2026-04-18T08:50:14Z</time></trkpt><trkpt lat="42.618919782761154" lon="13.632197158305736"><ele>583.0</ele><time>2026-04-18T08:50:15Z</time></trkpt><trkpt lat="42.61890267712527" lon="13.632107116055085"><ele>581.6</ele><time>2026-04-18T08:50:17Z</time></trkpt><trkpt lat="42.618888670192796" lon="13.63196097069688"><ele>580.1999999999999</ele><time>2026-04-18T08:50:49Z</time></trkpt><trkpt lat="42.61886533180766" lon="13.631872948501455"><ele>578.8</ele><time>2026-04-18T08:50:50Z</time></trkpt><trkpt lat="42.61880242173755" lon="13.631794731951093"><ele>577.4</ele><time>2026-04-18T08:50:51Z</time></trkpt><trkpt lat="42.618721176051245" lon="13.631719148147164"><ele>576.0</ele><time>2026-04-18T08:50:52Z</time></trkpt><trkpt lat="42.61865362849095" lon="13.631608949360352"><ele>576.4</ele><time>2026-04-18T08:50:53Z</time></trkpt><trkpt lat="42.61861112921312" lon="13.631470928321233"><ele>576.8</ele><time>2026-04-18T08:50:54Z</time></trkpt><trkpt lat="42.61856192518739" lon="13.631328428472306"><ele>577.1999999999999</ele><time>2026-04-18T08:50:55Z</time></trkpt><trkpt lat="42.61851788295455" lon="13.631243684263772"><ele>577.6</ele><time>2026-04-18T08:50:56Z</time></trkpt><trkpt lat="42.61846711159014" lon="13.63116329595295"><ele>578.0</ele><time>2026-04-18T08:50:57Z</time></trkpt><trkpt lat="42.61841208010557" lon="13.631065998775545"><ele>580.8</ele><time>2026-04-18T08:50:58Z</time></trkpt><trkpt lat="42.61834886441769" lon="13.630940923607163"><ele>583.5999999999999</ele><time>2026-04-18T08:50:59Z</time></trkpt><trkpt lat="42.61829181434867" lon="13.630843153200138"><ele>586.4000000000001</ele><time>2026-04-18T08:51:00Z</time></trkpt><trkpt lat="42.618254585172544" lon="13.630724415914981"><ele>589.2</ele><time>2026-04-18T08:51:01Z</time></trkpt><trkpt lat="42.61826209368552" lon="13.63060158440595"><ele>592.0</ele><time>2026-04-18T08:51:02Z</time></trkpt><trkpt lat="42.61828083167763" lon="13.630468570296555"><ele>592.0</ele><time>2026-04-18T08:51:03Z</time></trkpt><trkpt lat="42.61830634592352" lon="13.630342801604579"><ele>592.0</ele><time>2026-04-18T08:51:04Z</time></trkpt><trkpt lat="42.61832416401811" lon="13.630198898281595"><ele>592.0</ele><time>2026-04-18T08:51:05Z</time></trkpt><trkpt lat="42.618321992675774" lon="13.630054880985108"><ele>592.0</ele><time>2026-04-18T08:51:06Z</time></trkpt><trkpt lat="42.618295965979925" lon="13.62989225328611"><ele>592.0</ele><time>2026-04-18T08:51:07Z</time></trkpt><trkpt lat="42.61825894653337" lon="13.629720229243416"><ele>593.0</ele><time>2026-04-18T08:51:08Z</time></trkpt><trkpt lat="42.61824517220872" lon="13.62955298836328"><ele>594.0</ele><time>2026-04-18T08:51:09Z</time></trkpt><trkpt lat="42.61825095488961" lon="13.629396558251187"><ele>595.0</ele><time>2026-04-18T08:51:10Z</time></trkpt><trkpt lat="42.61827186079983" lon="13.62926631205924"><ele>596.0</ele><time>2026-04-18T08:51:11Z</time></trkpt><trkpt lat="42.61829290230115" lon="13.62914790774909"><ele>597.0</ele><time>2026-04-18T08:51:12Z</time></trkpt><trkpt lat="42.61829343740905" lon="13.62902239319685"><ele>597.6</ele><time>2026-04-18T08:51:13Z</time></trkpt><trkpt lat="42.61827257990721" lon="13.628898836198212"><ele>598.2</ele><time>2026-04-18T08:51:14Z</time></trkpt><trkpt lat="42.61824722955796" lon="13.628765818822227"><ele>598.8</ele><time>2026-04-18T08:51:15Z</time></trkpt><trkpt lat="42.618205268134375" lon="13.628629391791081"><ele>599.4</ele><time>2026-04-18T08:51:16Z</time></trkpt><trkpt lat="42.61813901843889" lon="13.628481498635713"><ele>600.0</ele><time>2026-04-18T08:51:17Z</time></trkpt><trkpt lat="42.61804066090876" lon="13.628355505688786"><ele>599.5</ele><time>2026-04-18T08:51:18Z</time></trkpt><trkpt lat="42.617952213889915" lon="13.628217209480166"><ele>599.0</ele><time>2026-04-18T08:51:19Z</time></trkpt><trkpt lat="42.617857828027276" lon="13.628085762721248"><ele>598.5</ele><time>2026-04-18T08:51:20Z</time></trkpt><trkpt lat="42.61777690660268" lon="13.627936145807414"><ele>598.0</ele><time>2026-04-18T08:51:21Z</time></trkpt><trkpt lat="42.61769622538632" lon="13.62779213259562"><ele>605.75</ele><time>2026-04-18T08:51:22Z</time></trkpt><trkpt lat="42.617623584052055" lon="13.627631128781951"><ele>613.5</ele><time>2026-04-18T08:51:23Z</time></trkpt><trkpt lat="42.61754617489274" lon="13.627475487231717"><ele>621.25</ele><time>2026-04-18T08:51:24Z</time></trkpt><trkpt lat="42.61744293958338" lon="13.62735011204117"><ele>629.0</ele><time>2026-04-18T08:51:25Z</time></trkpt><trkpt lat="42.61730580657474" lon="13.6272496873125"><ele>629.0</ele><time>2026-04-18T08:51:26Z</time></trkpt><trkpt lat="42.61723361253148" lon="13.627099698024299"><ele>629.0</ele><time>2026-04-18T08:51:27Z</time></trkpt><trkpt lat="42.61717337416214" lon="13.626971671759165"><ele>629.0</ele><time>2026-04-18T08:51:28Z</time></trkpt><trkpt lat="42.61712765082051" lon="13.626871549331822"><ele>629.0</ele><time>2026-04-18T08:51:29Z</time></trkpt><trkpt lat="42.617088710837216" lon="13.62678165189635"><ele>629.0</ele><time>2026-04-18T08:51:30Z</time></trkpt><trkpt lat="42.61705304471577" lon="13.62668333461243"><ele>631.0</ele><time>2026-04-18T08:51:31Z</time></trkpt><trkpt lat="42.61701294092681" lon="13.626562193343137"><ele>633.0</ele><time>2026-04-18T08:51:32Z</time></trkpt><trkpt lat="42.61696266793074" lon="13.62645146054006"><ele>635.0</ele><time>2026-04-18T08:51:33Z</time></trkpt><trkpt lat="42.61693287194904" lon="13.626322629626033"><ele>637.0</ele><time>2026-04-18T08:51:34Z</time></trkpt><trkpt lat="42.616896661777986" lon="13.626207479174013"><ele>639.0</ele><time>2026-04-18T08:51:35Z</time></trkpt><trkpt lat="42.61685889416548" lon="13.626076037408014"><ele>639.25</ele><time>2026-04-18T08:51:36Z</time></trkpt><trkpt lat="42.61682235450814" lon="13.625926463029394"><ele>639.5</ele><time>2026-04-18T08:51:37Z</time></trkpt><trkpt lat="42.616798950526714" lon="13.625762226697246"><ele>639.75</ele><time>2026-04-18T08:51:38Z</time></trkpt><trkpt lat="42.616764962926" lon="13.625590727107898"><ele>640.0</ele><time>2026-04-18T08:51:39Z</time></trkpt><trkpt lat="42.616730565286844" lon="13.625421781936124"><ele>637.25</ele><time>2026-04-18T08:51:40Z</time></trkpt><trkpt lat="42.61669944062983" lon="13.625252718539008"><ele>634.5</ele><time>2026-04-18T08:51:41Z</time></trkpt><trkpt lat="42.61667939862795" lon="13.625087422331053"><ele>631.75</ele><time>2026-04-18T08:51:42Z</time></trkpt><trkpt lat="42.61665968003386" lon="13.624906155500058"><ele>629.0</ele><time>2026-04-18T08:51:43Z</time></trkpt><trkpt lat="42.616632160234765" lon="13.624769087089605"><ele>629.0</ele><time>2026-04-18T08:51:44Z</time></trkpt><trkpt lat="42.61661020091566" lon="13.624629506358668"><ele>629.0</ele><time>2026-04-18T08:51:45Z</time></trkpt><trkpt lat="42.616557940969265" lon="13.624520349580221"><ele>629.0</ele><time>2026-04-18T08:51:46Z</time></trkpt><trkpt lat="42.616463316688645" lon="13.624434232221871"><ele>629.0</ele><time>2026-04-18T08:51:47Z</time></trkpt><trkpt lat="42.616366741636995" lon="13.62434901621326"><ele>629.0</ele><time>2026-04-18T08:51:48Z</time></trkpt><trkpt lat="42.616238303002945" lon="13.624312590867236"><ele>629.5</ele><time>2026-04-18T08:51:49Z</time></trkpt><trkpt lat="42.61610260384062" lon="13.624305645095632"><ele>630.0</ele><time>2026-04-18T08:51:50Z</time></trkpt><trkpt lat="42.61597633262582" lon="13.624269918936385"><ele>630.5</ele><time>2026-04-18T08:51:51Z</time></trkpt><trkpt lat="42.61586337621293" lon="13.624223348706865"><ele>631.0</ele><time>2026-04-18T08:51:52Z</time></trkpt><trkpt lat="42.61580522658559" lon="13.62410658235468"><ele>631.0</ele><time>2026-04-18T08:51:53Z</time></trkpt><trkpt lat="42.61572707429767" lon="13.623991775840098"><ele>631.0</ele><time>2026-04-18T08:51:54Z</time></trkpt><trkpt lat="42.61563875248944" lon="13.623860972832704"><ele>631.0</ele><time>2026-04-18T08:51:55Z</time></trkpt><trkpt lat="42.61554550975945" lon="13.623735492422178"><ele>631.0</ele><time>2026-04-18T08:51:56Z</time></trkpt><trkpt lat="42.61546384716742" lon="13.623604941632355"><ele>630.0</ele><time>2026-04-18T08:51:57Z</time></trkpt><trkpt lat="42.615372071367496" lon="13.623489460349548"><ele>629.0</ele><time>2026-04-18T08:51:58Z</time></trkpt><trkpt lat="42.61531929652108" lon="13.623346081500282"><ele>628.0</ele><time>2026-04-18T08:51:59Z</time></trkpt><trkpt lat="42.61528603326375" lon="13.623207253664333"><ele>627.0</ele><time>2026-04-18T08:52:00Z</time></trkpt><trkpt lat="42.61522096602079" lon="13.623085240744103"><ele>628.25</ele><time>2026-04-18T08:52:01Z</time></trkpt><trkpt lat="42.615118410324804" lon="13.622975811217332"><ele>629.5</ele><time>2026-04-18T08:52:02Z</time></trkpt><trkpt lat="42.61501244297148" lon="13.622867418828605"><ele>630.75</ele><time>2026-04-18T08:52:03Z</time></trkpt><trkpt lat="42.61490165894388" lon="13.62279474116193"><ele>632.0</ele><time>2026-04-18T08:52:04Z</time></trkpt><trkpt lat="42.61478769719932" lon="13.62275412568024"><ele>632.0</ele><time>2026-04-18T08:52:05Z</time></trkpt><trkpt lat="42.61465168348634" lon="13.62273633156577"><ele>632.0</ele><time>2026-04-18T08:52:06Z</time></trkpt><trkpt lat="42.61451302705282" lon="13.622658199942265"><ele>632.0</ele><time>2026-04-18T08:52:07Z</time></trkpt><trkpt lat="42.61438310685549" lon="13.622564480181197"><ele>632.0</ele><time>2026-04-18T08:52:08Z</time></trkpt><trkpt lat="42.61425991904045" lon="13.622482047228063"><ele>635.75</ele><time>2026-04-18T08:52:09Z</time></trkpt><trkpt lat="42.61414589928094" lon="13.622393308120222"><ele>639.5</ele><time>2026-04-18T08:52:10Z</time></trkpt><trkpt lat="42.61402419205309" lon="13.62232462678796"><ele>643.25</ele><time>2026-04-18T08:52:11Z</time></trkpt><trkpt lat="42.613917587347714" lon="13.622233905837755"><ele>647.0</ele><time>2026-04-18T08:52:12Z</time></trkpt><trkpt lat="42.61380880098939" lon="13.622142713868842"><ele>647.0</ele><time>2026-04-18T08:52:13Z</time></trkpt><trkpt lat="42.6136997650045" lon="13.622031092588369"><ele>647.0</ele><time>2026-04-18T08:52:14Z</time></trkpt><trkpt lat="42.613594928963984" lon="13.621904804457476"><ele>647.0</ele><time>2026-04-18T08:52:15Z</time></trkpt><trkpt lat="42.61348785389597" lon="13.621768708311327"><ele>647.0</ele><time>2026-04-18T08:52:16Z</time></trkpt><trkpt lat="42.61338319613845" lon="13.621633216536013"><ele>647.75</ele><time>2026-04-18T08:52:17Z</time></trkpt><trkpt lat="42.61327117512159" lon="13.62153616174111"><ele>648.5</ele><time>2026-04-18T08:52:18Z</time></trkpt><trkpt lat="42.61316584609922" lon="13.621442214131557"><ele>649.25</ele><time>2026-04-18T08:52:19Z</time></trkpt><trkpt lat="42.61305316161621" lon="13.621336005212388"><ele>650.0</ele><time>2026-04-18T08:52:20Z</time></trkpt><trkpt lat="42.612930486012296" lon="13.621233787675811"><ele>655.0</ele><time>2026-04-18T08:52:21Z</time></trkpt><trkpt lat="42.61280454075224" lon="13.621125099655188"><ele>660.0</ele><time>2026-04-18T08:52:22Z</time></trkpt><trkpt lat="42.61268262018986" lon="13.62100823720683"><ele>665.0</ele><time>2026-04-18T08:52:23Z</time></trkpt><trkpt lat="42.612568233362055" lon="13.620891486544886"><ele>670.0</ele><time>2026-04-18T08:52:24Z</time></trkpt><trkpt lat="42.61245198123155" lon="13.620779433601491"><ele>670.0</ele><time>2026-04-18T08:52:25Z</time></trkpt><trkpt lat="42.612325260758524" lon="13.620681845753962"><ele>670.0</ele><time>2026-04-18T08:52:26Z</time></trkpt><trkpt lat="42.612190740829945" lon="13.620635645408072"><ele>670.0</ele><time>2026-04-18T08:52:27Z</time></trkpt><trkpt lat="42.61210294424431" lon="13.620560122050373"><ele>670.0</ele><time>2026-04-18T08:52:28Z</time></trkpt><trkpt lat="42.61202979664053" lon="13.620502752513339"><ele>670.8</ele><time>2026-04-18T08:52:29Z</time></trkpt><trkpt lat="42.611988515192145" lon="13.620411884818083"><ele>671.6</ele><time>2026-04-18T08:52:30Z</time></trkpt><trkpt lat="42.61195049125417" lon="13.620296401864017"><ele>672.4000000000001</ele><time>2026-04-18T08:52:31Z</time></trkpt><trkpt lat="42.61190065497966" lon="13.62015935272098"><ele>673.2</ele><time>2026-04-18T08:52:32Z</time></trkpt><trkpt lat="42.61183242852776" lon="13.620011884460666"><ele>674.0</ele><time>2026-04-18T08:52:33Z</time></trkpt><trkpt lat="42.61171945509593" lon="13.619886992885982"><ele>674.0</ele><time>2026-04-18T08:52:34Z</time></trkpt><trkpt lat="42.611641627798676" lon="13.619752958070794"><ele>674.0</ele><time>2026-04-18T08:52:35Z</time></trkpt><trkpt lat="42.61156962513695" lon="13.61963119791806"><ele>674.0</ele><time>2026-04-18T08:52:36Z</time></trkpt><trkpt lat="42.61152997377083" lon="13.61952757971639"><ele>674.0</ele><time>2026-04-18T08:52:37Z</time></trkpt><trkpt lat="42.61152024266885" lon="13.61942222151863"><ele>674.0</ele><time>2026-04-18T08:52:38Z</time></trkpt><trkpt lat="42.61156104915582" lon="13.619275148953786"><ele>677.0</ele><time>2026-04-18T08:52:39Z</time></trkpt><trkpt lat="42.61158300767169" lon="13.619103472697963"><ele>680.0</ele><time>2026-04-18T08:52:40Z</time></trkpt><trkpt lat="42.61156914421222" lon="13.618930879043505"><ele>683.0</ele><time>2026-04-18T08:52:41Z</time></trkpt><trkpt lat="42.61154638625461" lon="13.618768378861036"><ele>686.0</ele><time>2026-04-18T08:52:42Z</time></trkpt><trkpt lat="42.611487063439476" lon="13.61861331084463"><ele>688.5</ele><time>2026-04-18T08:52:43Z</time></trkpt><trkpt lat="42.61140364628009" lon="13.618448950058422"><ele>691.0</ele><time>2026-04-18T08:52:44Z</time></trkpt><trkpt lat="42.61134627020472" lon="13.618303332933186"><ele>693.5</ele><time>2026-04-18T08:52:45Z</time></trkpt><trkpt lat="42.61131024469905" lon="13.618156988950895"><ele>696.0</ele><time>2026-04-18T08:52:46Z</time></trkpt><trkpt lat="42.61130347868401" lon="13.617998567767435"><ele>696.0</ele><time>2026-04-18T08:52:47Z</time></trkpt><trkpt lat="42.611293467030976" lon="13.617821341260374"><ele>696.0</ele><time>2026-04-18T08:52:48Z</time></trkpt><trkpt lat="42.61126688402019" lon="13.617665412469396"><ele>696.0</ele><time>2026-04-18T08:52:49Z</time></trkpt><trkpt lat="42.61122742681023" lon="13.617504837877558"><ele>696.0</ele><time>2026-04-18T08:52:50Z</time></trkpt><trkpt lat="42.61119380301712" lon="13.617356742837153"><ele>695.0</ele><time>2026-04-18T08:52:51Z</time></trkpt><trkpt lat="42.61114758850611" lon="13.617221100033651"><ele>694.0</ele><time>2026-04-18T08:52:52Z</time></trkpt><trkpt lat="42.611103252498275" lon="13.61710713728718"><ele>693.0</ele><time>2026-04-18T08:52:53Z</time></trkpt><trkpt lat="42.61104846831524" lon="13.61699478749893"><ele>692.0</ele><time>2026-04-18T08:52:54Z</time></trkpt><trkpt lat="42.61098017107231" lon="13.616882431989552"><ele>691.0</ele><time>2026-04-18T08:52:55Z</time></trkpt><trkpt lat="42.610892905444324" lon="13.616759310836889"><ele>691.0</ele><time>2026-04-18T08:52:56Z</time></trkpt><trkpt lat="42.610826071967715" lon="13.616613079067882"><ele>691.0</ele><time>2026-04-18T08:52:57Z</time></trkpt><trkpt lat="42.61079206512006" lon="13.616478095428327"><ele>691.0</ele><time>2026-04-18T08:52:58Z</time></trkpt><trkpt lat="42.61076788301301" lon="13.616348565055542"><ele>691.0</ele><time>2026-04-18T08:52:59Z</time></trkpt><trkpt lat="42.61076215129567" lon="13.6162536691013"><ele>691.0</ele><time>2026-04-18T08:53:00Z</time></trkpt><trkpt lat="42.610782022267806" lon="13.61611255108258"><ele>691.0</ele><time>2026-04-18T08:53:02Z</time></trkpt><trkpt lat="42.61081407192697" lon="13.616013684996053"><ele>691.0</ele><time>2026-04-18T08:53:03Z</time></trkpt><trkpt lat="42.61087248990839" lon="13.615901216407003"><ele>691.0</ele><time>2026-04-18T08:53:04Z</time></trkpt><trkpt lat="42.61092627655957" lon="13.615781357595916"><ele>691.0</ele><time>2026-04-18T08:53:05Z</time></trkpt><trkpt lat="42.61095743343279" lon="13.615657158292045"><ele>691.0</ele><time>2026-04-18T08:53:06Z</time></trkpt><trkpt lat="42.61096101443354" lon="13.615504219797888"><ele>691.0</ele><time>2026-04-18T08:53:07Z</time></trkpt><trkpt lat="42.61094582627381" lon="13.615337755518905"><ele>691.0</ele><time>2026-04-18T08:53:08Z</time></trkpt><trkpt lat="42.610921765659874" lon="13.615167609336872"><ele>691.0</ele><time>2026-04-18T08:53:09Z</time></trkpt><trkpt lat="42.61089966707015" lon="13.615013595690446"><ele>691.0</ele><time>2026-04-18T08:53:10Z</time></trkpt><trkpt lat="42.61086547897735" lon="13.61486961886177"><ele>690.5</ele><time>2026-04-18T08:53:11Z</time></trkpt><trkpt lat="42.610790554070334" lon="13.614723371146814"><ele>690.0</ele><time>2026-04-18T08:53:12Z</time></trkpt><trkpt lat="42.610709504452075" lon="13.614565324284124"><ele>689.5</ele><time>2026-04-18T08:53:13Z</time></trkpt><trkpt lat="42.61064287044199" lon="13.61442699699111"><ele>689.0</ele><time>2026-04-18T08:53:14Z</time></trkpt><trkpt lat="42.61060456748814" lon="13.614312638094432"><ele>690.0</ele><time>2026-04-18T08:53:15Z</time></trkpt><trkpt lat="42.61060596790272" lon="13.614218005899815"><ele>691.0</ele><time>2026-04-18T08:53:16Z</time></trkpt><trkpt lat="42.61065463395595" lon="13.614112186014646"><ele>692.0</ele><time>2026-04-18T08:53:17Z</time></trkpt><trkpt lat="42.610725388405825" lon="13.61398830790205"><ele>693.0</ele><time>2026-04-18T08:53:18Z</time></trkpt><trkpt lat="42.61077179371836" lon="13.61391629990853"><ele>694.0</ele><time>2026-04-18T08:53:19Z</time></trkpt><trkpt lat="42.610778406442655" lon="13.61381657201696"><ele>695.0</ele><time>2026-04-18T08:53:20Z</time></trkpt><trkpt lat="42.61076638190458" lon="13.61367149723513"><ele>694.5</ele><time>2026-04-18T08:53:21Z</time></trkpt><trkpt lat="42.61075152278917" lon="13.613509065518517"><ele>694.0</ele><time>2026-04-18T08:53:22Z</time></trkpt><trkpt lat="42.61077509045896" lon="13.613330643099179"><ele>693.5</ele><time>2026-04-18T08:53:23Z</time></trkpt><trkpt lat="42.61081778057623" lon="13.613159017811416"><ele>693.0</ele><time>2026-04-18T08:53:24Z</time></trkpt><trkpt lat="42.61084993164913" lon="13.613010301768778"><ele>693.0</ele><time>2026-04-18T08:53:25Z</time></trkpt><trkpt lat="42.61087201772456" lon="13.612851289619872"><ele>693.0</ele><time>2026-04-18T08:53:26Z</time></trkpt><trkpt lat="42.61087607162498" lon="13.61268517185837"><ele>693.0</ele><time>2026-04-18T08:53:27Z</time></trkpt><trkpt lat="42.610861342164085" lon="13.612501089115781"><ele>693.0</ele><time>2026-04-18T08:53:28Z</time></trkpt><trkpt lat="42.61087067901288" lon="13.61231850032702"><ele>691.8</ele><time>2026-04-18T08:53:29Z</time></trkpt><trkpt lat="42.610896490522215" lon="13.612165850188873"><ele>690.5999999999999</ele><time>2026-04-18T08:53:30Z</time></trkpt><trkpt lat="42.61090922060604" lon="13.612038478041546"><ele>689.4000000000001</ele><time>2026-04-18T08:53:31Z</time></trkpt><trkpt lat="42.610883061053876" lon="13.611941090371246"><ele>688.2</ele><time>2026-04-18T08:53:32Z</time></trkpt><trkpt lat="42.61085639104957" lon="13.611791569961568"><ele>687.0</ele><time>2026-04-18T08:53:33Z</time></trkpt><trkpt lat="42.61082881738408" lon="13.611617941019958"><ele>685.3333333333334</ele><time>2026-04-18T08:53:34Z</time></trkpt><trkpt lat="42.6107823578398" lon="13.611387188693401"><ele>683.6666666666667</ele><time>2026-04-18T08:53:35Z</time></trkpt><trkpt lat="42.61075637629791" lon="13.611176051630531"><ele>682.0</ele><time>2026-04-18T08:53:36Z</time></trkpt><trkpt lat="42.61073825138392" lon="13.61099245198868"><ele>682.0</ele><time>2026-04-18T08:53:36.999Z</time></trkpt><trkpt lat="42.610755743705084" lon="13.610821220794946"><ele>682.0</ele><time>2026-04-18T08:53:38Z</time></trkpt><trkpt lat="42.61077522879107" lon="13.610660855855237"><ele>682.0</ele><time>2026-04-18T08:53:39Z</time></trkpt><trkpt lat="42.6107908213574" lon="13.61049821953025"><ele>682.0</ele><time>2026-04-18T08:53:40Z</time></trkpt><trkpt lat="42.61081240486168" lon="13.610372501328902"><ele>684.0</ele><time>2026-04-18T08:53:41Z</time></trkpt><trkpt lat="42.610830308033755" lon="13.610230802745376"><ele>686.0</ele><time>2026-04-18T08:53:42Z</time></trkpt><trkpt lat="42.61086511813845" lon="13.610081521991935"><ele>688.0</ele><time>2026-04-18T08:53:43Z</time></trkpt><trkpt lat="42.610904312236045" lon="13.60990745202963"><ele>690.0</ele><time>2026-04-18T08:53:44Z</time></trkpt><trkpt lat="42.61094631336736" lon="13.609721517513005"><ele>690.0</ele><time>2026-04-18T08:53:45Z</time></trkpt><trkpt lat="42.61095422268554" lon="13.609554346905693"><ele>690.0</ele><time>2026-04-18T08:53:46Z</time></trkpt><trkpt lat="42.61095439581816" lon="13.60942178912728"><ele>690.0</ele><time>2026-04-18T08:53:47Z</time></trkpt><trkpt lat="42.61092476240378" lon="13.609248157533017"><ele>690.0</ele><time>2026-04-18T08:53:48Z</time></trkpt><trkpt lat="42.61087022994688" lon="13.609082089528524"><ele>692.5</ele><time>2026-04-18T08:53:49Z</time></trkpt><trkpt lat="42.610795374329484" lon="13.608911837372565"><ele>695.0</ele><time>2026-04-18T08:53:50Z</time></trkpt><trkpt lat="42.61075383449851" lon="13.608723120806536"><ele>697.5</ele><time>2026-04-18T08:53:51Z</time></trkpt><trkpt lat="42.61073394548417" lon="13.608539054697271"><ele>700.0</ele><time>2026-04-18T08:53:52Z</time></trkpt><trkpt lat="42.610735422215164" lon="13.608408511080873"><ele>703.6</ele><time>2026-04-18T08:53:53Z</time></trkpt><trkpt lat="42.61081277445599" lon="13.608322585576111"><ele>707.2</ele><time>2026-04-18T08:53:55Z</time></trkpt><trkpt lat="42.610883250658524" lon="13.608354478070789"><ele>710.8</ele><time>2026-04-18T08:53:56Z</time></trkpt><trkpt lat="42.610958868619186" lon="13.608430985096193"><ele>714.4</ele><time>2026-04-18T08:53:57Z</time></trkpt><trkpt lat="42.61105446626081" lon="13.608445743207461"><ele>718.0</ele><time>2026-04-18T08:53:58Z</time></trkpt><trkpt lat="42.61115001596591" lon="13.608372725483814"><ele>715.25</ele><time>2026-04-18T08:53:59Z</time></trkpt><trkpt lat="42.61123218914915" lon="13.60828357076691"><ele>712.5</ele><time>2026-04-18T08:54:00Z</time></trkpt><trkpt lat="42.61131241209227" lon="13.608158843462496"><ele>709.75</ele><time>2026-04-18T08:54:01Z</time></trkpt><trkpt lat="42.611399156763156" lon="13.608010922389562"><ele>707.0</ele><time>2026-04-18T08:54:02Z</time></trkpt><trkpt lat="42.61150060640312" lon="13.607875875237912"><ele>709.4000000000001</ele><time>2026-04-18T08:54:03Z</time></trkpt><trkpt lat="42.61160759916476" lon="13.607782318176286"><ele>711.8000000000001</ele><time>2026-04-18T08:54:04Z</time></trkpt><trkpt lat="42.61166420395364" lon="13.607702319653493"><ele>714.2</ele><time>2026-04-18T08:54:05Z</time></trkpt><trkpt lat="42.611695405766696" lon="13.607570523098635"><ele>716.6</ele><time>2026-04-18T08:54:06Z</time></trkpt><trkpt lat="42.61173617816103" lon="13.607425770952997"><ele>719.0</ele><time>2026-04-18T08:54:07Z</time></trkpt><trkpt lat="42.61177543292813" lon="13.6072508934862"><ele>719.0</ele><time>2026-04-18T08:54:08Z</time></trkpt><trkpt lat="42.611792182521455" lon="13.607086545509516"><ele>719.0</ele><time>2026-04-18T08:54:09Z</time></trkpt><trkpt lat="42.611772673856905" lon="13.606911722490855"><ele>719.0</ele><time>2026-04-18T08:54:10Z</time></trkpt><trkpt lat="42.61173059319365" lon="13.606747618078437"><ele>719.0</ele><time>2026-04-18T08:54:11Z</time></trkpt><trkpt lat="42.611702285249706" lon="13.606595869600843"><ele>716.5</ele><time>2026-04-18T08:54:12Z</time></trkpt><trkpt lat="42.61166831659247" lon="13.606446277156621"><ele>714.0</ele><time>2026-04-18T08:54:13Z</time></trkpt><trkpt lat="42.611611017604226" lon="13.60630252698017"><ele>711.5</ele><time>2026-04-18T08:54:14Z</time></trkpt><trkpt lat="42.61153605572224" lon="13.606129649182106"><ele>709.0</ele><time>2026-04-18T08:54:15Z</time></trkpt><trkpt lat="42.611445307493554" lon="13.605965986497933"><ele>705.8000000000001</ele><time>2026-04-18T08:54:16Z</time></trkpt><trkpt lat="42.6113611095046" lon="13.605841430405269"><ele>702.6</ele><time>2026-04-18T08:54:17Z</time></trkpt><trkpt lat="42.611307217702944" lon="13.605734935983463"><ele>699.4</ele><time>2026-04-18T08:54:18Z</time></trkpt><trkpt lat="42.61127663307227" lon="13.605582294709007"><ele>696.2</ele><time>2026-04-18T08:54:19Z</time></trkpt><trkpt lat="42.61127793334422" lon="13.605457792568343"><ele>693.0</ele><time>2026-04-18T08:54:20Z</time></trkpt><trkpt lat="42.611298208130506" lon="13.605323041080545"><ele>692.0</ele><time>2026-04-18T08:54:21Z</time></trkpt><trkpt lat="42.61133590752776" lon="13.605147465912465"><ele>691.0</ele><time>2026-04-18T08:54:22Z</time></trkpt><trkpt lat="42.611386522544876" lon="13.604946307081224"><ele>690.0</ele><time>2026-04-18T08:54:23Z</time></trkpt><trkpt lat="42.61143773287084" lon="13.60475972568453"><ele>689.0</ele><time>2026-04-18T08:54:24Z</time></trkpt><trkpt lat="42.61146315470578" lon="13.604581536694802"><ele>690.75</ele><time>2026-04-18T08:54:25Z</time></trkpt><trkpt lat="42.61147352764568" lon="13.60441323945093"><ele>692.5</ele><time>2026-04-18T08:54:26Z</time></trkpt><trkpt lat="42.61148958986222" lon="13.604219716270244"><ele>694.25</ele><time>2026-04-18T08:54:27Z</time></trkpt><trkpt lat="42.61149846994229" lon="13.604029039098673"><ele>696.0</ele><time>2026-04-18T08:54:28Z</time></trkpt><trkpt lat="42.61151198977213" lon="13.603788200772394"><ele>696.75</ele><time>2026-04-18T08:54:29Z</time></trkpt><trkpt lat="42.61150809615352" lon="13.603555273781115"><ele>697.5</ele><time>2026-04-18T08:54:30Z</time></trkpt><trkpt lat="42.61150510956407" lon="13.603383627748554"><ele>698.25</ele><time>2026-04-18T08:54:31Z</time></trkpt><trkpt lat="42.61148249494644" lon="13.603252360708705"><ele>699.0</ele><time>2026-04-18T08:54:32Z</time></trkpt><trkpt lat="42.61143642395918" lon="13.603168384400087"><ele>699.0</ele><time>2026-04-18T08:54:33Z</time></trkpt><trkpt lat="42.61135776515168" lon="13.603101431670343"><ele>699.0</ele><time>2026-04-18T08:54:34Z</time></trkpt><trkpt lat="42.61127168073923" lon="13.603005043909764"><ele>699.0</ele><time>2026-04-18T08:54:35Z</time></trkpt><trkpt lat="42.61122389793604" lon="13.602900803101893"><ele>699.0</ele><time>2026-04-18T08:54:36Z</time></trkpt><trkpt lat="42.611232058854725" lon="13.602810597243108"><ele>699.0</ele><time>2026-04-18T08:54:37Z</time></trkpt><trkpt lat="42.61127731915702" lon="13.602731718946975"><ele>699.0</ele><time>2026-04-18T08:54:38Z</time></trkpt><trkpt lat="42.611349302526534" lon="13.602657369250258"><ele>702.25</ele><time>2026-04-18T08:54:39Z</time></trkpt><trkpt lat="42.6114380026571" lon="13.602562282340157"><ele>705.5</ele><time>2026-04-18T08:54:40Z</time></trkpt><trkpt lat="42.61154731187096" lon="13.602457364994363"><ele>708.75</ele><time>2026-04-18T08:54:41Z</time></trkpt><trkpt lat="42.61166695217925" lon="13.602343527580535"><ele>712.0</ele><time>2026-04-18T08:54:42Z</time></trkpt><trkpt lat="42.61178783318402" lon="13.602251002170673"><ele>712.0</ele><time>2026-04-18T08:54:43Z</time></trkpt><trkpt lat="42.611905548354756" lon="13.602164031391741"><ele>712.0</ele><time>2026-04-18T08:54:44Z</time></trkpt><trkpt lat="42.61204096569028" lon="13.60211136301039"><ele>712.0</ele><time>2026-04-18T08:54:45Z</time></trkpt><trkpt lat="42.6121700988593" lon="13.602092321339878"><ele>712.0</ele><time>2026-04-18T08:54:46Z</time></trkpt><trkpt lat="42.61227491418285" lon="13.602061935542835"><ele>711.25</ele><time>2026-04-18T08:54:47Z</time></trkpt><trkpt lat="42.61236636140792" lon="13.601983791040134"><ele>710.5</ele><time>2026-04-18T08:54:48Z</time></trkpt><trkpt lat="42.612463469727494" lon="13.601862050199816"><ele>709.75</ele><time>2026-04-18T08:54:49Z</time></trkpt><trkpt lat="42.61257645876979" lon="13.601747017974986"><ele>709.0</ele><time>2026-04-18T08:54:50Z</time></trkpt><trkpt lat="42.612649383289174" lon="13.601644212440673"><ele>709.0</ele><time>2026-04-18T08:54:51Z</time></trkpt><trkpt lat="42.61270441461394" lon="13.601587844194025"><ele>709.0</ele><time>2026-04-18T08:54:52Z</time></trkpt><trkpt lat="42.61270849320926" lon="13.601463705322894"><ele>709.0</ele><time>2026-04-18T08:54:53Z</time></trkpt><trkpt lat="42.61271219218446" lon="13.601288775051902"><ele>709.0</ele><time>2026-04-18T08:54:54Z</time></trkpt><trkpt lat="42.61270796054937" lon="13.601109881973583"><ele>709.0</ele><time>2026-04-18T08:54:55Z</time></trkpt><trkpt lat="42.61268391253906" lon="13.600950208552314"><ele>711.5</ele><time>2026-04-18T08:54:56Z</time></trkpt><trkpt lat="42.61266445341768" lon="13.600756144015884"><ele>714.0</ele><time>2026-04-18T08:54:57Z</time></trkpt><trkpt lat="42.61260004322704" lon="13.600577077374526"><ele>716.5</ele><time>2026-04-18T08:54:58Z</time></trkpt><trkpt lat="42.61255993841045" lon="13.600389865929202"><ele>719.0</ele><time>2026-04-18T08:54:59Z</time></trkpt><trkpt lat="42.612499864836074" lon="13.600213025867099"><ele>719.5</ele><time>2026-04-18T08:55:00Z</time></trkpt><trkpt lat="42.61249361743608" lon="13.600046547697955"><ele>720.0</ele><time>2026-04-18T08:55:01Z</time></trkpt><trkpt lat="42.61248577489844" lon="13.59987366989438"><ele>720.5</ele><time>2026-04-18T08:55:02Z</time></trkpt><trkpt lat="42.61249392098153" lon="13.59970746283862"><ele>721.0</ele><time>2026-04-18T08:55:03Z</time></trkpt><trkpt lat="42.612490967131066" lon="13.599551441903047"><ele>719.75</ele><time>2026-04-18T08:55:04Z</time></trkpt><trkpt lat="42.61248865755169" lon="13.599350073128019"><ele>718.5</ele><time>2026-04-18T08:55:05Z</time></trkpt><trkpt lat="42.61245620890792" lon="13.599162535610768"><ele>717.25</ele><time>2026-04-18T08:55:06Z</time></trkpt><trkpt lat="42.612407155078714" lon="13.598980703088973"><ele>716.0</ele><time>2026-04-18T08:55:07Z</time></trkpt><trkpt lat="42.61234679898557" lon="13.598814668811798"><ele>715.5</ele><time>2026-04-18T08:55:08Z</time></trkpt><trkpt lat="42.612268164076916" lon="13.598659341226348"><ele>715.0</ele><time>2026-04-18T08:55:09Z</time></trkpt><trkpt lat="42.61218964554261" lon="13.59851288635033"><ele>714.5</ele><time>2026-04-18T08:55:10Z</time></trkpt><trkpt lat="42.61210828725222" lon="13.59838532545779"><ele>714.0</ele><time>2026-04-18T08:55:11Z</time></trkpt><trkpt lat="42.612017750421735" lon="13.59825343592767"><ele>720.5</ele><time>2026-04-18T08:55:12Z</time></trkpt><trkpt lat="42.6119482525019" lon="13.59812869371573"><ele>727.0</ele><time>2026-04-18T08:55:13Z</time></trkpt><trkpt lat="42.61184394029712" lon="13.597997474041886"><ele>733.5</ele><time>2026-04-18T08:55:14Z</time></trkpt><trkpt lat="42.61175932976382" lon="13.597889634817017"><ele>740.0</ele><time>2026-04-18T08:55:15Z</time></trkpt><trkpt lat="42.61169132325461" lon="13.597781102580834"><ele>740.0</ele><time>2026-04-18T08:55:16Z</time></trkpt><trkpt lat="42.61163964141379" lon="13.59765170279019"><ele>740.0</ele><time>2026-04-18T08:55:17Z</time></trkpt><trkpt lat="42.611567337323805" lon="13.597518013046287"><ele>740.0</ele><time>2026-04-18T08:55:18Z</time></trkpt><trkpt lat="42.61146563636237" lon="13.59740095561149"><ele>740.0</ele><time>2026-04-18T08:55:19Z</time></trkpt><trkpt lat="42.61136213755984" lon="13.59724948534333"><ele>740.0</ele><time>2026-04-18T08:55:20Z</time></trkpt><trkpt lat="42.61126091513673" lon="13.597095031352481"><ele>740.0</ele><time>2026-04-18T08:55:21Z</time></trkpt><trkpt lat="42.611171953006064" lon="13.596956830156183"><ele>740.0</ele><time>2026-04-18T08:55:22Z</time></trkpt><trkpt lat="42.61107068297768" lon="13.596843163755375"><ele>740.0</ele><time>2026-04-18T08:55:23Z</time></trkpt><trkpt lat="42.610964113896785" lon="13.596752101650328"><ele>744.75</ele><time>2026-04-18T08:55:24Z</time></trkpt><trkpt lat="42.610869743634574" lon="13.596652157125497"><ele>749.5</ele><time>2026-04-18T08:55:25Z</time></trkpt><trkpt lat="42.61080823189765" lon="13.596549760361636"><ele>754.25</ele><time>2026-04-18T08:55:26Z</time></trkpt><trkpt lat="42.610692257250605" lon="13.596483533612602"><ele>759.0</ele><time>2026-04-18T08:55:27Z</time></trkpt><trkpt lat="42.610569426268945" lon="13.596449976856364"><ele>759.0</ele><time>2026-04-18T08:55:28Z</time></trkpt><trkpt lat="42.61046885396424" lon="13.596421533647849"><ele>759.0</ele><time>2026-04-18T08:55:29Z</time></trkpt><trkpt lat="42.61033981998781" lon="13.596379409128245"><ele>759.0</ele><time>2026-04-18T08:55:30Z</time></trkpt><trkpt lat="42.61027276713468" lon="13.59634426916197"><ele>759.0</ele><time>2026-04-18T08:55:31Z</time></trkpt><trkpt lat="42.61021141555174" lon="13.596285639983893"><ele>759.0</ele><time>2026-04-18T08:55:32Z</time></trkpt><trkpt lat="42.61023778604097" lon="13.596159917836374"><ele>761.8000000000001</ele><time>2026-04-18T08:55:33Z</time></trkpt><trkpt lat="42.61025931965725" lon="13.596057785024794"><ele>764.6</ele><time>2026-04-18T08:55:34Z</time></trkpt><trkpt lat="42.61030676540763" lon="13.595969075068776"><ele>767.4</ele><time>2026-04-18T08:55:35Z</time></trkpt><trkpt lat="42.61031617565469" lon="13.595834075076366"><ele>770.2</ele><time>2026-04-18T08:55:36Z</time></trkpt><trkpt lat="42.61032201038896" lon="13.595706294971675"><ele>773.0</ele><time>2026-04-18T08:55:36.999Z</time></trkpt><trkpt lat="42.610298422555765" lon="13.595571385350837"><ele>773.0</ele><time>2026-04-18T08:55:37.999Z</time></trkpt><trkpt lat="42.610212357454564" lon="13.595510841347224"><ele>773.0</ele><time>2026-04-18T08:55:38.999Z</time></trkpt><trkpt lat="42.6101389157884" lon="13.595435611312718"><ele>773.0</ele><time>2026-04-18T08:55:39.999Z</time></trkpt><trkpt lat="42.61004675242428" lon="13.595358807537913"><ele>773.0</ele><time>2026-04-18T08:55:40.999Z</time></trkpt><trkpt lat="42.60995765018603" lon="13.595285024987541"><ele>773.0</ele><time>2026-04-18T08:55:41.999Z</time></trkpt><trkpt lat="42.60990200925956" lon="13.595180166323706"><ele>774.5999999999999</ele><time>2026-04-18T08:55:42.999Z</time></trkpt><trkpt lat="42.609852836112985" lon="13.595074502658663"><ele>776.1999999999999</ele><time>2026-04-18T08:55:44Z</time></trkpt><trkpt lat="42.60979465891157" lon="13.594950679965981"><ele>777.8</ele><time>2026-04-18T08:55:45Z</time></trkpt><trkpt lat="42.609726545520395" lon="13.59483173416732"><ele>779.4</ele><time>2026-04-18T08:55:46Z</time></trkpt><trkpt lat="42.609657717296024" lon="13.594706559299178"><ele>781.0</ele><time>2026-04-18T08:55:47Z</time></trkpt><trkpt lat="42.60959581421181" lon="13.594584726289849"><ele>781.1999999999999</ele><time>2026-04-18T08:55:48Z</time></trkpt><trkpt lat="42.60954104637267" lon="13.594453542335208"><ele>781.4</ele><time>2026-04-18T08:55:49Z</time></trkpt><trkpt lat="42.60951178527766" lon="13.594330305405354"><ele>781.6</ele><time>2026-04-18T08:55:50Z</time></trkpt><trkpt lat="42.60948414685397" lon="13.594192651478444"><ele>781.8</ele><time>2026-04-18T08:55:51Z</time></trkpt><trkpt lat="42.60946831670108" lon="13.594055559056581"><ele>782.0</ele><time>2026-04-18T08:55:52Z</time></trkpt><trkpt lat="42.60948457198638" lon="13.593909978369645"><ele>784.0</ele><time>2026-04-18T08:55:53Z</time></trkpt><trkpt lat="42.609514781050244" lon="13.593766460033601"><ele>786.0</ele><time>2026-04-18T08:55:54Z</time></trkpt><trkpt lat="42.60949674478589" lon="13.593608124846313"><ele>788.0</ele><time>2026-04-18T08:55:55Z</time></trkpt><trkpt lat="42.6094747361243" lon="13.593479922560327"><ele>790.0</ele><time>2026-04-18T08:55:56Z</time></trkpt><trkpt lat="42.6094392434698" lon="13.593351810757976"><ele>792.0</ele><time>2026-04-18T08:55:57Z</time></trkpt><trkpt lat="42.60940369078438" lon="13.593212451938001"><ele>792.25</ele><time>2026-04-18T08:55:58Z</time></trkpt><trkpt lat="42.60941413188586" lon="13.593064436354052"><ele>792.5</ele><time>2026-04-18T08:55:59Z</time></trkpt><trkpt lat="42.60946321219503" lon="13.59291024472213"><ele>792.75</ele><time>2026-04-18T08:56:00Z</time></trkpt><trkpt lat="42.60952666855779" lon="13.592764594834527"><ele>793.0</ele><time>2026-04-18T08:56:01Z</time></trkpt><trkpt lat="42.60957649111116" lon="13.592581836792304"><ele>796.8</ele><time>2026-04-18T08:56:02Z</time></trkpt><trkpt lat="42.60959755253631" lon="13.592392708977949"><ele>800.5999999999999</ele><time>2026-04-18T08:56:03Z</time></trkpt><trkpt lat="42.60960806192507" lon="13.592221662024109"><ele>804.4000000000001</ele><time>2026-04-18T08:56:04Z</time></trkpt><trkpt lat="42.60963851506387" lon="13.59208293771616"><ele>808.2</ele><time>2026-04-18T08:56:05Z</time></trkpt><trkpt lat="42.60969483032504" lon="13.592016413598172"><ele>812.0</ele><time>2026-04-18T08:56:06Z</time></trkpt><trkpt lat="42.609783022463375" lon="13.591926617066166"><ele>814.5</ele><time>2026-04-18T08:56:07Z</time></trkpt><trkpt lat="42.6098541452721" lon="13.59180126386618"><ele>817.0</ele><time>2026-04-18T08:56:08Z</time></trkpt><trkpt lat="42.609875419991994" lon="13.591657504478723"><ele>819.5</ele><time>2026-04-18T08:56:09Z</time></trkpt><trkpt lat="42.609876836156" lon="13.591499810854915"><ele>822.0</ele><time>2026-04-18T08:56:10Z</time></trkpt><trkpt lat="42.609889021716285" lon="13.591326318897279"><ele>823.8</ele><time>2026-04-18T08:56:11Z</time></trkpt><trkpt lat="42.60990735268215" lon="13.591161213634368"><ele>825.6</ele><time>2026-04-18T08:56:12Z</time></trkpt><trkpt lat="42.60992735042012" lon="13.591019793110458"><ele>827.4</ele><time>2026-04-18T08:56:13Z</time></trkpt><trkpt lat="42.6099746333119" lon="13.590944106201036"><ele>829.1999999999999</ele><time>2026-04-18T08:56:14Z</time></trkpt><trkpt lat="42.60995734071424" lon="13.590837094868263"><ele>831.0</ele><time>2026-04-18T08:56:15Z</time></trkpt><trkpt lat="42.609923585859974" lon="13.590718033131667"><ele>831.0</ele><time>2026-04-18T08:56:16Z</time></trkpt><trkpt lat="42.60988258696239" lon="13.590601536676383"><ele>831.0</ele><time>2026-04-18T08:56:17Z</time></trkpt><trkpt lat="42.609865048430805" lon="13.590504114032319"><ele>831.0</ele><time>2026-04-18T08:56:18Z</time></trkpt><trkpt lat="42.60985077338035" lon="13.590382957784046"><ele>831.0</ele><time>2026-04-18T08:56:20Z</time></trkpt><trkpt lat="42.60984307945565" lon="13.590267581671892"><ele>831.0</ele><time>2026-04-18T08:56:21Z</time></trkpt><trkpt lat="42.60982999933406" lon="13.59015665403442"><ele>831.0</ele><time>2026-04-18T08:56:22Z</time></trkpt><trkpt lat="42.60978310461164" lon="13.590071417936741"><ele>832.8</ele><time>2026-04-18T08:56:23Z</time></trkpt><trkpt lat="42.609730263664645" lon="13.589942398297026"><ele>834.5999999999999</ele><time>2026-04-18T08:56:25Z</time></trkpt><trkpt lat="42.60971144753283" lon="13.589838384646402"><ele>836.4</ele><time>2026-04-18T08:56:26Z</time></trkpt><trkpt lat="42.60968163330796" lon="13.589725022841556"><ele>838.2</ele><time>2026-04-18T08:56:27Z</time></trkpt><trkpt lat="42.60965361646081" lon="13.58962436210326"><ele>840.0</ele><time>2026-04-18T08:56:28Z</time></trkpt><trkpt lat="42.609689689099014" lon="13.589483298431091"><ele>840.4</ele><time>2026-04-18T08:56:30Z</time></trkpt><trkpt lat="42.60974083963222" lon="13.58939159336534"><ele>840.8</ele><time>2026-04-18T08:56:31Z</time></trkpt><trkpt lat="42.60978901136761" lon="13.589286092446308"><ele>841.2</ele><time>2026-04-18T08:56:32Z</time></trkpt><trkpt lat="42.60980442963157" lon="13.589147175030579"><ele>841.6</ele><time>2026-04-18T08:56:33Z</time></trkpt><trkpt lat="42.60978611282751" lon="13.58901213257637"><ele>842.0</ele><time>2026-04-18T08:56:34Z</time></trkpt><trkpt lat="42.60975813065717" lon="13.588881810672799"><ele>842.0000000000001</ele><time>2026-04-18T08:56:35Z</time></trkpt><trkpt lat="42.6097193068673" lon="13.588759346637223"><ele>842.0</ele><time>2026-04-18T08:56:36Z</time></trkpt><trkpt lat="42.609674130096835" lon="13.588647008692936"><ele>842.0</ele><time>2026-04-18T08:56:37Z</time></trkpt><trkpt lat="42.609639000172585" lon="13.588566132264173"><ele>842.0</ele><time>2026-04-18T08:56:38Z</time></trkpt><trkpt lat="42.60962979486367" lon="13.588417599515092"><ele>842.0000000000001</ele><time>2026-04-18T08:56:40Z</time></trkpt><trkpt lat="42.609632273870986" lon="13.588328462052532"><ele>842.0</ele><time>2026-04-18T08:56:41Z</time></trkpt><trkpt lat="42.60960094170721" lon="13.588240645292576"><ele>843.5</ele><time>2026-04-18T08:56:42Z</time></trkpt><trkpt lat="42.609515045735" lon="13.588078643952251"><ele>845.0</ele><time>2026-04-18T08:56:44Z</time></trkpt><trkpt lat="42.609461599683485" lon="13.58797548093099"><ele>846.5</ele><time>2026-04-18T08:56:45Z</time></trkpt><trkpt lat="42.60939540100108" lon="13.587872334196332"><ele>848.0</ele><time>2026-04-18T08:56:46Z</time></trkpt><trkpt lat="42.60931985372162" lon="13.587762590933599"><ele>851.1666666666667</ele><time>2026-04-18T08:56:47Z</time></trkpt><trkpt lat="42.60927748039762" lon="13.58767327930117"><ele>854.3333333333334</ele><time>2026-04-18T08:56:48Z</time></trkpt><trkpt lat="42.60922667473495" lon="13.587578962612334"><ele>857.5</ele><time>2026-04-18T08:56:49Z</time></trkpt><trkpt lat="42.60918077650561" lon="13.587485688536749"><ele>860.6666666666667</ele><time>2026-04-18T08:56:50Z</time></trkpt><trkpt lat="42.60914605138792" lon="13.587408288678562"><ele>863.8333333333334</ele><time>2026-04-18T08:56:51Z</time></trkpt><trkpt lat="42.60911162911073" lon="13.587306900739279"><ele>867.0</ele><time>2026-04-18T08:56:52Z</time></trkpt><trkpt lat="42.60907481638134" lon="13.587185828368717"><ele>867.0</ele><time>2026-04-18T08:56:53Z</time></trkpt><trkpt lat="42.609027393331424" lon="13.58708790230783"><ele>867.0</ele><time>2026-04-18T08:56:54Z</time></trkpt><trkpt lat="42.608977296310776" lon="13.586994815147671"><ele>867.0</ele><time>2026-04-18T08:56:55Z</time></trkpt><trkpt lat="42.608939406914715" lon="13.586912824710684"><ele>867.0</ele><time>2026-04-18T08:56:56Z</time></trkpt><trkpt lat="42.60890345954168" lon="13.58682629714323"><ele>867.0</ele><time>2026-04-18T08:56:57Z</time></trkpt><trkpt lat="42.60888185287124" lon="13.586711691961922"><ele>867.0</ele><time>2026-04-18T08:56:58Z</time></trkpt><trkpt lat="42.608852303987284" lon="13.586553128632941"><ele>867.2</ele><time>2026-04-18T08:56:59Z</time></trkpt><trkpt lat="42.608820933714874" lon="13.586430361490148"><ele>867.4000000000001</ele><time>2026-04-18T08:57:00Z</time></trkpt><trkpt lat="42.60878390102692" lon="13.586274156860927"><ele>867.5999999999999</ele><time>2026-04-18T08:57:01Z</time></trkpt><trkpt lat="42.60874397187936" lon="13.586137044139257"><ele>867.8</ele><time>2026-04-18T08:57:02Z</time></trkpt><trkpt lat="42.60869629562176" lon="13.585985853797457"><ele>868.0</ele><time>2026-04-18T08:57:03Z</time></trkpt><trkpt lat="42.60863283944508" lon="13.585820220511044"><ele>869.25</ele><time>2026-04-18T08:57:04Z</time></trkpt><trkpt lat="42.60859030254757" lon="13.585663908365486"><ele>870.5</ele><time>2026-04-18T08:57:05Z</time></trkpt><trkpt lat="42.60853864426642" lon="13.58551628113249"><ele>871.75</ele><time>2026-04-18T08:57:06Z</time></trkpt><trkpt lat="42.608474218598914" lon="13.58538738394672"><ele>873.0</ele><time>2026-04-18T08:57:07Z</time></trkpt><trkpt lat="42.608402220727974" lon="13.585270514570045"><ele>873.5999999999999</ele><time>2026-04-18T08:57:08Z</time></trkpt><trkpt lat="42.60835723803904" lon="13.585159253673837"><ele>874.1999999999999</ele><time>2026-04-18T08:57:09Z</time></trkpt><trkpt lat="42.6083181739865" lon="13.585032668288338"><ele>874.8</ele><time>2026-04-18T08:57:10Z</time></trkpt><trkpt lat="42.60829045825569" lon="13.58491660341007"><ele>875.4</ele><time>2026-04-18T08:57:11Z</time></trkpt><trkpt lat="42.60824031074663" lon="13.584773121305041"><ele>876.0</ele><time>2026-04-18T08:57:12Z</time></trkpt><trkpt lat="42.608195030264625" lon="13.584652079867858"><ele>876.0</ele><time>2026-04-18T08:57:13Z</time></trkpt><trkpt lat="42.60818177482486" lon="13.584523317380778"><ele>875.9999999999999</ele><time>2026-04-18T08:57:14Z</time></trkpt><trkpt lat="42.60816932397004" lon="13.584377905215065"><ele>875.9999999999999</ele><time>2026-04-18T08:57:15Z</time></trkpt><trkpt lat="42.60815248764934" lon="13.584282096590915"><ele>876.0</ele><time>2026-04-18T08:57:16Z</time></trkpt><trkpt lat="42.608138249106474" lon="13.584164350521755"><ele>876.0</ele><time>2026-04-18T08:57:17Z</time></trkpt><trkpt lat="42.6081202568388" lon="13.584013369415363"><ele>876.5</ele><time>2026-04-18T08:57:18Z</time></trkpt><trkpt lat="42.60809379482219" lon="13.583874168635564"><ele>877.0</ele><time>2026-04-18T08:57:19Z</time></trkpt><trkpt lat="42.608060795129695" lon="13.58376477743433"><ele>877.5</ele><time>2026-04-18T08:57:20Z</time></trkpt><trkpt lat="42.60804446697795" lon="13.583660703629361"><ele>878.0</ele><time>2026-04-18T08:57:21Z</time></trkpt><trkpt lat="42.60805716436775" lon="13.583544195457055"><ele>878.5</ele><time>2026-04-18T08:57:22Z</time></trkpt><trkpt lat="42.60807892616356" lon="13.5834566222126"><ele>879.0</ele><time>2026-04-18T08:57:23Z</time></trkpt><trkpt lat="42.6080720819993" lon="13.583366202137558"><ele>877.4000000000001</ele><time>2026-04-18T08:57:24Z</time></trkpt><trkpt lat="42.60802042369064" lon="13.583258825784558"><ele>875.8000000000001</ele><time>2026-04-18T08:57:25Z</time></trkpt><trkpt lat="42.60796575482909" lon="13.583144604338663"><ele>874.1999999999999</ele><time>2026-04-18T08:57:26Z</time></trkpt><trkpt lat="42.60791142893909" lon="13.583002953924229"><ele>872.5999999999999</ele><time>2026-04-18T08:57:27Z</time></trkpt><trkpt lat="42.60785265680759" lon="13.582851621110926"><ele>871.0</ele><time>2026-04-18T08:57:28Z</time></trkpt><trkpt lat="42.607790196034486" lon="13.582678574519766"><ele>871.0</ele><time>2026-04-18T08:57:29Z</time></trkpt><trkpt lat="42.60773107780254" lon="13.582521131155602"><ele>870.9999999999999</ele><time>2026-04-18T08:57:30Z</time></trkpt><trkpt lat="42.60768690030067" lon="13.582413571295461"><ele>870.9999999999999</ele><time>2026-04-18T08:57:31Z</time></trkpt><trkpt lat="42.607654216505274" lon="13.582264168632825"><ele>871.0</ele><time>2026-04-18T08:57:33Z</time></trkpt><trkpt lat="42.607630174824585" lon="13.58214688178695"><ele>871.0</ele><time>2026-04-18T08:57:35Z</time></trkpt><trkpt lat="42.607599892751075" lon="13.582051577743147"><ele>872.8333333333333</ele><time>2026-04-18T08:58:08Z</time></trkpt><trkpt lat="42.6075829402342" lon="13.581962927368624"><ele>874.6666666666666</ele><time>2026-04-18T08:58:09Z</time></trkpt><trkpt lat="42.60756595460411" lon="13.581878529094285"><ele>876.5</ele><time>2026-04-18T08:58:10Z</time></trkpt><trkpt lat="42.60754440564664" lon="13.58170230964981"><ele>878.3333333333333</ele><time>2026-04-18T08:58:12Z</time></trkpt><trkpt lat="42.607529463199675" lon="13.581593316360141"><ele>880.1666666666666</ele><time>2026-04-18T08:58:13Z</time></trkpt><trkpt lat="42.60750237567043" lon="13.581488579519181"><ele>882.0</ele><time>2026-04-18T08:58:14Z</time></trkpt><trkpt lat="42.60742474816314" lon="13.581350116176056"><ele>882.0</ele><time>2026-04-18T08:58:16Z</time></trkpt><trkpt lat="42.607409755959196" lon="13.581251512876358"><ele>882.0</ele><time>2026-04-18T08:58:17Z</time></trkpt><trkpt lat="42.607451409728895" lon="13.581123486720836"><ele>882.0</ele><time>2026-04-18T08:58:18Z</time></trkpt><trkpt lat="42.607489855602935" lon="13.580995919706325"><ele>882.0</ele><time>2026-04-18T08:58:19Z</time></trkpt><trkpt lat="42.60750412607102" lon="13.580901444935895"><ele>882.0</ele><time>2026-04-18T08:58:20Z</time></trkpt><trkpt lat="42.60750625682255" lon="13.580752612616749"><ele>882.4000000000001</ele><time>2026-04-18T08:58:22Z</time></trkpt><trkpt lat="42.60745273061264" lon="13.580664881598759"><ele>882.8000000000001</ele><time>2026-04-18T08:58:23Z</time></trkpt><trkpt lat="42.607397668306824" lon="13.580596998074396"><ele>883.2</ele><time>2026-04-18T08:58:24Z</time></trkpt><trkpt lat="42.60736363350557" lon="13.580498817876615"><ele>883.6</ele><time>2026-04-18T08:58:27Z</time></trkpt><trkpt lat="42.607251206036565" lon="13.580407630373712"><ele>884.0</ele><time>2026-04-18T08:58:29Z</time></trkpt><trkpt lat="42.607195704729655" lon="13.580323629185848"><ele>884.0000000000001</ele><time>2026-04-18T08:58:30Z</time></trkpt><trkpt lat="42.60715982781557" lon="13.580222401134915"><ele>884.0</ele><time>2026-04-18T08:58:31Z</time></trkpt><trkpt lat="42.607140332254154" lon="13.580126345212076"><ele>884.0</ele><time>2026-04-18T08:58:32Z</time></trkpt><trkpt lat="42.60713555805354" lon="13.580015179314477"><ele>884.0</ele><time>2026-04-18T08:58:33Z</time></trkpt><trkpt lat="42.60715033348244" lon="13.579894729099996"><ele>884.0000000000001</ele><time>2026-04-18T08:58:34Z</time></trkpt><trkpt lat="42.60715220578133" lon="13.579777714703283"><ele>884.0</ele><time>2026-04-18T08:58:35Z</time></trkpt><trkpt lat="42.6071277472578" lon="13.579678679613995"><ele>884.0</ele><time>2026-04-18T08:58:36Z</time></trkpt><trkpt lat="42.60709860028162" lon="13.579550078776027"><ele>884.0000000000001</ele><time>2026-04-18T08:58:37Z</time></trkpt><trkpt lat="42.60707495255967" lon="13.57944290804533"><ele>884.0000000000001</ele><time>2026-04-18T08:58:38Z</time></trkpt><trkpt lat="42.60707862671901" lon="13.579331754209992"><ele>884.0</ele><time>2026-04-18T08:58:39Z</time></trkpt><trkpt lat="42.60703188622241" lon="13.579198404830038"><ele>884.0</ele><time>2026-04-18T08:58:40Z</time></trkpt><trkpt lat="42.60695405997616" lon="13.579094527294751"><ele>886.8333333333334</ele><time>2026-04-18T08:58:41Z</time></trkpt><trkpt lat="42.60691527596223" lon="13.578985537062389"><ele>889.6666666666667</ele><time>2026-04-18T08:58:42Z</time></trkpt><trkpt lat="42.60686676121929" lon="13.578851709456337"><ele>892.5</ele><time>2026-04-18T08:58:43Z</time></trkpt><trkpt lat="42.60681387623168" lon="13.578766905056874"><ele>895.3333333333333</ele><time>2026-04-18T08:58:44Z</time></trkpt><trkpt lat="42.60675013520927" lon="13.578726780574527"><ele>898.1666666666666</ele><time>2026-04-18T08:58:45Z</time></trkpt><trkpt lat="42.606676113913736" lon="13.578663200949181"><ele>901.0</ele><time>2026-04-18T08:58:46Z</time></trkpt><trkpt lat="42.60658635945808" lon="13.578567124752032"><ele>900.9999999999999</ele><time>2026-04-18T08:58:47Z</time></trkpt><trkpt lat="42.60651498316528" lon="13.578528000997657"><ele>901.0</ele><time>2026-04-18T08:58:48Z</time></trkpt><trkpt lat="42.60642406619903" lon="13.578518308204211"><ele>901.0</ele><time>2026-04-18T08:58:50Z</time></trkpt><trkpt lat="42.606361622935445" lon="13.578540959102899"><ele>901.0</ele><time>2026-04-18T08:58:51Z</time></trkpt><trkpt lat="42.60627010904944" lon="13.578543592869305"><ele>900.9999999999999</ele><time>2026-04-18T08:58:52Z</time></trkpt><trkpt lat="42.60617900921241" lon="13.578542095097111"><ele>901.0</ele><time>2026-04-18T08:58:53Z</time></trkpt><trkpt lat="42.60610013029631" lon="13.578542721884292"><ele>905.0</ele><time>2026-04-18T08:58:54Z</time></trkpt><trkpt lat="42.60601153284499" lon="13.578588464639935"><ele>908.9999999999999</ele><time>2026-04-18T08:58:55Z</time></trkpt><trkpt lat="42.60596181526279" lon="13.578666955882053"><ele>912.9999999999999</ele><time>2026-04-18T08:58:56Z</time></trkpt><trkpt lat="42.60585554268355" lon="13.578628761926131"><ele>917.0</ele><time>2026-04-18T08:58:58Z</time></trkpt><trkpt lat="42.60580998816281" lon="13.578535702515827"><ele>921.0</ele><time>2026-04-18T08:58:59Z</time></trkpt><trkpt lat="42.60576819368833" lon="13.578422667358856"><ele>921.0</ele><time>2026-04-18T08:59:00Z</time></trkpt><trkpt lat="42.605705244214725" lon="13.578333073716445"><ele>921.0</ele><time>2026-04-18T08:59:01Z</time></trkpt><trkpt lat="42.60565455761376" lon="13.578231627875308"><ele>921.0</ele><time>2026-04-18T08:59:02Z</time></trkpt><trkpt lat="42.605630869526905" lon="13.578135462922061"><ele>921.0</ele><time>2026-04-18T08:59:03Z</time></trkpt><trkpt lat="42.60559202519136" lon="13.57805453088462"><ele>921.0</ele><time>2026-04-18T08:59:04Z</time></trkpt><trkpt lat="42.605536844023916" lon="13.577973372273739"><ele>921.0</ele><time>2026-04-18T08:59:05Z</time></trkpt><trkpt lat="42.60548581390374" lon="13.577885668951513"><ele>919.8</ele><time>2026-04-18T08:59:06Z</time></trkpt><trkpt lat="42.60544017335291" lon="13.577785040695021"><ele>918.5999999999999</ele><time>2026-04-18T08:59:07Z</time></trkpt><trkpt lat="42.60540189641824" lon="13.577708093987976"><ele>917.4</ele><time>2026-04-18T08:59:08Z</time></trkpt><trkpt lat="42.60535295917031" lon="13.57763349659699"><ele>916.2</ele><time>2026-04-18T08:59:09Z</time></trkpt><trkpt lat="42.60524660743165" lon="13.577531260187419"><ele>915.0</ele><time>2026-04-18T08:59:11Z</time></trkpt><trkpt lat="42.60516844246644" lon="13.577469061000365"><ele>918.6666666666666</ele><time>2026-04-18T08:59:12Z</time></trkpt><trkpt lat="42.60509444159587" lon="13.577426182131298"><ele>922.3333333333333</ele><time>2026-04-18T08:59:13Z</time></trkpt><trkpt lat="42.60502882593409" lon="13.577386438604714"><ele>926.0</ele><time>2026-04-18T08:59:14Z</time></trkpt><trkpt lat="42.60496518325668" lon="13.577359397826955"><ele>929.6666666666666</ele><time>2026-04-18T08:59:15Z</time></trkpt><trkpt lat="42.60484493160754" lon="13.57733834603455"><ele>933.3333333333333</ele><time>2026-04-18T08:59:17Z</time></trkpt><trkpt lat="42.60477442807737" lon="13.577312351205142"><ele>937.0</ele><time>2026-04-18T08:59:18Z</time></trkpt><trkpt lat="42.604722155302625" lon="13.577236337329458"><ele>937.0</ele><time>2026-04-18T08:59:19Z</time></trkpt><trkpt lat="42.6046488059651" lon="13.577137177768682"><ele>937.0</ele><time>2026-04-18T08:59:21Z</time></trkpt><trkpt lat="42.604532755862884" lon="13.57715597564742"><ele>937.0</ele><time>2026-04-18T08:59:23Z</time></trkpt><trkpt lat="42.604451435239845" lon="13.577144088533974"><ele>937.0</ele><time>2026-04-18T08:59:24Z</time></trkpt><trkpt lat="42.604367526664554" lon="13.577107621396758"><ele>937.0</ele><time>2026-04-18T08:59:25Z</time></trkpt><trkpt lat="42.6043072768058" lon="13.57705320044951"><ele>938.8</ele><time>2026-04-18T08:59:26Z</time></trkpt><trkpt lat="42.604266189904166" lon="13.576952938358241"><ele>940.6</ele><time>2026-04-18T08:59:27Z</time></trkpt><trkpt lat="42.604246358400225" lon="13.576831854772028"><ele>942.3999999999999</ele><time>2026-04-18T08:59:28Z</time></trkpt><trkpt lat="42.60422901071033" lon="13.576703181656494"><ele>944.1999999999999</ele><time>2026-04-18T08:59:29Z</time></trkpt><trkpt lat="42.60420236944128" lon="13.576570453990604"><ele>946.0</ele><time>2026-04-18T08:59:30Z</time></trkpt><trkpt lat="42.60419149318061" lon="13.576443026105537"><ele>946.0</ele><time>2026-04-18T08:59:31Z</time></trkpt><trkpt lat="42.60419151950354" lon="13.57632475664216"><ele>945.9999999999999</ele><time>2026-04-18T08:59:31.999Z</time></trkpt><trkpt lat="42.60414289895626" lon="13.576231142059683"><ele>945.9999999999999</ele><time>2026-04-18T08:59:33.999Z</time></trkpt><trkpt lat="42.60403211380884" lon="13.576095011138614"><ele>946.0</ele><time>2026-04-18T08:59:35.999Z</time></trkpt><trkpt lat="42.603974638242036" lon="13.575999431725561"><ele>946.0</ele><time>2026-04-18T08:59:36.999Z</time></trkpt><trkpt lat="42.60391179261766" lon="13.575920738745042"><ele>946.4</ele><time>2026-04-18T08:59:37.999Z</time></trkpt><trkpt lat="42.60384319249829" lon="13.575842149014319"><ele>946.8</ele><time>2026-04-18T08:59:38.999Z</time></trkpt><trkpt lat="42.60381048035987" lon="13.575745735456529"><ele>947.1999999999999</ele><time>2026-04-18T08:59:39.999Z</time></trkpt><trkpt lat="42.60378210802337" lon="13.575610373432289"><ele>947.5999999999999</ele><time>2026-04-18T08:59:40.999Z</time></trkpt><trkpt lat="42.60372899158289" lon="13.57545235059261"><ele>948.0</ele><time>2026-04-18T08:59:41.999Z</time></trkpt><trkpt lat="42.603669990096975" lon="13.575284678618049"><ele>946.2</ele><time>2026-04-18T08:59:42.999Z</time></trkpt><trkpt lat="42.60361928558731" lon="13.575124177613032"><ele>944.4</ele><time>2026-04-18T08:59:43.999Z</time></trkpt><trkpt lat="42.6035763772657" lon="13.574981077255138"><ele>942.6000000000001</ele><time>2026-04-18T08:59:44.999Z</time></trkpt><trkpt lat="42.603556428281166" lon="13.574866109305473"><ele>940.8000000000001</ele><time>2026-04-18T08:59:45.999Z</time></trkpt><trkpt lat="42.60350404219046" lon="13.574762340767702"><ele>939.0</ele><time>2026-04-18T08:59:46.999Z</time></trkpt><trkpt lat="42.603428716498385" lon="13.574629588556997"><ele>940.75</ele><time>2026-04-18T08:59:47.999Z</time></trkpt><trkpt lat="42.603366224383585" lon="13.574491521081189"><ele>942.5</ele><time>2026-04-18T08:59:48.999Z</time></trkpt><trkpt lat="42.60330741067286" lon="13.57430644801232"><ele>944.25</ele><time>2026-04-18T08:59:49.999Z</time></trkpt><trkpt lat="42.603251042525166" lon="13.5741544489748"><ele>946.0</ele><time>2026-04-18T08:59:50.999Z</time></trkpt><trkpt lat="42.603200359042965" lon="13.574037185795964"><ele>945.9999999999999</ele><time>2026-04-18T08:59:51.999Z</time></trkpt><trkpt lat="42.60317242333886" lon="13.573930260409895"><ele>946.0</ele><time>2026-04-18T08:59:52.999Z</time></trkpt><trkpt lat="42.60315089322048" lon="13.573813374916215"><ele>946.0</ele><time>2026-04-18T08:59:53.999Z</time></trkpt><trkpt lat="42.603116546574824" lon="13.573727399961447"><ele>946.0</ele><time>2026-04-18T08:59:54.999Z</time></trkpt><trkpt lat="42.60307719696248" lon="13.573633066752059"><ele>945.9999999999999</ele><time>2026-04-18T08:59:56Z</time></trkpt><trkpt lat="42.60303808945166" lon="13.573537963109214"><ele>946.0</ele><time>2026-04-18T08:59:57Z</time></trkpt><trkpt lat="42.60299001534475" lon="13.573466691657785"><ele>945.5999999999999</ele><time>2026-04-18T08:59:58Z</time></trkpt><trkpt lat="42.6029023034237" lon="13.573491408362235"><ele>945.1999999999999</ele><time>2026-04-18T09:00:39Z</time></trkpt><trkpt lat="42.602798821238615" lon="13.573487864550613"><ele>944.8000000000001</ele><time>2026-04-18T09:00:41Z</time></trkpt><trkpt lat="42.602697273099494" lon="13.57337279040128"><ele>944.4000000000001</ele><time>2026-04-18T09:00:43Z</time></trkpt><trkpt lat="42.60264608232901" lon="13.573286783325045"><ele>944.0</ele><time>2026-04-18T09:00:44Z</time></trkpt><trkpt lat="42.602613613387476" lon="13.5731970588788"><ele>944.8000000000001</ele><time>2026-04-18T09:00:45Z</time></trkpt><trkpt lat="42.6025821102156" lon="13.573112194080656"><ele>945.6000000000001</ele><time>2026-04-18T09:00:46Z</time></trkpt><trkpt lat="42.60254306161612" lon="13.573025401600932"><ele>946.4</ele><time>2026-04-18T09:00:47Z</time></trkpt><trkpt lat="42.602498069478074" lon="13.572884522711266"><ele>947.2</ele><time>2026-04-18T09:00:48Z</time></trkpt><trkpt lat="42.602444827550165" lon="13.572764833180944"><ele>948.0</ele><time>2026-04-18T09:00:49Z</time></trkpt><trkpt lat="42.60238972587436" lon="13.572655861537244"><ele>948.0</ele><time>2026-04-18T09:00:50Z</time></trkpt><trkpt lat="42.602331520962004" lon="13.572553407082701"><ele>948.0</ele><time>2026-04-18T09:00:51Z</time></trkpt><trkpt lat="42.602263117545874" lon="13.572436128227643"><ele>948.0</ele><time>2026-04-18T09:00:52Z</time></trkpt><trkpt lat="42.60218167856352" lon="13.572279805620028"><ele>948.0</ele><time>2026-04-18T09:00:53Z</time></trkpt><trkpt lat="42.60210767557814" lon="13.572161548301304"><ele>948.0</ele><time>2026-04-18T09:00:54Z</time></trkpt><trkpt lat="42.60206901432444" lon="13.572070583884372"><ele>948.0</ele><time>2026-04-18T09:00:55Z</time></trkpt><trkpt lat="42.60201341093092" lon="13.571943797088075"><ele>948.0</ele><time>2026-04-18T09:00:56Z</time></trkpt><trkpt lat="42.60197223929284" lon="13.571783565067962"><ele>948.0</ele><time>2026-04-18T09:00:57Z</time></trkpt><trkpt lat="42.601919345938036" lon="13.571625576120084"><ele>948.0</ele><time>2026-04-18T09:00:58Z</time></trkpt><trkpt lat="42.60185252129381" lon="13.571512920548024"><ele>947.8</ele><time>2026-04-18T09:00:59Z</time></trkpt><trkpt lat="42.60177741977174" lon="13.571419811792712"><ele>947.5999999999999</ele><time>2026-04-18T09:01:00Z</time></trkpt><trkpt lat="42.60170291618607" lon="13.571335007275412"><ele>947.4000000000001</ele><time>2026-04-18T09:01:01Z</time></trkpt><trkpt lat="42.60160805597574" lon="13.57126844415267"><ele>947.2</ele><time>2026-04-18T09:01:02Z</time></trkpt><trkpt lat="42.60151692665634" lon="13.57121923361301"><ele>947.0</ele><time>2026-04-18T09:01:03Z</time></trkpt><trkpt lat="42.60141393624476" lon="13.571190183218908"><ele>943.2</ele><time>2026-04-18T09:01:04Z</time></trkpt><trkpt lat="42.60130926583957" lon="13.57119336535523"><ele>939.4000000000001</ele><time>2026-04-18T09:01:05Z</time></trkpt><trkpt lat="42.60119067443403" lon="13.571207088471956"><ele>935.5999999999999</ele><time>2026-04-18T09:01:06Z</time></trkpt><trkpt lat="42.60107263478491" lon="13.571215060749864"><ele>931.8</ele><time>2026-04-18T09:01:07Z</time></trkpt><trkpt lat="42.60099360013626" lon="13.571197760163288"><ele>928.0</ele><time>2026-04-18T09:01:08Z</time></trkpt><trkpt lat="42.60092572364416" lon="13.571099909455972"><ele>928.0</ele><time>2026-04-18T09:01:11Z</time></trkpt><trkpt lat="42.60085256346444" lon="13.571074689745895"><ele>928.0</ele><time>2026-04-18T09:01:13Z</time></trkpt><trkpt lat="42.6009247211149" lon="13.571090135036627"><ele>928.0</ele><time>2026-04-18T09:01:47.999Z</time></trkpt><trkpt lat="42.60099652876497" lon="13.57116946748102"><ele>928.0</ele><time>2026-04-18T09:01:49.999Z</time></trkpt><trkpt lat="42.60110309431802" lon="13.5712165486665"><ele>928.0</ele><time>2026-04-18T09:01:51.999Z</time></trkpt><trkpt lat="42.601199940100145" lon="13.571219033303867"><ele>928.0</ele><time>2026-04-18T09:01:52.999Z</time></trkpt><trkpt lat="42.60132340101939" lon="13.571208032094068"><ele>928.0</ele><time>2026-04-18T09:01:53.999Z</time></trkpt><trkpt lat="42.60144774342216" lon="13.571216725674349"><ele>928.0</ele><time>2026-04-18T09:01:54.999Z</time></trkpt><trkpt lat="42.601564678857386" lon="13.571238215906385"><ele>928.0</ele><time>2026-04-18T09:01:55.999Z</time></trkpt><trkpt lat="42.60166515848429" lon="13.57130380059628"><ele>928.0</ele><time>2026-04-18T09:01:56.999Z</time></trkpt><trkpt lat="42.60177239568211" lon="13.571379372849963"><ele>928.0</ele><time>2026-04-18T09:01:57.999Z</time></trkpt><trkpt lat="42.60185183051501" lon="13.57152117319277"><ele>928.0</ele><time>2026-04-18T09:01:58.999Z</time></trkpt><trkpt lat="42.601929010110716" lon="13.571645314923897"><ele>928.0</ele><time>2026-04-18T09:01:59.999Z</time></trkpt><trkpt lat="42.60200005762643" lon="13.571779899847925"><ele>933.0</ele><time>2026-04-18T09:02:00.999Z</time></trkpt><trkpt lat="42.6020476723487" lon="13.571947092284638"><ele>938.0</ele><time>2026-04-18T09:02:02Z</time></trkpt><trkpt lat="42.60207495565116" lon="13.572105097944391"><ele>943.0</ele><time>2026-04-18T09:02:03Z</time></trkpt><trkpt lat="42.60212996922466" lon="13.572232707200895"><ele>948.0</ele><time>2026-04-18T09:02:04Z</time></trkpt><trkpt lat="42.60219677489747" lon="13.572351616630465"><ele>948.0</ele><time>2026-04-18T09:02:05Z</time></trkpt><trkpt lat="42.602264796563595" lon="13.572451301508986"><ele>948.0</ele><time>2026-04-18T09:02:06Z</time></trkpt><trkpt lat="42.60233785720846" lon="13.572557048908024"><ele>948.0</ele><time>2026-04-18T09:02:07Z</time></trkpt><trkpt lat="42.60240862513129" lon="13.572684038868884"><ele>948.0</ele><time>2026-04-18T09:02:08Z</time></trkpt><trkpt lat="42.602462363323426" lon="13.572805850254637"><ele>948.0</ele><time>2026-04-18T09:02:09Z</time></trkpt><trkpt lat="42.60251928375969" lon="13.572933201648155"><ele>945.25</ele><time>2026-04-18T09:02:10Z</time></trkpt><trkpt lat="42.602581789297794" lon="13.573070683882621"><ele>942.5</ele><time>2026-04-18T09:02:11Z</time></trkpt><trkpt lat="42.602632039827476" lon="13.573213726414524"><ele>939.75</ele><time>2026-04-18T09:02:12Z</time></trkpt><trkpt lat="42.60267353412907" lon="13.573335356735097"><ele>937.0</ele><time>2026-04-18T09:02:13Z</time></trkpt><trkpt lat="42.60277215969134" lon="13.573434139926434"><ele>936.9999999999999</ele><time>2026-04-18T09:02:15Z</time></trkpt><trkpt lat="42.60282346922503" lon="13.573505339797556"><ele>937.0</ele><time>2026-04-18T09:02:16Z</time></trkpt><trkpt lat="42.60289469460009" lon="13.5735342198829"><ele>937.0</ele><time>2026-04-18T09:02:17Z</time></trkpt><trkpt lat="42.602965641317944" lon="13.573464379335194"><ele>937.0</ele><time>2026-04-18T09:02:19Z</time></trkpt><trkpt lat="42.60298786250483" lon="13.573317596992991"><ele>936.9999999999999</ele><time>2026-04-18T09:02:21Z</time></trkpt><trkpt lat="42.60300897984486" lon="13.573227120919357"><ele>937.0</ele><time>2026-04-18T09:02:22Z</time></trkpt><trkpt lat="42.60303216748774" lon="13.573139399184443"><ele>938.1666666666666</ele><time>2026-04-18T09:02:23Z</time></trkpt><trkpt lat="42.60302530403113" lon="13.573038556096682"><ele>939.3333333333333</ele><time>2026-04-18T09:02:24Z</time></trkpt><trkpt lat="42.602986165526275" lon="13.572955072359818"><ele>940.5</ele><time>2026-04-18T09:02:26Z</time></trkpt><trkpt lat="42.60300937403974" lon="13.572855700330901"><ele>941.6666666666667</ele><time>2026-04-18T09:02:43Z</time></trkpt><trkpt lat="42.60304403333079" lon="13.572714034363845"><ele>942.8333333333334</ele><time>2026-04-18T09:02:45Z</time></trkpt><trkpt lat="42.6030593558628" lon="13.572598561625117"><ele>944.0</ele><time>2026-04-18T09:02:46Z</time></trkpt><trkpt lat="42.603073685587745" lon="13.572503685095302"><ele>944.5</ele><time>2026-04-18T09:02:47Z</time></trkpt><trkpt lat="42.60309601178594" lon="13.572363844531088"><ele>945.0</ele><time>2026-04-18T09:02:48Z</time></trkpt><trkpt lat="42.60312089824905" lon="13.572230495137783"><ele>945.5</ele><time>2026-04-18T09:02:49Z</time></trkpt><trkpt lat="42.603145801847475" lon="13.57210421164515"><ele>946.0</ele><time>2026-04-18T09:02:50Z</time></trkpt><trkpt lat="42.60321566251943" lon="13.571914141737244"><ele>946.1999999999999</ele><time>2026-04-18T09:02:52Z</time></trkpt><trkpt lat="42.60324292506497" lon="13.571797336641707"><ele>946.3999999999999</ele><time>2026-04-18T09:02:53Z</time></trkpt><trkpt lat="42.603287937619925" lon="13.5716774338957"><ele>946.6</ele><time>2026-04-18T09:02:54Z</time></trkpt><trkpt lat="42.603301555994285" lon="13.571570450389684"><ele>946.8</ele><time>2026-04-18T09:02:55Z</time></trkpt><trkpt lat="42.60333055458238" lon="13.571437602815083"><ele>947.0</ele><time>2026-04-18T09:02:56Z</time></trkpt><trkpt lat="42.603326159090805" lon="13.57130619659626"><ele>946.75</ele><time>2026-04-18T09:02:57Z</time></trkpt><trkpt lat="42.603300108772046" lon="13.571106382481421"><ele>946.5</ele><time>2026-04-18T09:02:58Z</time></trkpt><trkpt lat="42.60330886816582" lon="13.570960659369678"><ele>946.25</ele><time>2026-04-18T09:02:59Z</time></trkpt><trkpt lat="42.60328765356419" lon="13.570823189968298"><ele>946.0</ele><time>2026-04-18T09:03:00Z</time></trkpt><trkpt lat="42.60330511561546" lon="13.57067166748721"><ele>946.0</ele><time>2026-04-18T09:03:01Z</time></trkpt><trkpt lat="42.60334645644523" lon="13.570563818314964"><ele>945.9999999999999</ele><time>2026-04-18T09:03:02Z</time></trkpt><trkpt lat="42.6033606753636" lon="13.570459034386795"><ele>945.9999999999999</ele><time>2026-04-18T09:03:03Z</time></trkpt><trkpt lat="42.60333153381322" lon="13.570302356411824"><ele>946.0</ele><time>2026-04-18T09:03:04Z</time></trkpt><trkpt lat="42.60331109674824" lon="13.570134508183102"><ele>946.0</ele><time>2026-04-18T09:03:05Z</time></trkpt><trkpt lat="42.603292247792915" lon="13.569983811629552"><ele>944.5999999999999</ele><time>2026-04-18T09:03:06Z</time></trkpt><trkpt lat="42.603228749407236" lon="13.569841349482902"><ele>943.1999999999999</ele><time>2026-04-18T09:03:07Z</time></trkpt><trkpt lat="42.60317049517055" lon="13.569675618354704"><ele>941.8000000000001</ele><time>2026-04-18T09:03:08Z</time></trkpt><trkpt lat="42.60311895150213" lon="13.56956061451614"><ele>940.4000000000001</ele><time>2026-04-18T09:03:09Z</time></trkpt><trkpt lat="42.60305263492405" lon="13.569497300520556"><ele>939.0</ele><time>2026-04-18T09:03:10Z</time></trkpt><trkpt lat="42.6029835125273" lon="13.569414004731133"><ele>937.6666666666666</ele><time>2026-04-18T09:03:11Z</time></trkpt><trkpt lat="42.60293106982305" lon="13.569313367591334"><ele>936.3333333333333</ele><time>2026-04-18T09:03:12Z</time></trkpt><trkpt lat="42.60294120349644" lon="13.569206571244523"><ele>935.0</ele><time>2026-04-18T09:03:13Z</time></trkpt><trkpt lat="42.60289544879279" lon="13.56909491055686"><ele>933.6666666666666</ele><time>2026-04-18T09:03:14Z</time></trkpt><trkpt lat="42.60286326323503" lon="13.569002110144991"><ele>932.3333333333333</ele><time>2026-04-18T09:03:15Z</time></trkpt><trkpt lat="42.602803292088275" lon="13.568893308854477"><ele>931.0</ele><time>2026-04-18T09:03:16Z</time></trkpt><trkpt lat="42.60275643590448" lon="13.568743120684367"><ele>936.9999999999999</ele><time>2026-04-18T09:03:17Z</time></trkpt><trkpt lat="42.60273838407535" lon="13.568641705530311"><ele>943.0</ele><time>2026-04-18T09:03:18Z</time></trkpt><trkpt lat="42.6027072657758" lon="13.568532632391687"><ele>949.0</ele><time>2026-04-18T09:03:20Z</time></trkpt><trkpt lat="42.60268786424481" lon="13.568443652624518"><ele>955.0</ele><time>2026-04-18T09:03:21Z</time></trkpt><trkpt lat="42.602728135474194" lon="13.568358150627763"><ele>960.9999999999999</ele><time>2026-04-18T09:03:22Z</time></trkpt><trkpt lat="42.602741789579156" lon="13.568231130923184"><ele>967.0</ele><time>2026-04-18T09:03:23Z</time></trkpt><trkpt lat="42.602741104799016" lon="13.568140953603901"><ele>966.9999999999999</ele><time>2026-04-18T09:03:24Z</time></trkpt><trkpt lat="42.60273018215402" lon="13.567971265101344"><ele>967.0</ele><time>2026-04-18T09:03:26Z</time></trkpt><trkpt lat="42.602719483695246" lon="13.567883496874291"><ele>967.0</ele><time>2026-04-18T09:03:27Z</time></trkpt><trkpt lat="42.60279329948028" lon="13.567860932045445"><ele>967.0</ele><time>2026-04-18T09:03:50.999Z</time></trkpt><trkpt lat="42.60282139818596" lon="13.567777901464375"><ele>966.9999999999999</ele><time>2026-04-18T09:04:00.999Z</time></trkpt><trkpt lat="42.60279572310362" lon="13.567677169342018"><ele>967.0</ele><time>2026-04-18T09:04:08Z</time></trkpt><trkpt lat="42.60279084378826" lon="13.567560824410783"><ele>961.0</ele><time>2026-04-18T09:04:17Z</time></trkpt><trkpt lat="42.60285254880572" lon="13.567518374680192"><ele>955.0</ele><time>2026-04-18T09:04:31Z</time></trkpt><trkpt lat="42.60291798486746" lon="13.56739406717638"><ele>949.0</ele><time>2026-04-18T09:04:33Z</time></trkpt><trkpt lat="42.60298149388115" lon="13.567252892518392"><ele>943.0</ele><time>2026-04-18T09:04:35Z</time></trkpt><trkpt lat="42.60303525369605" lon="13.567124200105013"><ele>937.0</ele><time>2026-04-18T09:04:37Z</time></trkpt><trkpt lat="42.603088894010035" lon="13.567051521023485"><ele>939.6666666666666</ele><time>2026-04-18T09:04:38Z</time></trkpt><trkpt lat="42.603128720868874" lon="13.566976676476704"><ele>942.3333333333333</ele><time>2026-04-18T09:04:39Z</time></trkpt><trkpt lat="42.60319682342283" lon="13.566908137037423"><ele>945.0</ele><time>2026-04-18T09:04:40Z</time></trkpt><trkpt lat="42.60325360283576" lon="13.566848184045284"><ele>947.6666666666667</ele><time>2026-04-18T09:04:41Z</time></trkpt><trkpt lat="42.60329515501363" lon="13.566781729917354"><ele>950.3333333333334</ele><time>2026-04-18T09:04:42Z</time></trkpt><trkpt lat="42.60341350276863" lon="13.566635465695859"><ele>953.0</ele><time>2026-04-18T09:04:44Z</time></trkpt><trkpt lat="42.603506696428916" lon="13.566515762244864"><ele>953.0000000000001</ele><time>2026-04-18T09:04:46Z</time></trkpt><trkpt lat="42.60357981517391" lon="13.566449614332585"><ele>953.0</ele><time>2026-04-18T09:04:47Z</time></trkpt><trkpt lat="42.60366060615604" lon="13.566388134180482"><ele>953.0</ele><time>2026-04-18T09:04:48Z</time></trkpt><trkpt lat="42.60372409790951" lon="13.566337934931477"><ele>953.0</ele><time>2026-04-18T09:04:49Z</time></trkpt><trkpt lat="42.603782198097534" lon="13.566283310439523"><ele>953.0000000000001</ele><time>2026-04-18T09:04:50Z</time></trkpt><trkpt lat="42.6037372626293" lon="13.566154652324286"><ele>953.0</ele><time>2026-04-18T09:04:52Z</time></trkpt><trkpt lat="42.60372134776846" lon="13.566052547102919"><ele>949.4</ele><time>2026-04-18T09:04:56Z</time></trkpt><trkpt lat="42.60379319258145" lon="13.565968626725484"><ele>945.8</ele><time>2026-04-18T09:05:13Z</time></trkpt><trkpt lat="42.60379186107471" lon="13.565856785511052"><ele>942.2</ele><time>2026-04-18T09:05:15Z</time></trkpt><trkpt lat="42.603807870687056" lon="13.565707968176469"><ele>938.6</ele><time>2026-04-18T09:05:18Z</time></trkpt><trkpt lat="42.60385444138888" lon="13.565590834073689"><ele>935.0</ele><time>2026-04-18T09:05:20Z</time></trkpt><trkpt lat="42.603864166082786" lon="13.565489831552144"><ele>935.0000000000001</ele><time>2026-04-18T09:05:23Z</time></trkpt><trkpt lat="42.60389129225837" lon="13.56537553689206"><ele>935.0</ele><time>2026-04-18T09:05:27Z</time></trkpt><trkpt lat="42.603930760743985" lon="13.565284695217246"><ele>935.0</ele><time>2026-04-18T09:05:31Z</time></trkpt><trkpt lat="42.603924448689774" lon="13.565173917451833"><ele>935.0</ele><time>2026-04-18T09:05:33Z</time></trkpt><trkpt lat="42.60391702416651" lon="13.565074458851088"><ele>935.0000000000001</ele><time>2026-04-18T09:05:34.999Z</time></trkpt><trkpt lat="42.6039223170043" lon="13.564987769923508"><ele>935.0</ele><time>2026-04-18T09:05:36.999Z</time></trkpt><trkpt lat="42.60399484357874" lon="13.564928808461364"><ele>936.6666666666667</ele><time>2026-04-18T09:05:39.999Z</time></trkpt><trkpt lat="42.604028554032396" lon="13.56481476204612"><ele>938.3333333333334</ele><time>2026-04-18T09:05:42.999Z</time></trkpt><trkpt lat="42.60406203288509" lon="13.564729459661137"><ele>940.0</ele><time>2026-04-18T09:05:45.999Z</time></trkpt><trkpt lat="42.60407764176081" lon="13.564637117681915"><ele>941.6666666666667</ele><time>2026-04-18T09:05:48.999Z</time></trkpt><trkpt lat="42.6040872008611" lon="13.564544879082387"><ele>943.3333333333334</ele><time>2026-04-18T09:05:51.999Z</time></trkpt><trkpt lat="42.60405915904594" lon="13.564445918294783"><ele>945.0</ele><time>2026-04-18T09:06:02.999Z</time></trkpt><trkpt lat="42.60411653377649" lon="13.564376015936903"><ele>945.0</ele><time>2026-04-18T09:06:06.999Z</time></trkpt><trkpt lat="42.60419156768612" lon="13.564329508079544"><ele>945.0</ele><time>2026-04-18T09:07:03Z</time></trkpt><trkpt lat="42.60426414505387" lon="13.564384257737299"><ele>945.0</ele><time>2026-04-18T09:07:10Z</time></trkpt><trkpt lat="42.60424841330321" lon="13.564489679632045"><ele>945.0</ele><time>2026-04-18T09:07:14Z</time></trkpt><trkpt lat="42.604167644618" lon="13.56452924291907"><ele>945.0</ele><time>2026-04-18T09:07:18Z</time></trkpt><trkpt lat="42.604110068539285" lon="13.564580064210544"><ele>945.0</ele><time>2026-04-18T09:07:22Z</time></trkpt><trkpt lat="42.604092780426306" lon="13.564665978027778"><ele>945.1666666666666</ele><time>2026-04-18T09:08:06.999Z</time></trkpt><trkpt lat="42.6040843103406" lon="13.564776574871638"><ele>945.3333333333333</ele><time>2026-04-18T09:08:11.999Z</time></trkpt><trkpt lat="42.60403553135316" lon="13.564860030363826"><ele>945.5</ele><time>2026-04-18T09:08:15.999Z</time></trkpt><trkpt lat="42.6039874259106" lon="13.5649619692816"><ele>945.6666666666666</ele><time>2026-04-18T09:08:20Z</time></trkpt><trkpt lat="42.60397527666357" lon="13.565052376063655"><ele>945.8333333333333</ele><time>2026-04-18T09:08:23Z</time></trkpt><trkpt lat="42.60396472483476" lon="13.565174345445024"><ele>946.0</ele><time>2026-04-18T09:08:28Z</time></trkpt><trkpt lat="42.60392704116682" lon="13.565297541423606"><ele>943.8</ele><time>2026-04-18T09:08:31Z</time></trkpt><trkpt lat="42.60387320612513" lon="13.565383100381831"><ele>941.5999999999999</ele><time>2026-04-18T09:08:33Z</time></trkpt><trkpt lat="42.60385012692593" lon="13.565525500172107"><ele>939.4</ele><time>2026-04-18T09:08:35Z</time></trkpt><trkpt lat="42.60382000541956" lon="13.56565598048061"><ele>937.2</ele><time>2026-04-18T09:08:37Z</time></trkpt><trkpt lat="42.603773676414725" lon="13.565770562764584"><ele>935.0</ele><time>2026-04-18T09:08:39Z</time></trkpt><trkpt lat="42.60374844002072" lon="13.565890407646375"><ele>935.0000000000001</ele><time>2026-04-18T09:08:42Z</time></trkpt><trkpt lat="42.60369728415859" lon="13.565959476356769"><ele>935.0</ele><time>2026-04-18T09:08:44Z</time></trkpt><trkpt lat="42.603639520723554" lon="13.566000463618543"><ele>935.0</ele><time>2026-04-18T09:08:49Z</time></trkpt><trkpt lat="42.60363239835172" lon="13.566103620232361"><ele>935.0</ele><time>2026-04-18T09:08:54Z</time></trkpt><trkpt lat="42.60364168096758" lon="13.5662042339092"><ele>935.0000000000001</ele><time>2026-04-18T09:09:01Z</time></trkpt><trkpt lat="42.603581195616876" lon="13.566313195349673"><ele>935.0</ele><time>2026-04-18T09:09:04Z</time></trkpt><trkpt lat="42.60351225542664" lon="13.566431127173328"><ele>938.6</ele><time>2026-04-18T09:09:06Z</time></trkpt><trkpt lat="42.60345965641784" lon="13.566541046972711"><ele>942.2</ele><time>2026-04-18T09:09:08Z</time></trkpt><trkpt lat="42.603400855150845" lon="13.566603244065496"><ele>945.8</ele><time>2026-04-18T09:09:09Z</time></trkpt><trkpt lat="42.603317569698774" lon="13.566675178508378"><ele>949.4</ele><time>2026-04-18T09:09:11Z</time></trkpt><trkpt lat="42.603236982563324" lon="13.566801958181108"><ele>953.0</ele><time>2026-04-18T09:09:13Z</time></trkpt><trkpt lat="42.603160707606754" lon="13.566934284938414"><ele>953.0</ele><time>2026-04-18T09:09:15Z</time></trkpt><trkpt lat="42.60311738337956" lon="13.567013949562828"><ele>953.0</ele><time>2026-04-18T09:09:17Z</time></trkpt><trkpt lat="42.6030355196285" lon="13.567059927807428"><ele>953.0</ele><time>2026-04-18T09:09:18Z</time></trkpt><trkpt lat="42.60295723806787" lon="13.56720020885319"><ele>953.0</ele><time>2026-04-18T09:09:20Z</time></trkpt><trkpt lat="42.60287340709225" lon="13.567360712398356"><ele>953.0</ele><time>2026-04-18T09:09:22Z</time></trkpt><trkpt lat="42.60282912725809" lon="13.56743806423716"><ele>955.3333333333334</ele><time>2026-04-18T09:09:23Z</time></trkpt><trkpt lat="42.6027364617858" lon="13.567555563707252"><ele>957.6666666666667</ele><time>2026-04-18T09:09:25Z</time></trkpt><trkpt lat="42.602711475831455" lon="13.56765524637753"><ele>960.0</ele><time>2026-04-18T09:09:27Z</time></trkpt><trkpt lat="42.6027293021381" lon="13.567750126938114"><ele>962.3333333333333</ele><time>2026-04-18T09:09:30Z</time></trkpt><trkpt lat="42.60275582818819" lon="13.56784355734282"><ele>964.6666666666666</ele><time>2026-04-18T09:09:39Z</time></trkpt><trkpt lat="42.602710504437844" lon="13.567936143831936"><ele>967.0</ele><time>2026-04-18T09:09:45Z</time></trkpt><trkpt lat="42.602673937483075" lon="13.568024830669485"><ele>967.0</ele><time>2026-04-18T09:09:50.999Z</time></trkpt><trkpt lat="42.602664660602585" lon="13.568147023501414"><ele>967.0</ele><time>2026-04-18T09:09:52.999Z</time></trkpt><trkpt lat="42.60268266356918" lon="13.568249664417255"><ele>967.0</ele><time>2026-04-18T09:09:53.999Z</time></trkpt><trkpt lat="42.60266674136819" lon="13.568411461830138"><ele>967.0</ele><time>2026-04-18T09:09:55.999Z</time></trkpt><trkpt lat="42.60265774423353" lon="13.568566073533693"><ele>967.0</ele><time>2026-04-18T09:09:57.999Z</time></trkpt><trkpt lat="42.60268014651573" lon="13.568720167496897"><ele>967.4999999999999</ele><time>2026-04-18T09:09:59.999Z</time></trkpt><trkpt lat="42.60275719423298" lon="13.568783385857342"><ele>968.0</ele><time>2026-04-18T09:10:00.999Z</time></trkpt><trkpt lat="42.60279862350167" lon="13.568873746119385"><ele>968.5</ele><time>2026-04-18T09:10:01.999Z</time></trkpt><trkpt lat="42.602830989228096" lon="13.56896931682426"><ele>969.0</ele><time>2026-04-18T09:10:02.999Z</time></trkpt><trkpt lat="42.60289751728922" lon="13.569042684173748"><ele>969.4999999999999</ele><time>2026-04-18T09:10:03.999Z</time></trkpt><trkpt lat="42.602940463513775" lon="13.569139339806448"><ele>970.0</ele><time>2026-04-18T09:10:04.999Z</time></trkpt><trkpt lat="42.60295800994978" lon="13.56929126290892"><ele>964.8333333333333</ele><time>2026-04-18T09:10:05.999Z</time></trkpt><trkpt lat="42.60297399940643" lon="13.569423154913087"><ele>959.6666666666666</ele><time>2026-04-18T09:10:06.999Z</time></trkpt><trkpt lat="42.60297465137215" lon="13.569529770158805"><ele>954.5</ele><time>2026-04-18T09:10:07.999Z</time></trkpt><trkpt lat="42.60303390089843" lon="13.569601500523572"><ele>949.3333333333333</ele><time>2026-04-18T09:10:08.999Z</time></trkpt><trkpt lat="42.603095264367944" lon="13.56968017658821"><ele>944.1666666666666</ele><time>2026-04-18T09:10:09.999Z</time></trkpt><trkpt lat="42.603144164907896" lon="13.56979473292845"><ele>939.0</ele><time>2026-04-18T09:10:10.999Z</time></trkpt><trkpt lat="42.603172809961166" lon="13.569906792340973"><ele>939.0</ele><time>2026-04-18T09:10:11.999Z</time></trkpt><trkpt lat="42.60322525582042" lon="13.570066408640638"><ele>939.0000000000001</ele><time>2026-04-18T09:10:13.999Z</time></trkpt><trkpt lat="42.603232124631184" lon="13.570168739918511"><ele>939.0000000000001</ele><time>2026-04-18T09:10:14.999Z</time></trkpt><trkpt lat="42.603250391980374" lon="13.570287036128132"><ele>939.0</ele><time>2026-04-18T09:10:15.999Z</time></trkpt><trkpt lat="42.60324689327808" lon="13.570413854302874"><ele>939.0</ele><time>2026-04-18T09:10:16.999Z</time></trkpt><trkpt lat="42.60325728865906" lon="13.570523169293805"><ele>940.1666666666666</ele><time>2026-04-18T09:10:17.999Z</time></trkpt><trkpt lat="42.60324851283361" lon="13.57064279872182"><ele>941.3333333333333</ele><time>2026-04-18T09:10:18.999Z</time></trkpt><trkpt lat="42.60321512588598" lon="13.57076551040662"><ele>942.5</ele><time>2026-04-18T09:10:19.999Z</time></trkpt><trkpt lat="42.60319467155752" lon="13.57089394831012"><ele>943.6666666666666</ele><time>2026-04-18T09:10:20.999Z</time></trkpt><trkpt lat="42.603193557903005" lon="13.571008317185635"><ele>944.8333333333333</ele><time>2026-04-18T09:10:21.999Z</time></trkpt><trkpt lat="42.6032098198152" lon="13.571114633658267"><ele>946.0</ele><time>2026-04-18T09:10:22.999Z</time></trkpt><trkpt lat="42.60324067363813" lon="13.57122075388331"><ele>946.1666666666666</ele><time>2026-04-18T09:10:23.999Z</time></trkpt><trkpt lat="42.60325385655362" lon="13.571340972758847"><ele>946.3333333333333</ele><time>2026-04-18T09:10:24.999Z</time></trkpt><trkpt lat="42.603236530379206" lon="13.571486615645343"><ele>946.5</ele><time>2026-04-18T09:10:26Z</time></trkpt><trkpt lat="42.60322122577658" lon="13.571602540606847"><ele>946.6666666666667</ele><time>2026-04-18T09:10:27Z</time></trkpt><trkpt lat="42.60321082803613" lon="13.571716114329453"><ele>946.8333333333334</ele><time>2026-04-18T09:10:28Z</time></trkpt><trkpt lat="42.60317862146951" lon="13.57179294798747"><ele>947.0</ele><time>2026-04-18T09:10:29Z</time></trkpt><trkpt lat="42.60314580334611" lon="13.571897751743935"><ele>947.0</ele><time>2026-04-18T09:10:30Z</time></trkpt><trkpt lat="42.60310950908197" lon="13.572002611236085"><ele>947.0</ele><time>2026-04-18T09:10:31Z</time></trkpt><trkpt lat="42.60305094775217" lon="13.572116597312686"><ele>947.0</ele><time>2026-04-18T09:10:32Z</time></trkpt><trkpt lat="42.60302297558243" lon="13.572245171288326"><ele>947.0</ele><time>2026-04-18T09:10:33Z</time></trkpt><trkpt lat="42.603001081109035" lon="13.572375783827095"><ele>947.0</ele><time>2026-04-18T09:10:34Z</time></trkpt><trkpt lat="42.603000221937705" lon="13.572495678222637"><ele>946.8</ele><time>2026-04-18T09:10:35Z</time></trkpt><trkpt lat="42.603001859713004" lon="13.572645366532841"><ele>946.6</ele><time>2026-04-18T09:10:36Z</time></trkpt><trkpt lat="42.602994488135636" lon="13.57279707258659"><ele>946.3999999999999</ele><time>2026-04-18T09:10:37Z</time></trkpt><trkpt lat="42.602972543785064" lon="13.572935858283401"><ele>946.1999999999999</ele><time>2026-04-18T09:10:38Z</time></trkpt><trkpt lat="42.60294079837846" lon="13.573041396265864"><ele>946.0</ele><time>2026-04-18T09:10:39Z</time></trkpt><trkpt lat="42.602953919277795" lon="13.573133367461152"><ele>945.5999999999999</ele><time>2026-04-18T09:10:40Z</time></trkpt><trkpt lat="42.60297065103371" lon="13.57322526385892"><ele>945.1999999999999</ele><time>2026-04-18T09:10:41Z</time></trkpt><trkpt lat="42.60293641350892" lon="13.573347736692154"><ele>944.8000000000001</ele><time>2026-04-18T09:10:43Z</time></trkpt><trkpt lat="42.60294031578482" lon="13.573460202848281"><ele>944.4000000000001</ele><time>2026-04-18T09:10:45Z</time></trkpt><trkpt lat="42.60287522533108" lon="13.573529904117603"><ele>944.0</ele><time>2026-04-18T09:10:48Z</time></trkpt><trkpt lat="42.602757554703444" lon="13.573454952173568"><ele>942.8333333333334</ele><time>2026-04-18T09:10:50Z</time></trkpt><trkpt lat="42.60268287795363" lon="13.573384755346174"><ele>941.6666666666667</ele><time>2026-04-18T09:10:51Z</time></trkpt><trkpt lat="42.60264141714599" lon="13.57326855429127"><ele>940.5</ele><time>2026-04-18T09:10:52Z</time></trkpt><trkpt lat="42.60259161445711" lon="13.573174052331394"><ele>939.3333333333333</ele><time>2026-04-18T09:10:53Z</time></trkpt><trkpt lat="42.60254849401468" lon="13.573100150126837"><ele>938.1666666666666</ele><time>2026-04-18T09:10:54Z</time></trkpt><trkpt lat="42.602522071341944" lon="13.573020977168177"><ele>937.0</ele><time>2026-04-18T09:10:55Z</time></trkpt><trkpt lat="42.602483875099864" lon="13.572892947565881"><ele>939.2</ele><time>2026-04-18T09:10:56Z</time></trkpt><trkpt lat="42.60241879442132" lon="13.572755332118014"><ele>941.4000000000001</ele><time>2026-04-18T09:10:57Z</time></trkpt><trkpt lat="42.602351895448145" lon="13.572632491368134"><ele>943.5999999999999</ele><time>2026-04-18T09:10:58Z</time></trkpt><trkpt lat="42.60228889694963" lon="13.57253170368686"><ele>945.8</ele><time>2026-04-18T09:10:59Z</time></trkpt><trkpt lat="42.60222308673113" lon="13.572402230852633"><ele>948.0</ele><time>2026-04-18T09:11:00Z</time></trkpt><trkpt lat="42.60216251329269" lon="13.572271768159439"><ele>948.0</ele><time>2026-04-18T09:11:01Z</time></trkpt><trkpt lat="42.60209758924141" lon="13.572145563285392"><ele>948.0</ele><time>2026-04-18T09:11:02Z</time></trkpt><trkpt lat="42.60203605514168" lon="13.57202731791171"><ele>948.0</ele><time>2026-04-18T09:11:03Z</time></trkpt><trkpt lat="42.602000992006225" lon="13.571879303869496"><ele>948.0</ele><time>2026-04-18T09:11:04Z</time></trkpt><trkpt lat="42.601951395808534" lon="13.571722043504744"><ele>944.0</ele><time>2026-04-18T09:11:05Z</time></trkpt><trkpt lat="42.60190198893419" lon="13.571583727573328"><ele>940.0</ele><time>2026-04-18T09:11:06Z</time></trkpt><trkpt lat="42.60182488726809" lon="13.57149790297034"><ele>936.0</ele><time>2026-04-18T09:11:07Z</time></trkpt><trkpt lat="42.601750122717206" lon="13.571401027199242"><ele>932.0</ele><time>2026-04-18T09:11:08Z</time></trkpt><trkpt lat="42.601680942602655" lon="13.57133571406805"><ele>928.0</ele><time>2026-04-18T09:11:09Z</time></trkpt><trkpt lat="42.60159504705212" lon="13.571288194632988"><ele>928.0</ele><time>2026-04-18T09:11:10Z</time></trkpt><trkpt lat="42.601517325872244" lon="13.571232611109046"><ele>928.0</ele><time>2026-04-18T09:11:11Z</time></trkpt><trkpt lat="42.601439916342564" lon="13.571200073816081"><ele>928.0</ele><time>2026-04-18T09:11:12Z</time></trkpt><trkpt lat="42.601346353006576" lon="13.571219781521513"><ele>928.0</ele><time>2026-04-18T09:11:13Z</time></trkpt><trkpt lat="42.60121213839897" lon="13.571234730653403"><ele>928.0</ele><time>2026-04-18T09:11:14Z</time></trkpt><trkpt lat="42.6010892919198" lon="13.571230955001813"><ele>926.6666666666666</ele><time>2026-04-18T09:11:15Z</time></trkpt><trkpt lat="42.60101198293775" lon="13.571234656504979"><ele>925.3333333333333</ele><time>2026-04-18T09:11:16Z</time></trkpt><trkpt lat="42.6009599994692" lon="13.571185431032376"><ele>924.0</ele><time>2026-04-18T09:11:18Z</time></trkpt><trkpt lat="42.60089149125309" lon="13.57109783005569"><ele>922.6666666666667</ele><time>2026-04-18T09:11:20Z</time></trkpt><trkpt lat="42.60082825667928" lon="13.571006258749147"><ele>921.3333333333334</ele><time>2026-04-18T09:11:22Z</time></trkpt><trkpt lat="42.60082284605112" lon="13.570895588450878"><ele>920.0</ele><time>2026-04-18T09:11:23Z</time></trkpt><trkpt lat="42.60081975163789" lon="13.570761135215946"><ele>920.0</ele><time>2026-04-18T09:11:24Z</time></trkpt><trkpt lat="42.60080024762615" lon="13.570611055043317"><ele>920.0</ele><time>2026-04-18T09:11:25Z</time></trkpt><trkpt lat="42.60076078277981" lon="13.57045465722935"><ele>920.0</ele><time>2026-04-18T09:11:26Z</time></trkpt><trkpt lat="42.600709659656076" lon="13.57028831535722"><ele>920.0</ele><time>2026-04-18T09:11:27Z</time></trkpt><trkpt lat="42.600677934444896" lon="13.570102866141386"><ele>924.3333333333334</ele><time>2026-04-18T09:11:28Z</time></trkpt><trkpt lat="42.60063484135313" lon="13.56989889471147"><ele>928.6666666666667</ele><time>2026-04-18T09:11:29Z</time></trkpt><trkpt lat="42.600606007235925" lon="13.569703449323692"><ele>933.0</ele><time>2026-04-18T09:11:30Z</time></trkpt><trkpt lat="42.60059399673864" lon="13.569487984196575"><ele>938.3333333333333</ele><time>2026-04-18T09:11:31Z</time></trkpt><trkpt lat="42.600578330635976" lon="13.56926833798864"><ele>943.6666666666666</ele><time>2026-04-18T09:11:32Z</time></trkpt><trkpt lat="42.600577837409475" lon="13.569044539916407"><ele>949.0</ele><time>2026-04-18T09:11:33Z</time></trkpt><trkpt lat="42.60054992545428" lon="13.5688259832652"><ele>952.3333333333333</ele><time>2026-04-18T09:11:34Z</time></trkpt><trkpt lat="42.60053024848065" lon="13.568595746319989"><ele>955.6666666666667</ele><time>2026-04-18T09:11:35Z</time></trkpt><trkpt lat="42.600519095616065" lon="13.568363262343519"><ele>959.0</ele><time>2026-04-18T09:11:36Z</time></trkpt><trkpt lat="42.60049088220381" lon="13.568146397323392"><ele>959.0</ele><time>2026-04-18T09:11:37Z</time></trkpt><trkpt lat="42.600448288725346" lon="13.567985013652688"><ele>959.0</ele><time>2026-04-18T09:11:38Z</time></trkpt><trkpt lat="42.60035517654152" lon="13.567837123080821"><ele>959.0</ele><time>2026-04-18T09:11:39Z</time></trkpt><trkpt lat="42.60024260649412" lon="13.567732560298953"><ele>959.0</ele><time>2026-04-18T09:11:40Z</time></trkpt><trkpt lat="42.60011643943625" lon="13.567650444224725"><ele>953.25</ele><time>2026-04-18T09:11:41Z</time></trkpt><trkpt lat="42.6000178121078" lon="13.56756532131729"><ele>947.5</ele><time>2026-04-18T09:11:42Z</time></trkpt><trkpt lat="42.59994172614158" lon="13.567476921055103"><ele>941.75</ele><time>2026-04-18T09:11:43Z</time></trkpt><trkpt lat="42.59988261307216" lon="13.567337969038084"><ele>936.0</ele><time>2026-04-18T09:11:44Z</time></trkpt><trkpt lat="42.5998421631565" lon="13.567185416049776"><ele>938.5</ele><time>2026-04-18T09:11:45Z</time></trkpt><trkpt lat="42.59982700357997" lon="13.567010833423252"><ele>941.0</ele><time>2026-04-18T09:11:46Z</time></trkpt><trkpt lat="42.59981411673824" lon="13.566817301215808"><ele>943.5</ele><time>2026-04-18T09:11:47Z</time></trkpt><trkpt lat="42.5997756086042" lon="13.566610463126837"><ele>946.0</ele><time>2026-04-18T09:11:48Z</time></trkpt><trkpt lat="42.59976135551766" lon="13.566397803148533"><ele>946.0</ele><time>2026-04-18T09:11:48.999Z</time></trkpt><trkpt lat="42.599784805275625" lon="13.56620900108429"><ele>946.0</ele><time>2026-04-18T09:11:49.999Z</time></trkpt><trkpt lat="42.59983378472567" lon="13.566056557988526"><ele>946.0</ele><time>2026-04-18T09:11:50.999Z</time></trkpt><trkpt lat="42.59992154078607" lon="13.56592851295655"><ele>946.0</ele><time>2026-04-18T09:11:51.999Z</time></trkpt><trkpt lat="42.60004122981235" lon="13.565839704532364"><ele>942.25</ele><time>2026-04-18T09:11:52.999Z</time></trkpt><trkpt lat="42.600174559854224" lon="13.565779665323259"><ele>938.5</ele><time>2026-04-18T09:11:53.999Z</time></trkpt><trkpt lat="42.60030490111609" lon="13.565698201427443"><ele>934.75</ele><time>2026-04-18T09:11:54.999Z</time></trkpt><trkpt lat="42.600438404862764" lon="13.565607380912557"><ele>931.0</ele><time>2026-04-18T09:11:55.999Z</time></trkpt><trkpt lat="42.60057092322025" lon="13.56551835124367"><ele>933.3333333333333</ele><time>2026-04-18T09:11:56.999Z</time></trkpt><trkpt lat="42.600707251533045" lon="13.565425529027491"><ele>935.6666666666667</ele><time>2026-04-18T09:11:57.999Z</time></trkpt><trkpt lat="42.600831032603274" lon="13.565314492159612"><ele>938.0</ele><time>2026-04-18T09:11:58.999Z</time></trkpt><trkpt lat="42.6009257819295" lon="13.565155563696658"><ele>938.0</ele><time>2026-04-18T09:11:59.999Z</time></trkpt><trkpt lat="42.600990717225" lon="13.56500218917507"><ele>938.0</ele><time>2026-04-18T09:12:00.999Z</time></trkpt><trkpt lat="42.60102199766872" lon="13.564807541086827"><ele>938.0</ele><time>2026-04-18T09:12:01.999Z</time></trkpt><trkpt lat="42.60105230552153" lon="13.564624891445357"><ele>938.0</ele><time>2026-04-18T09:12:02.999Z</time></trkpt><trkpt lat="42.601073994991424" lon="13.56444548051337"><ele>935.5</ele><time>2026-04-18T09:12:03.999Z</time></trkpt><trkpt lat="42.60110416739638" lon="13.564259604081455"><ele>933.0</ele><time>2026-04-18T09:12:04.999Z</time></trkpt><trkpt lat="42.60112892632138" lon="13.564079695715947"><ele>930.5</ele><time>2026-04-18T09:12:05.999Z</time></trkpt><trkpt lat="42.60115021600624" lon="13.563904200947043"><ele>928.0</ele><time>2026-04-18T09:12:06.999Z</time></trkpt><trkpt lat="42.60115704829336" lon="13.56371667412679"><ele>943.0</ele><time>2026-04-18T09:12:07.999Z</time></trkpt><trkpt lat="42.601167114684934" lon="13.563534134796972"><ele>958.0</ele><time>2026-04-18T09:12:08.999Z</time></trkpt><trkpt lat="42.601166149506916" lon="13.56334559126078"><ele>973.0</ele><time>2026-04-18T09:12:09.999Z</time></trkpt><trkpt lat="42.60118111612421" lon="13.563151630959782"><ele>988.0</ele><time>2026-04-18T09:12:10.999Z</time></trkpt><trkpt lat="42.60119780978301" lon="13.562966175022112"><ele>988.5</ele><time>2026-04-18T09:12:11.999Z</time></trkpt><trkpt lat="42.601197161569054" lon="13.562779016287008"><ele>989.0</ele><time>2026-04-18T09:12:12.999Z</time></trkpt><trkpt lat="42.60116396838824" lon="13.562628419129958"><ele>989.5</ele><time>2026-04-18T09:12:13.999Z</time></trkpt><trkpt lat="42.60109077055533" lon="13.562483347645053"><ele>990.0</ele><time>2026-04-18T09:12:14.999Z</time></trkpt><trkpt lat="42.60099150820723" lon="13.562346024981746"><ele>986.75</ele><time>2026-04-18T09:12:15.999Z</time></trkpt><trkpt lat="42.60088657566006" lon="13.562220911574885"><ele>983.5</ele><time>2026-04-18T09:12:16.999Z</time></trkpt><trkpt lat="42.60077684006425" lon="13.56208581607887"><ele>980.25</ele><time>2026-04-18T09:12:17.999Z</time></trkpt><trkpt lat="42.600677644189744" lon="13.56193419508015"><ele>977.0</ele><time>2026-04-18T09:12:18.999Z</time></trkpt><trkpt lat="42.600583437496184" lon="13.561798713172688"><ele>977.0</ele><time>2026-04-18T09:12:19.999Z</time></trkpt><trkpt lat="42.600487362728046" lon="13.561661227110124"><ele>977.0</ele><time>2026-04-18T09:12:20.999Z</time></trkpt><trkpt lat="42.600393765590105" lon="13.561522872234729"><ele>977.0</ele><time>2026-04-18T09:12:21.999Z</time></trkpt><trkpt lat="42.60029461937763" lon="13.561366878878996"><ele>977.0</ele><time>2026-04-18T09:12:22.999Z</time></trkpt><trkpt lat="42.600197027849944" lon="13.56120913651034"><ele>974.5</ele><time>2026-04-18T09:12:23.999Z</time></trkpt><trkpt lat="42.600093885447045" lon="13.56106466251966"><ele>972.0</ele><time>2026-04-18T09:12:24.999Z</time></trkpt><trkpt lat="42.59998401220699" lon="13.560927056968223"><ele>969.5</ele><time>2026-04-18T09:12:25.999Z</time></trkpt><trkpt lat="42.59987643559393" lon="13.560797246183919"><ele>967.0</ele><time>2026-04-18T09:12:26.999Z</time></trkpt><trkpt lat="42.59977999413286" lon="13.560679821726653"><ele>967.0</ele><time>2026-04-18T09:12:27.999Z</time></trkpt><trkpt lat="42.599708333231256" lon="13.560571728791277"><ele>967.0</ele><time>2026-04-18T09:12:28.999Z</time></trkpt><trkpt lat="42.59968489958873" lon="13.56044674684031"><ele>967.0</ele><time>2026-04-18T09:12:29.999Z</time></trkpt><trkpt lat="42.59970478977683" lon="13.560336543668901"><ele>967.0</ele><time>2026-04-18T09:12:30.999Z</time></trkpt><trkpt lat="42.59974421513946" lon="13.560233505921254"><ele>967.0</ele><time>2026-04-18T09:12:32Z</time></trkpt><trkpt lat="42.5997913737857" lon="13.560136080329894"><ele>967.6666666666666</ele><time>2026-04-18T09:12:33Z</time></trkpt><trkpt lat="42.59983447247663" lon="13.560041933129211"><ele>968.3333333333333</ele><time>2026-04-18T09:12:34Z</time></trkpt><trkpt lat="42.599875534969506" lon="13.559940529056675"><ele>969.0</ele><time>2026-04-18T09:12:35Z</time></trkpt><trkpt lat="42.599914242953695" lon="13.559833028636538"><ele>969.6666666666667</ele><time>2026-04-18T09:12:36Z</time></trkpt><trkpt lat="42.599945189437655" lon="13.559745770438624"><ele>970.3333333333334</ele><time>2026-04-18T09:12:37Z</time></trkpt><trkpt lat="42.599977497924044" lon="13.559672182512728"><ele>971.0</ele><time>2026-04-18T09:12:38Z</time></trkpt><trkpt lat="42.599994221624584" lon="13.559523820573636"><ele>971.0</ele><time>2026-04-18T09:12:40Z</time></trkpt><trkpt lat="42.59998713462334" lon="13.559422583149962"><ele>970.9999999999999</ele><time>2026-04-18T09:12:42Z</time></trkpt><trkpt lat="42.599948683430746" lon="13.55955255280568"><ele>970.9999999999999</ele><time>2026-04-18T09:12:46Z</time></trkpt><trkpt lat="42.59995205844009" lon="13.55969501429074"><ele>971.0</ele><time>2026-04-18T09:12:47Z</time></trkpt><trkpt lat="42.5999120321244" lon="13.559831933878995"><ele>971.0</ele><time>2026-04-18T09:12:48Z</time></trkpt><trkpt lat="42.59984523116375" lon="13.559970419008907"><ele>971.1999999999999</ele><time>2026-04-18T09:12:49Z</time></trkpt><trkpt lat="42.599771325309185" lon="13.560135814305042"><ele>971.3999999999999</ele><time>2026-04-18T09:12:50Z</time></trkpt><trkpt lat="42.59972143414623" lon="13.560262830591778"><ele>971.6</ele><time>2026-04-18T09:12:51Z</time></trkpt><trkpt lat="42.599683056381565" lon="13.560373955012706"><ele>971.8</ele><time>2026-04-18T09:12:52Z</time></trkpt><trkpt lat="42.59966308400126" lon="13.560473838836232"><ele>972.0</ele><time>2026-04-18T09:12:53Z</time></trkpt><trkpt lat="42.599662196212094" lon="13.560566006631577"><ele>972.0</ele><time>2026-04-18T09:12:54Z</time></trkpt><trkpt lat="42.59972059864233" lon="13.560624267963362"><ele>972.0</ele><time>2026-04-18T09:12:56Z</time></trkpt><trkpt lat="42.599770806051076" lon="13.560556185582518"><ele>972.0</ele><time>2026-04-18T09:12:58Z</time></trkpt><trkpt lat="42.59978087471646" lon="13.560454756045495"><ele>972.0</ele><time>2026-04-18T09:13:00Z</time></trkpt><trkpt lat="42.59981182601985" lon="13.560341538982659"><ele>972.0</ele><time>2026-04-18T09:13:02Z</time></trkpt><trkpt lat="42.59984102559892" lon="13.560201411237328"><ele>972.0</ele><time>2026-04-18T09:13:04Z</time></trkpt><trkpt lat="42.599879431484524" lon="13.560130129205145"><ele>972.0</ele><time>2026-04-18T09:13:07Z</time></trkpt><trkpt lat="42.59993762787928" lon="13.560041465452722"><ele>972.0</ele><time>2026-04-18T09:13:09Z</time></trkpt><trkpt lat="42.59998388142005" lon="13.559913270358006"><ele>972.0</ele><time>2026-04-18T09:13:11Z</time></trkpt><trkpt lat="42.60000959399218" lon="13.559831517304547"><ele>972.0</ele><time>2026-04-18T09:13:12Z</time></trkpt><trkpt lat="42.600031067961375" lon="13.55974561510959"><ele>972.0</ele><time>2026-04-18T09:13:13Z</time></trkpt><trkpt lat="42.60005315200583" lon="13.559659968927871"><ele>972.0</ele><time>2026-04-18T09:13:14Z</time></trkpt><trkpt lat="42.60007852889862" lon="13.55950105436817"><ele>971.8333333333334</ele><time>2026-04-18T09:13:16Z</time></trkpt><trkpt lat="42.60008315628625" lon="13.559344674107882"><ele>971.6666666666667</ele><time>2026-04-18T09:13:18Z</time></trkpt><trkpt lat="42.600061416012686" lon="13.559261160866118"><ele>971.5</ele><time>2026-04-18T09:13:22Z</time></trkpt><trkpt lat="42.60001728772499" lon="13.559194196251026"><ele>971.3333333333334</ele><time>2026-04-18T09:13:36Z</time></trkpt><trkpt lat="42.59999256165478" lon="13.55908121708135"><ele>971.1666666666667</ele><time>2026-04-18T09:13:38Z</time></trkpt><trkpt lat="42.59996725160391" lon="13.558997398644193"><ele>971.0</ele><time>2026-04-18T09:13:40Z</time></trkpt><trkpt lat="42.59993649061269" lon="13.558894459548576"><ele>971.0000000000001</ele><time>2026-04-18T09:13:42Z</time></trkpt><trkpt lat="42.599902640927034" lon="13.558774159865715"><ele>971.0</ele><time>2026-04-18T09:13:44Z</time></trkpt><trkpt lat="42.59991634081871" lon="13.558664122808832"><ele>971.0</ele><time>2026-04-18T09:13:47Z</time></trkpt><trkpt lat="42.599934784418906" lon="13.558568764505623"><ele>971.0</ele><time>2026-04-18T09:13:50Z</time></trkpt><trkpt lat="42.59997357707031" lon="13.558461109117061"><ele>971.0000000000001</ele><time>2026-04-18T09:13:53Z</time></trkpt><trkpt lat="42.60000433451691" lon="13.558385233606119"><ele>971.0</ele><time>2026-04-18T09:13:54.999Z</time></trkpt><trkpt lat="42.60005082943296" lon="13.558288681063514"><ele>971.5000000000001</ele><time>2026-04-18T09:13:56.999Z</time></trkpt><trkpt lat="42.600108848019865" lon="13.5581773529624"><ele>972.0</ele><time>2026-04-18T09:13:58.999Z</time></trkpt><trkpt lat="42.60016331162527" lon="13.558109773904276"><ele>972.5</ele><time>2026-04-18T09:14:08.999Z</time></trkpt><trkpt lat="42.60021525843684" lon="13.558052645500528"><ele>973.0</ele><time>2026-04-18T09:14:28.999Z</time></trkpt><trkpt lat="42.60026572531854" lon="13.557971635221607"><ele>973.5000000000001</ele><time>2026-04-18T09:14:32.999Z</time></trkpt><trkpt lat="42.60032744852414" lon="13.55789383688319"><ele>974.0</ele><time>2026-04-18T09:14:38Z</time></trkpt><trkpt lat="42.600371129426016" lon="13.557794882766979"><ele>975.0</ele><time>2026-04-18T09:14:41Z</time></trkpt><trkpt lat="42.600405121894134" lon="13.557710535321643"><ele>976.0000000000001</ele><time>2026-04-18T09:14:43Z</time></trkpt><trkpt lat="42.60044126539624" lon="13.557561356028165"><ele>977.0000000000001</ele><time>2026-04-18T09:14:45Z</time></trkpt><trkpt lat="42.60047171460476" lon="13.55748297620795"><ele>978.0</ele><time>2026-04-18T09:14:46Z</time></trkpt><trkpt lat="42.60051814139119" lon="13.55732830310704"><ele>979.0</ele><time>2026-04-18T09:14:48Z</time></trkpt><trkpt lat="42.60050765889546" lon="13.557148779514952"><ele>978.9999999999999</ele><time>2026-04-18T09:14:50Z</time></trkpt><trkpt lat="42.600494644558495" lon="13.557048516258453"><ele>979.0</ele><time>2026-04-18T09:14:51Z</time></trkpt><trkpt lat="42.600480290605674" lon="13.556962420761142"><ele>979.0</ele><time>2026-04-18T09:14:52Z</time></trkpt><trkpt lat="42.600444933691456" lon="13.556826823629642"><ele>979.0</ele><time>2026-04-18T09:14:54Z</time></trkpt><trkpt lat="42.600456638912675" lon="13.556712059113663"><ele>978.9999999999999</ele><time>2026-04-18T09:14:57Z</time></trkpt><trkpt lat="42.60049953612099" lon="13.556638454231127"><ele>979.0</ele><time>2026-04-18T09:14:59Z</time></trkpt><trkpt lat="42.600520893548484" lon="13.556553711131034"><ele>980.6666666666666</ele><time>2026-04-18T09:15:00Z</time></trkpt><trkpt lat="42.60052793382901" lon="13.556453548732957"><ele>982.3333333333333</ele><time>2026-04-18T09:15:01Z</time></trkpt><trkpt lat="42.600563018729744" lon="13.55635906811711"><ele>984.0</ele><time>2026-04-18T09:15:02Z</time></trkpt><trkpt lat="42.60061208306989" lon="13.55624112569925"><ele>985.6666666666667</ele><time>2026-04-18T09:15:03Z</time></trkpt><trkpt lat="42.600656556926985" lon="13.556122008827655"><ele>987.3333333333334</ele><time>2026-04-18T09:15:04Z</time></trkpt><trkpt lat="42.60071017416161" lon="13.556049440366401"><ele>989.0</ele><time>2026-04-18T09:15:05Z</time></trkpt><trkpt lat="42.60072732766481" lon="13.55594436281019"><ele>990.1666666666667</ele><time>2026-04-18T09:15:08Z</time></trkpt><trkpt lat="42.600734448565994" lon="13.555782355446071"><ele>991.3333333333334</ele><time>2026-04-18T09:15:10Z</time></trkpt><trkpt lat="42.600722802589004" lon="13.555679280509128"><ele>992.5</ele><time>2026-04-18T09:15:16Z</time></trkpt><trkpt lat="42.60069899562689" lon="13.55557931178329"><ele>993.6666666666667</ele><time>2026-04-18T09:15:19Z</time></trkpt><trkpt lat="42.60072329840553" lon="13.555498811922913"><ele>994.8333333333334</ele><time>2026-04-18T09:15:22Z</time></trkpt><trkpt lat="42.600658054415085" lon="13.555445109469066"><ele>996.0</ele><time>2026-04-18T09:15:27Z</time></trkpt><trkpt lat="42.60064330414631" lon="13.555333401769493"><ele>996.5</ele><time>2026-04-18T09:15:30Z</time></trkpt><trkpt lat="42.60061776577541" lon="13.555228733956417"><ele>997.0</ele><time>2026-04-18T09:15:32Z</time></trkpt><trkpt lat="42.60060791196821" lon="13.555132077719437"><ele>997.5</ele><time>2026-04-18T09:15:35Z</time></trkpt><trkpt lat="42.60056922201897" lon="13.55503596610065"><ele>998.0</ele><time>2026-04-18T09:15:37Z</time></trkpt><trkpt lat="42.60056491954517" lon="13.554925839365294"><ele>998.5</ele><time>2026-04-18T09:15:39Z</time></trkpt><trkpt lat="42.60054757012096" lon="13.554806002957939"><ele>999.0</ele><time>2026-04-18T09:15:41Z</time></trkpt><trkpt lat="42.60051987136257" lon="13.554679471654715"><ele>999.0</ele><time>2026-04-18T09:15:43Z</time></trkpt><trkpt lat="42.600516129810046" lon="13.55456287884795"><ele>999.0</ele><time>2026-04-18T09:15:44Z</time></trkpt><trkpt lat="42.60055263279267" lon="13.554480588951279"><ele>999.0</ele><time>2026-04-18T09:15:45Z</time></trkpt><trkpt lat="42.60059094901249" lon="13.55438318123887"><ele>999.0</ele><time>2026-04-18T09:15:46Z</time></trkpt><trkpt lat="42.600613419641604" lon="13.554298587773514"><ele>999.0</ele><time>2026-04-18T09:15:47Z</time></trkpt><trkpt lat="42.60064525812907" lon="13.554131874170741"><ele>999.0</ele><time>2026-04-18T09:15:49Z</time></trkpt><trkpt lat="42.60065374112073" lon="13.554028696129006"><ele>999.5</ele><time>2026-04-18T09:15:50Z</time></trkpt><trkpt lat="42.60066806008703" lon="13.553910781054086"><ele>1000.0</ele><time>2026-04-18T09:15:52Z</time></trkpt><trkpt lat="42.600648961423026" lon="13.55379694261901"><ele>1000.5</ele><time>2026-04-18T09:15:53Z</time></trkpt><trkpt lat="42.60067093469263" lon="13.553688976333225"><ele>1001.0</ele><time>2026-04-18T09:15:54Z</time></trkpt><trkpt lat="42.60070069178424" lon="13.553607331135325"><ele>1001.5</ele><time>2026-04-18T09:15:55Z</time></trkpt><trkpt lat="42.6007357647493" lon="13.553517946643383"><ele>1002.0</ele><time>2026-04-18T09:15:56Z</time></trkpt><trkpt lat="42.6007579856678" lon="13.55343583420948"><ele>1005.2</ele><time>2026-04-18T09:15:57Z</time></trkpt><trkpt lat="42.60080387927791" lon="13.553332885261325"><ele>1008.4000000000001</ele><time>2026-04-18T09:15:59Z</time></trkpt><trkpt lat="42.60077624638742" lon="13.553220403556997"><ele>1011.5999999999999</ele><time>2026-04-18T09:16:01Z</time></trkpt><trkpt lat="42.60073436590113" lon="13.553086921350973"><ele>1014.8</ele><time>2026-04-18T09:16:02.999Z</time></trkpt><trkpt lat="42.600682279267915" lon="13.552938631542123"><ele>1018.0</ele><time>2026-04-18T09:16:04.999Z</time></trkpt><trkpt lat="42.60073285770645" lon="13.552762448628778"><ele>1019.9999999999999</ele><time>2026-04-18T09:16:06.999Z</time></trkpt><trkpt lat="42.60077964639826" lon="13.552677576274966"><ele>1022.0</ele><time>2026-04-18T09:16:07.999Z</time></trkpt><trkpt lat="42.60081947677527" lon="13.552590656821375"><ele>1024.0</ele><time>2026-04-18T09:16:08.999Z</time></trkpt><trkpt lat="42.60084577976203" lon="13.552511214396542"><ele>1026.0</ele><time>2026-04-18T09:16:09.999Z</time></trkpt><trkpt lat="42.600849592746314" lon="13.552363918640044"><ele>1028.0</ele><time>2026-04-18T09:16:10.999Z</time></trkpt><trkpt lat="42.60084109421269" lon="13.55224618402943"><ele>1030.0</ele><time>2026-04-18T09:16:11.999Z</time></trkpt><trkpt lat="42.60081429912403" lon="13.55212239480225"><ele>1030.6666666666665</ele><time>2026-04-18T09:16:12.999Z</time></trkpt><trkpt lat="42.60078574858422" lon="13.551991213111547"><ele>1031.3333333333333</ele><time>2026-04-18T09:16:13.999Z</time></trkpt><trkpt lat="42.60073537142266" lon="13.5519026559338"><ele>1032.0</ele><time>2026-04-18T09:16:14.999Z</time></trkpt><trkpt lat="42.60067709456044" lon="13.551820355698599"><ele>1032.6666666666667</ele><time>2026-04-18T09:16:15.999Z</time></trkpt><trkpt lat="42.6006318085504" lon="13.55174270913922"><ele>1033.3333333333335</ele><time>2026-04-18T09:16:16.999Z</time></trkpt><trkpt lat="42.60058936839438" lon="13.551613848186507"><ele>1034.0</ele><time>2026-04-18T09:16:18.999Z</time></trkpt><trkpt lat="42.60057607721391" lon="13.551489473486322"><ele>1034.0</ele><time>2026-04-18T09:16:20.999Z</time></trkpt><trkpt lat="42.60057264384314" lon="13.55139293857206"><ele>1034.0</ele><time>2026-04-18T09:16:21.999Z</time></trkpt><trkpt lat="42.60057455661818" lon="13.551227890738573"><ele>1034.0</ele><time>2026-04-18T09:16:23.999Z</time></trkpt><trkpt lat="42.60058078273283" lon="13.551061228416525"><ele>1034.0</ele><time>2026-04-18T09:16:25.999Z</time></trkpt><trkpt lat="42.60059600917973" lon="13.550919396355846"><ele>1034.0</ele><time>2026-04-18T09:16:26.999Z</time></trkpt><trkpt lat="42.60057690324578" lon="13.550815217539364"><ele>1033.8</ele><time>2026-04-18T09:16:27.999Z</time></trkpt><trkpt lat="42.600549990225474" lon="13.550647094423994"><ele>1033.6000000000001</ele><time>2026-04-18T09:16:28.999Z</time></trkpt><trkpt lat="42.60051368496664" lon="13.550502618788087"><ele>1033.4</ele><time>2026-04-18T09:16:29.999Z</time></trkpt><trkpt lat="42.60051132774169" lon="13.550414579372463"><ele>1033.2</ele><time>2026-04-18T09:16:30.999Z</time></trkpt><trkpt lat="42.60055346920464" lon="13.550319631788328"><ele>1033.0</ele><time>2026-04-18T09:16:33.999Z</time></trkpt><trkpt lat="42.6005879150901" lon="13.550227414027937"><ele>1033.8</ele><time>2026-04-18T09:16:35.999Z</time></trkpt><trkpt lat="42.60054973702588" lon="13.550082607037602"><ele>1034.6</ele><time>2026-04-18T09:16:37.999Z</time></trkpt><trkpt lat="42.600558906208924" lon="13.54997921018206"><ele>1035.4</ele><time>2026-04-18T09:16:39.999Z</time></trkpt><trkpt lat="42.600633850372326" lon="13.549843626613761"><ele>1036.2</ele><time>2026-04-18T09:16:41.999Z</time></trkpt><trkpt lat="42.60067120908754" lon="13.549756440780948"><ele>1037.0</ele><time>2026-04-18T09:16:42.999Z</time></trkpt><trkpt lat="42.60061613350183" lon="13.549702939611011"><ele>1037.0</ele><time>2026-04-18T09:16:45Z</time></trkpt><trkpt lat="42.60064293045762" lon="13.549565979524536"><ele>1037.0</ele><time>2026-04-18T09:16:48Z</time></trkpt><trkpt lat="42.600722015746534" lon="13.549464528251685"><ele>1037.0</ele><time>2026-04-18T09:16:50Z</time></trkpt><trkpt lat="42.600766250738666" lon="13.549297878019189"><ele>1037.0</ele><time>2026-04-18T09:16:52Z</time></trkpt><trkpt lat="42.60083921882192" lon="13.549174904682037"><ele>1038.6</ele><time>2026-04-18T09:16:54Z</time></trkpt><trkpt lat="42.6008952325238" lon="13.549045518613969"><ele>1040.2</ele><time>2026-04-18T09:16:56Z</time></trkpt><trkpt lat="42.60099682335312" lon="13.548969189625286"><ele>1041.8</ele><time>2026-04-18T09:16:58Z</time></trkpt><trkpt lat="42.601053278565814" lon="13.548924969944084"><ele>1043.4</ele><time>2026-04-18T09:17:00Z</time></trkpt><trkpt lat="42.60113597063757" lon="13.548763133752916"><ele>1045.0</ele><time>2026-04-18T09:17:02Z</time></trkpt><trkpt lat="42.60113394494429" lon="13.548627772097051"><ele>1047.5</ele><time>2026-04-18T09:17:04Z</time></trkpt><trkpt lat="42.60111629269238" lon="13.548504412441542"><ele>1050.0</ele><time>2026-04-18T09:17:05Z</time></trkpt><trkpt lat="42.60116195210209" lon="13.548294474967944"><ele>1052.5</ele><time>2026-04-18T09:17:07Z</time></trkpt><trkpt lat="42.601170571125124" lon="13.548139231176764"><ele>1055.0</ele><time>2026-04-18T09:17:09Z</time></trkpt><trkpt lat="42.601215642981195" lon="13.548009264749036"><ele>1051.0</ele><time>2026-04-18T09:17:11Z</time></trkpt><trkpt lat="42.60118660773169" lon="13.547919489057236"><ele>1047.0</ele><time>2026-04-18T09:17:13Z</time></trkpt><trkpt lat="42.601196425549205" lon="13.547813131751079"><ele>1043.0</ele><time>2026-04-18T09:17:15Z</time></trkpt><trkpt lat="42.60125306963797" lon="13.547730630572802"><ele>1039.0</ele><time>2026-04-18T09:17:17Z</time></trkpt><trkpt lat="42.60131047491311" lon="13.547648040896988"><ele>1035.0</ele><time>2026-04-18T09:17:19Z</time></trkpt><trkpt lat="42.60137415785349" lon="13.547559598302845"><ele>1031.0</ele><time>2026-04-18T09:17:23Z</time></trkpt><trkpt lat="42.60141408874656" lon="13.547482496611167"><ele>1031.0</ele><time>2026-04-18T09:17:31Z</time></trkpt><trkpt lat="42.601435473502484" lon="13.547365239538523"><ele>1031.0</ele><time>2026-04-18T09:17:33Z</time></trkpt><trkpt lat="42.60145659750945" lon="13.54724826277692"><ele>1031.0</ele><time>2026-04-18T09:17:35Z</time></trkpt><trkpt lat="42.60149502474831" lon="13.547149174988771"><ele>1031.0</ele><time>2026-04-18T09:17:38Z</time></trkpt><trkpt lat="42.60152818065777" lon="13.547054689240525"><ele>1031.0</ele><time>2026-04-18T09:17:40Z</time></trkpt><trkpt lat="42.60158191155353" lon="13.546919435600955"><ele>1031.8333333333335</ele><time>2026-04-18T09:17:42Z</time></trkpt><trkpt lat="42.60167996853504" lon="13.546863455578004"><ele>1032.6666666666667</ele><time>2026-04-18T09:17:44Z</time></trkpt><trkpt lat="42.601743700530555" lon="13.546848132908314"><ele>1033.5</ele><time>2026-04-18T09:17:45Z</time></trkpt><trkpt lat="42.601841987735895" lon="13.546860012338296"><ele>1034.3333333333333</ele><time>2026-04-18T09:17:47Z</time></trkpt><trkpt lat="42.601938781493715" lon="13.546868135366761"><ele>1035.1666666666665</ele><time>2026-04-18T09:17:49Z</time></trkpt><trkpt lat="42.60199107655461" lon="13.546814313633828"><ele>1036.0</ele><time>2026-04-18T09:17:50Z</time></trkpt><trkpt lat="42.6020623550931" lon="13.54681162172966"><ele>1036.0</ele><time>2026-04-18T09:17:51Z</time></trkpt><trkpt lat="42.602201169510145" lon="13.546760794899628"><ele>1036.0</ele><time>2026-04-18T09:17:53Z</time></trkpt><trkpt lat="42.60226453092724" lon="13.546737501998619"><ele>1036.0</ele><time>2026-04-18T09:17:54Z</time></trkpt><trkpt lat="42.602330599896284" lon="13.546693052242453"><ele>1036.0</ele><time>2026-04-18T09:17:56Z</time></trkpt><trkpt lat="42.6024265794125" lon="13.546705602963181"><ele>1036.0</ele><time>2026-04-18T09:17:59Z</time></trkpt><trkpt lat="42.60250994391233" lon="13.546724207116812"><ele>1036.0</ele><time>2026-04-18T09:18:01Z</time></trkpt><trkpt lat="42.60261800565106" lon="13.546669439956581"><ele>1036.0</ele><time>2026-04-18T09:18:02Z</time></trkpt><trkpt lat="42.602719821608744" lon="13.546666984222005"><ele>1036.0</ele><time>2026-04-18T09:18:03.999Z</time></trkpt><trkpt lat="42.60278543066246" lon="13.546697137771067"><ele>1036.0</ele><time>2026-04-18T09:18:06.999Z</time></trkpt><trkpt lat="42.60286405032596" lon="13.54667778777096"><ele>1036.0</ele><time>2026-04-18T09:18:16.999Z</time></trkpt><trkpt lat="42.60294255677229" lon="13.546716438403852"><ele>1037.6</ele><time>2026-04-18T09:18:19.999Z</time></trkpt><trkpt lat="42.603049955778296" lon="13.546813001531602"><ele>1039.1999999999998</ele><time>2026-04-18T09:18:21.999Z</time></trkpt><trkpt lat="42.60312951301917" lon="13.546876700409538"><ele>1040.8000000000002</ele><time>2026-04-18T09:18:22.999Z</time></trkpt><trkpt lat="42.603212496953475" lon="13.546950847745396"><ele>1042.4</ele><time>2026-04-18T09:18:23.999Z</time></trkpt><trkpt lat="42.60330117920109" lon="13.547036925480823"><ele>1044.0</ele><time>2026-04-18T09:18:24.999Z</time></trkpt><trkpt lat="42.603408338436346" lon="13.547055456474668"><ele>1038.8</ele><time>2026-04-18T09:18:25.999Z</time></trkpt><trkpt lat="42.603483634750724" lon="13.547094328645391"><ele>1033.6000000000001</ele><time>2026-04-18T09:18:26.999Z</time></trkpt><trkpt lat="42.60357552703793" lon="13.54716407147906"><ele>1028.4</ele><time>2026-04-18T09:18:28.999Z</time></trkpt><trkpt lat="42.60364707393745" lon="13.54718342194907"><ele>1023.2</ele><time>2026-04-18T09:18:29.999Z</time></trkpt><trkpt lat="42.60370784309797" lon="13.547135851756906"><ele>1018.0</ele><time>2026-04-18T09:18:30.999Z</time></trkpt><trkpt lat="42.60385318854013" lon="13.5471060676293"><ele>1017.9999999999999</ele><time>2026-04-18T09:18:32.999Z</time></trkpt><trkpt lat="42.60394589852746" lon="13.547089731744304"><ele>1018.0</ele><time>2026-04-18T09:18:33.999Z</time></trkpt><trkpt lat="42.60404145769996" lon="13.547060885459448"><ele>1018.0</ele><time>2026-04-18T09:18:34.999Z</time></trkpt><trkpt lat="42.60414052698932" lon="13.547042686563984"><ele>1018.0</ele><time>2026-04-18T09:18:35.999Z</time></trkpt><trkpt lat="42.604209115322334" lon="13.547049448237908"><ele>1017.9999999999999</ele><time>2026-04-18T09:18:36.999Z</time></trkpt><trkpt lat="42.60429467423438" lon="13.547045272959775"><ele>1018.0</ele><time>2026-04-18T09:18:37.999Z</time></trkpt><trkpt lat="42.60440868826461" lon="13.547056249360903"><ele>1019.75</ele><time>2026-04-18T09:18:38.999Z</time></trkpt><trkpt lat="42.60451749946724" lon="13.547114083837204"><ele>1021.5</ele><time>2026-04-18T09:18:39.999Z</time></trkpt><trkpt lat="42.60464100606595" lon="13.547196493486151"><ele>1023.25</ele><time>2026-04-18T09:18:40.999Z</time></trkpt><trkpt lat="42.60476998964018" lon="13.547261594187175"><ele>1025.0</ele><time>2026-04-18T09:18:41.999Z</time></trkpt><trkpt lat="42.604859835230776" lon="13.547338446183048"><ele>1025.0</ele><time>2026-04-18T09:18:42.999Z</time></trkpt><trkpt lat="42.6048972591409" lon="13.547500369327665"><ele>1025.0</ele><time>2026-04-18T09:18:43.999Z</time></trkpt><trkpt lat="42.60498363264533" lon="13.547628334282754"><ele>1025.0</ele><time>2026-04-18T09:18:44.999Z</time></trkpt><trkpt lat="42.605059461071065" lon="13.547740746043358"><ele>1025.0</ele><time>2026-04-18T09:18:45.999Z</time></trkpt><trkpt lat="42.605131370407506" lon="13.547805573448796"><ele>1025.0</ele><time>2026-04-18T09:18:47.999Z</time></trkpt><trkpt lat="42.60519657856765" lon="13.547853984210402"><ele>1025.0</ele><time>2026-04-18T09:18:48.999Z</time></trkpt><trkpt lat="42.60532577990063" lon="13.547812342223105"><ele>1025.0</ele><time>2026-04-18T09:18:51Z</time></trkpt><trkpt lat="42.60540461523977" lon="13.547719921755581"><ele>1025.0</ele><time>2026-04-18T09:18:52Z</time></trkpt><trkpt lat="42.605475007519" lon="13.547616245065113"><ele>1025.0</ele><time>2026-04-18T09:18:53Z</time></trkpt><trkpt lat="42.60555237659004" lon="13.547518478862958"><ele>1023.8</ele><time>2026-04-18T09:18:54Z</time></trkpt><trkpt lat="42.605595340822724" lon="13.547437319503599"><ele>1022.6</ele><time>2026-04-18T09:18:55Z</time></trkpt><trkpt lat="42.605644345431784" lon="13.547333930794853"><ele>1021.4000000000001</ele><time>2026-04-18T09:18:56Z</time></trkpt><trkpt lat="42.60574889801783" lon="13.54724942819977"><ele>1020.2</ele><time>2026-04-18T09:18:57Z</time></trkpt><trkpt lat="42.60581948266922" lon="13.54714344758361"><ele>1019.0</ele><time>2026-04-18T09:18:58Z</time></trkpt><trkpt lat="42.605901103444864" lon="13.546954244319398"><ele>1019.0</ele><time>2026-04-18T09:19:00Z</time></trkpt><trkpt lat="42.6059251761308" lon="13.54683118619469"><ele>1019.0000000000001</ele><time>2026-04-18T09:19:01Z</time></trkpt><trkpt lat="42.60599330161817" lon="13.546752460912101"><ele>1019.0000000000001</ele><time>2026-04-18T09:19:02Z</time></trkpt><trkpt lat="42.60605219416084" lon="13.546660559727798"><ele>1019.0</ele><time>2026-04-18T09:19:03Z</time></trkpt><trkpt lat="42.606059831502144" lon="13.546477697170266"><ele>1019.0</ele><time>2026-04-18T09:19:05Z</time></trkpt><trkpt lat="42.60607781883125" lon="13.5462923338924"><ele>1017.4000000000001</ele><time>2026-04-18T09:19:06Z</time></trkpt><trkpt lat="42.60611357875129" lon="13.546145814595983"><ele>1015.8000000000001</ele><time>2026-04-18T09:19:07Z</time></trkpt><trkpt lat="42.606092155239615" lon="13.546002371931003"><ele>1014.1999999999999</ele><time>2026-04-18T09:19:08Z</time></trkpt><trkpt lat="42.606080336539236" lon="13.545865547286354"><ele>1012.5999999999999</ele><time>2026-04-18T09:19:09Z</time></trkpt><trkpt lat="42.606107349479394" lon="13.5457399999713"><ele>1011.0</ele><time>2026-04-18T09:19:10Z</time></trkpt><trkpt lat="42.60612932234066" lon="13.545657301244638"><ele>1011.0</ele><time>2026-04-18T09:19:11Z</time></trkpt><trkpt lat="42.606152138432755" lon="13.5454883322831"><ele>1010.9999999999999</ele><time>2026-04-18T09:19:13Z</time></trkpt><trkpt lat="42.60620465222542" lon="13.545431675143634"><ele>1010.9999999999999</ele><time>2026-04-18T09:19:14Z</time></trkpt><trkpt lat="42.60628726069644" lon="13.545352676813245"><ele>1011.0</ele><time>2026-04-18T09:19:16Z</time></trkpt><trkpt lat="42.60640114220451" lon="13.545418008258963"><ele>1011.0</ele><time>2026-04-18T09:19:18Z</time></trkpt><trkpt lat="42.60649149514056" lon="13.545544113738744"><ele>1005.8</ele><time>2026-04-18T09:19:20Z</time></trkpt><trkpt lat="42.60661760714015" lon="13.54550617359559"><ele>1000.5999999999999</ele><time>2026-04-18T09:19:22Z</time></trkpt><trkpt lat="42.60670915346292" lon="13.545435420089628"><ele>995.4</ele><time>2026-04-18T09:19:23Z</time></trkpt><trkpt lat="42.60677364658629" lon="13.545365142101822"><ele>990.2</ele><time>2026-04-18T09:19:24Z</time></trkpt><trkpt lat="42.606799817836865" lon="13.545265649780585"><ele>985.0</ele><time>2026-04-18T09:19:25Z</time></trkpt><trkpt lat="42.606814931043324" lon="13.54515418401654"><ele>983.8</ele><time>2026-04-18T09:19:26Z</time></trkpt><trkpt lat="42.60686989258417" lon="13.545047220582145"><ele>982.6</ele><time>2026-04-18T09:19:27Z</time></trkpt><trkpt lat="42.60693599134076" lon="13.544919105732527"><ele>981.4000000000001</ele><time>2026-04-18T09:19:28Z</time></trkpt><trkpt lat="42.60701408290325" lon="13.544811841657111"><ele>980.2</ele><time>2026-04-18T09:19:29Z</time></trkpt><trkpt lat="42.60712916530219" lon="13.54476277593131"><ele>979.0</ele><time>2026-04-18T09:19:30Z</time></trkpt><trkpt lat="42.60721554866452" lon="13.544738917978638"><ele>977.0</ele><time>2026-04-18T09:19:31Z</time></trkpt><trkpt lat="42.607316590103586" lon="13.544759353037719"><ele>975.0000000000001</ele><time>2026-04-18T09:19:32Z</time></trkpt><trkpt lat="42.6074082824461" lon="13.544799707732611"><ele>973.0000000000001</ele><time>2026-04-18T09:19:33Z</time></trkpt><trkpt lat="42.60753089983748" lon="13.544814284502268"><ele>971.0</ele><time>2026-04-18T09:19:34Z</time></trkpt><trkpt lat="42.60765787383604" lon="13.544800047687184"><ele>969.0</ele><time>2026-04-18T09:19:35Z</time></trkpt><trkpt lat="42.60776916003469" lon="13.544799175830287"><ele>966.8333333333334</ele><time>2026-04-18T09:19:36Z</time></trkpt><trkpt lat="42.60783605766849" lon="13.544754570165628"><ele>964.6666666666667</ele><time>2026-04-18T09:19:38Z</time></trkpt><trkpt lat="42.607903010898205" lon="13.544782416272223"><ele>962.5</ele><time>2026-04-18T09:19:42Z</time></trkpt><trkpt lat="42.60798826999311" lon="13.544726091833114"><ele>960.3333333333334</ele><time>2026-04-18T09:19:44Z</time></trkpt><trkpt lat="42.60806973246656" lon="13.544718406567151"><ele>958.1666666666667</ele><time>2026-04-18T09:19:51Z</time></trkpt><trkpt lat="42.60813785041605" lon="13.544684061849981"><ele>956.0</ele><time>2026-04-18T09:19:54Z</time></trkpt><trkpt lat="42.60823811420131" lon="13.544691282518853"><ele>956.0</ele><time>2026-04-18T09:19:57Z</time></trkpt><trkpt lat="42.60829917411735" lon="13.544712735908838"><ele>955.9999999999999</ele><time>2026-04-18T09:19:58Z</time></trkpt><trkpt lat="42.6084043573327" lon="13.544787861712855"><ele>955.9999999999999</ele><time>2026-04-18T09:20:00Z</time></trkpt><trkpt lat="42.608502546335735" lon="13.544890927012633"><ele>956.0</ele><time>2026-04-18T09:20:02Z</time></trkpt><trkpt lat="42.60855145154026" lon="13.54495144141525"><ele>956.0</ele><time>2026-04-18T09:20:03Z</time></trkpt><trkpt lat="42.60864123326245" lon="13.544978471082938"><ele>953.8333333333334</ele><time>2026-04-18T09:20:05Z</time></trkpt><trkpt lat="42.60875362278678" lon="13.544959578025205"><ele>951.6666666666667</ele><time>2026-04-18T09:20:07Z</time></trkpt><trkpt lat="42.60881887594341" lon="13.544944918184372"><ele>949.5</ele><time>2026-04-18T09:20:08Z</time></trkpt><trkpt lat="42.60889991493381" lon="13.54491383498751"><ele>947.3333333333333</ele><time>2026-04-18T09:20:08.999Z</time></trkpt><trkpt lat="42.6089796292012" lon="13.544892559175677"><ele>945.1666666666666</ele><time>2026-04-18T09:20:09.999Z</time></trkpt><trkpt lat="42.609059584015164" lon="13.544848952405676"><ele>943.0</ele><time>2026-04-18T09:20:10.999Z</time></trkpt><trkpt lat="42.6091222932993" lon="13.544814783852438"><ele>943.0</ele><time>2026-04-18T09:20:11.999Z</time></trkpt><trkpt lat="42.60920536812291" lon="13.54477334032531"><ele>943.0</ele><time>2026-04-18T09:20:12.999Z</time></trkpt><trkpt lat="42.60927644081761" lon="13.54470094888849"><ele>943.0</ele><time>2026-04-18T09:20:13.999Z</time></trkpt><trkpt lat="42.60934817207563" lon="13.544648596595582"><ele>943.0</ele><time>2026-04-18T09:20:14.999Z</time></trkpt><trkpt lat="42.60941987782029" lon="13.5445934459858"><ele>943.0</ele><time>2026-04-18T09:20:15.999Z</time></trkpt><trkpt lat="42.60956233571462" lon="13.544595035607832"><ele>940.4999999999999</ele><time>2026-04-18T09:20:17.999Z</time></trkpt><trkpt lat="42.609645598143814" lon="13.5446044850078"><ele>938.0</ele><time>2026-04-18T09:20:18.999Z</time></trkpt><trkpt lat="42.60972076592545" lon="13.544632002507742"><ele>935.5</ele><time>2026-04-18T09:20:19.999Z</time></trkpt><trkpt lat="42.609778972086126" lon="13.54469104168321"><ele>933.0</ele><time>2026-04-18T09:20:21.999Z</time></trkpt><trkpt lat="42.60985454579145" lon="13.544721736940694"><ele>930.4999999999999</ele><time>2026-04-18T09:20:23.999Z</time></trkpt><trkpt lat="42.60992226928931" lon="13.544700836069646"><ele>928.0</ele><time>2026-04-18T09:20:25.999Z</time></trkpt><trkpt lat="42.609972894558744" lon="13.544626725867499"><ele>927.9999999999999</ele><time>2026-04-18T09:20:28.999Z</time></trkpt><trkpt lat="42.610040422176375" lon="13.544658651611389"><ele>928.0</ele><time>2026-04-18T09:20:30.999Z</time></trkpt><trkpt lat="42.61014760336394" lon="13.544701887383017"><ele>928.0</ele><time>2026-04-18T09:20:33.999Z</time></trkpt><trkpt lat="42.610240115058744" lon="13.544688531088342"><ele>928.0</ele><time>2026-04-18T09:20:35.999Z</time></trkpt><trkpt lat="42.610301636944065" lon="13.544708628391623"><ele>927.9999999999999</ele><time>2026-04-18T09:22:27.999Z</time></trkpt><trkpt lat="42.610202828564404" lon="13.544693275460423"><ele>928.0</ele><time>2026-04-18T09:22:32.999Z</time></trkpt><trkpt lat="42.61013632799562" lon="13.544705548563096"><ele>928.0000000000001</ele><time>2026-04-18T09:22:34.999Z</time></trkpt><trkpt lat="42.61005605745287" lon="13.544683756511024"><ele>928.0</ele><time>2026-04-18T09:22:36.999Z</time></trkpt><trkpt lat="42.609984071957065" lon="13.544661385829674"><ele>928.0000000000001</ele><time>2026-04-18T09:22:38.999Z</time></trkpt><trkpt lat="42.60991389957293" lon="13.544694024457176"><ele>928.0000000000001</ele><time>2026-04-18T09:22:41.999Z</time></trkpt><trkpt lat="42.60992227510008" lon="13.544599421301243"><ele>928.0</ele><time>2026-04-18T09:22:45.999Z</time></trkpt><trkpt lat="42.60986943897698" lon="13.544660367926369"><ele>928.0000000000001</ele><time>2026-04-18T09:23:30Z</time></trkpt><trkpt lat="42.60985760578938" lon="13.544559057137059"><ele>928.0000000000001</ele><time>2026-04-18T09:23:35Z</time></trkpt><trkpt lat="42.60985201778146" lon="13.544461477337489"><ele>927.6666666666666</ele><time>2026-04-18T09:23:38Z</time></trkpt><trkpt lat="42.60981702983381" lon="13.54437045557319"><ele>927.3333333333333</ele><time>2026-04-18T09:23:40Z</time></trkpt><trkpt lat="42.609777732594715" lon="13.544294951015194"><ele>927.0</ele><time>2026-04-18T09:23:42Z</time></trkpt><trkpt lat="42.60972481377177" lon="13.544202649693231"><ele>926.6666666666667</ele><time>2026-04-18T09:24:15.999Z</time></trkpt><trkpt lat="42.60968266249101" lon="13.54404350572798"><ele>926.3333333333334</ele><time>2026-04-18T09:24:17.999Z</time></trkpt><trkpt lat="42.609654098777945" lon="13.543947912212777"><ele>926.0</ele><time>2026-04-18T09:24:18.999Z</time></trkpt><trkpt lat="42.609575947179536" lon="13.543801693606788"><ele>926.4</ele><time>2026-04-18T09:24:20.999Z</time></trkpt><trkpt lat="42.60951196288769" lon="13.543677536914267"><ele>926.8</ele><time>2026-04-18T09:24:22.999Z</time></trkpt><trkpt lat="42.60948070623982" lon="13.543602778039125"><ele>927.1999999999999</ele><time>2026-04-18T09:24:23.999Z</time></trkpt><trkpt lat="42.60941764658438" lon="13.543479006507948"><ele>927.5999999999999</ele><time>2026-04-18T09:24:25.999Z</time></trkpt><trkpt lat="42.60934288249768" lon="13.543372058243818"><ele>928.0</ele><time>2026-04-18T09:24:27.999Z</time></trkpt><trkpt lat="42.60928169054354" lon="13.543306333149173"><ele>928.0</ele><time>2026-04-18T09:24:28.999Z</time></trkpt><trkpt lat="42.60919274664978" lon="13.543204528478597"><ele>928.0</ele><time>2026-04-18T09:24:29.999Z</time></trkpt><trkpt lat="42.60911596973484" lon="13.543117547653095"><ele>928.0</ele><time>2026-04-18T09:24:30.999Z</time></trkpt><trkpt lat="42.6090626544737" lon="13.54305537301881"><ele>928.0</ele><time>2026-04-18T09:24:31.999Z</time></trkpt><trkpt lat="42.60899654126519" lon="13.54296820643945"><ele>928.0</ele><time>2026-04-18T09:24:32.999Z</time></trkpt><trkpt lat="42.60887858804557" lon="13.542889619671941"><ele>924.4</ele><time>2026-04-18T09:24:34.999Z</time></trkpt><trkpt lat="42.60880077597029" lon="13.542840185378312"><ele>920.8</ele><time>2026-04-18T09:24:35.999Z</time></trkpt><trkpt lat="42.60867926762385" lon="13.5427673015809"><ele>917.2</ele><time>2026-04-18T09:24:36.999Z</time></trkpt><trkpt lat="42.60861839320984" lon="13.542704586792793"><ele>913.6</ele><time>2026-04-18T09:24:37.999Z</time></trkpt><trkpt lat="42.60855845087414" lon="13.542661549037796"><ele>910.0</ele><time>2026-04-18T09:24:38.999Z</time></trkpt><trkpt lat="42.60844781221776" lon="13.542658472921548"><ele>910.0</ele><time>2026-04-18T09:24:40.999Z</time></trkpt><trkpt lat="42.6083355036862" lon="13.542651669863597"><ele>910.0</ele><time>2026-04-18T09:24:41.999Z</time></trkpt><trkpt lat="42.60822656024287" lon="13.542628047913514"><ele>910.0</ele><time>2026-04-18T09:24:42.999Z</time></trkpt><trkpt lat="42.60812002578295" lon="13.542618017791478"><ele>910.0</ele><time>2026-04-18T09:24:43.999Z</time></trkpt><trkpt lat="42.60801676388623" lon="13.542597553607006"><ele>910.0</ele><time>2026-04-18T09:24:44.999Z</time></trkpt><trkpt lat="42.60793965680251" lon="13.542610780394837"><ele>910.0</ele><time>2026-04-18T09:24:45.999Z</time></trkpt><trkpt lat="42.607841995015036" lon="13.542605813102606"><ele>910.0</ele><time>2026-04-18T09:24:46.999Z</time></trkpt><trkpt lat="42.60776468636091" lon="13.54260595778119"><ele>910.0</ele><time>2026-04-18T09:24:47.999Z</time></trkpt><trkpt lat="42.607679956842404" lon="13.542595492640725"><ele>910.0</ele><time>2026-04-18T09:24:48.999Z</time></trkpt><trkpt lat="42.607580676965405" lon="13.542585480805023"><ele>910.0</ele><time>2026-04-18T09:24:49.999Z</time></trkpt><trkpt lat="42.60747559348688" lon="13.542599052490509"><ele>911.6</ele><time>2026-04-18T09:24:50.999Z</time></trkpt><trkpt lat="42.607394712665005" lon="13.542540498789926"><ele>913.2</ele><time>2026-04-18T09:24:51.999Z</time></trkpt><trkpt lat="42.60731623410037" lon="13.542507715077214"><ele>914.8</ele><time>2026-04-18T09:24:52.999Z</time></trkpt><trkpt lat="42.607223737916804" lon="13.542498162168908"><ele>916.4</ele><time>2026-04-18T09:24:53.999Z</time></trkpt><trkpt lat="42.60711067310147" lon="13.542487906608807"><ele>918.0</ele><time>2026-04-18T09:24:54.999Z</time></trkpt><trkpt lat="42.607025930385454" lon="13.542475781795964"><ele>919.0</ele><time>2026-04-18T09:24:55.999Z</time></trkpt><trkpt lat="42.60695782582015" lon="13.542485732631228"><ele>920.0</ele><time>2026-04-18T09:24:56.999Z</time></trkpt><trkpt lat="42.606884690470764" lon="13.54252986628148"><ele>921.0</ele><time>2026-04-18T09:25:01.999Z</time></trkpt><trkpt lat="42.60681045554066" lon="13.54254422144514"><ele>922.0</ele><time>2026-04-18T09:25:03.999Z</time></trkpt><trkpt lat="42.60682919321002" lon="13.542447197699666"><ele>923.0</ele><time>2026-04-18T09:25:06.999Z</time></trkpt><trkpt lat="42.60688725359329" lon="13.542351492651564"><ele>924.0</ele><time>2026-04-18T09:25:09Z</time></trkpt><trkpt lat="42.6069625788011" lon="13.542270671718644"><ele>923.1428571428571</ele><time>2026-04-18T09:25:11Z</time></trkpt><trkpt lat="42.60702124529061" lon="13.5422039568153"><ele>922.2857142857142</ele><time>2026-04-18T09:25:12Z</time></trkpt><trkpt lat="42.60707664045192" lon="13.542142424644684"><ele>921.4285714285714</ele><time>2026-04-18T09:25:13Z</time></trkpt><trkpt lat="42.60713914547485" lon="13.542078122353539"><ele>920.5714285714286</ele><time>2026-04-18T09:25:14Z</time></trkpt><trkpt lat="42.60719332407113" lon="13.542012085786064"><ele>919.7142857142857</ele><time>2026-04-18T09:25:15Z</time></trkpt><trkpt lat="42.60725723087528" lon="13.541962343764126"><ele>918.8571428571429</ele><time>2026-04-18T09:25:16Z</time></trkpt><trkpt lat="42.60728580465069" lon="13.541870327386281"><ele>918.0</ele><time>2026-04-18T09:25:17Z</time></trkpt><trkpt lat="42.60732106167586" lon="13.541785572746496"><ele>917.5999999999999</ele><time>2026-04-18T09:25:18Z</time></trkpt><trkpt lat="42.60735143326892" lon="13.541676135254056"><ele>917.1999999999999</ele><time>2026-04-18T09:25:19Z</time></trkpt><trkpt lat="42.60739393669549" lon="13.541556447742447"><ele>916.8</ele><time>2026-04-18T09:25:20Z</time></trkpt><trkpt lat="42.60741120084022" lon="13.541453607623705"><ele>916.4</ele><time>2026-04-18T09:25:21Z</time></trkpt><trkpt lat="42.60742332666962" lon="13.54136553110071"><ele>916.0</ele><time>2026-04-18T09:25:22Z</time></trkpt><trkpt lat="42.60746559168875" lon="13.541186548676245"><ele>917.6666666666666</ele><time>2026-04-18T09:25:24Z</time></trkpt><trkpt lat="42.60750309253602" lon="13.54111766953976"><ele>919.3333333333333</ele><time>2026-04-18T09:25:25Z</time></trkpt><trkpt lat="42.60756781059194" lon="13.54103251464683"><ele>921.0</ele><time>2026-04-18T09:25:27Z</time></trkpt><trkpt lat="42.60761728996834" lon="13.54096605808929"><ele>922.6666666666667</ele><time>2026-04-18T09:25:28Z</time></trkpt><trkpt lat="42.60767372936226" lon="13.540877756564793"><ele>924.3333333333334</ele><time>2026-04-18T09:25:29Z</time></trkpt><trkpt lat="42.60774124798887" lon="13.5407800792422"><ele>926.0</ele><time>2026-04-18T09:25:30Z</time></trkpt><trkpt lat="42.60778506225253" lon="13.540708835374167"><ele>923.3333333333334</ele><time>2026-04-18T09:25:31Z</time></trkpt><trkpt lat="42.60784331551536" lon="13.540628036741117"><ele>920.6666666666667</ele><time>2026-04-18T09:25:33Z</time></trkpt><trkpt lat="42.60790051932701" lon="13.540551820275901"><ele>918.0</ele><time>2026-04-18T09:25:35Z</time></trkpt><trkpt lat="42.60792994927581" lon="13.54043604034223"><ele>915.3333333333333</ele><time>2026-04-18T09:25:37Z</time></trkpt><trkpt lat="42.60798236178562" lon="13.540374751920151"><ele>912.6666666666666</ele><time>2026-04-18T09:25:38Z</time></trkpt><trkpt lat="42.60804841010767" lon="13.540282614934915"><ele>910.0</ele><time>2026-04-18T09:25:40Z</time></trkpt><trkpt lat="42.608096728672024" lon="13.540346473386188"><ele>909.9999999999999</ele><time>2026-04-18T09:26:16Z</time></trkpt><trkpt lat="42.6081587348727" lon="13.54032438420036"><ele>910.0</ele><time>2026-04-18T09:26:18Z</time></trkpt><trkpt lat="42.60818651743397" lon="13.540225785641715"><ele>910.0</ele><time>2026-04-18T09:26:19.999Z</time></trkpt><trkpt lat="42.60824540332107" lon="13.540159187196812"><ele>910.0</ele><time>2026-04-18T09:26:22.999Z</time></trkpt><trkpt lat="42.608357607885914" lon="13.540169400098545"><ele>909.9999999999999</ele><time>2026-04-18T09:26:24.999Z</time></trkpt><trkpt lat="42.60842390029039" lon="13.540059148014597"><ele>910.0</ele><time>2026-04-18T09:26:26.999Z</time></trkpt><trkpt lat="42.60846657080664" lon="13.539989966624999"><ele>910.0</ele><time>2026-04-18T09:26:27.999Z</time></trkpt><trkpt lat="42.608549558471054" lon="13.539871902167558"><ele>910.0</ele><time>2026-04-18T09:26:29.999Z</time></trkpt><trkpt lat="42.6086015437305" lon="13.539777282686684"><ele>910.0</ele><time>2026-04-18T09:26:31.999Z</time></trkpt><trkpt lat="42.60862899726932" lon="13.539623491206939"><ele>910.0</ele><time>2026-04-18T09:26:33.999Z</time></trkpt><trkpt lat="42.608675529964124" lon="13.539471938343405"><ele>910.0</ele><time>2026-04-18T09:26:35.999Z</time></trkpt><trkpt lat="42.60868855238259" lon="13.539306790263636"><ele>911.0</ele><time>2026-04-18T09:26:37.999Z</time></trkpt><trkpt lat="42.608690227554035" lon="13.539146609790297"><ele>912.0</ele><time>2026-04-18T09:26:39.999Z</time></trkpt><trkpt lat="42.60868688419238" lon="13.53900860531082"><ele>913.0</ele><time>2026-04-18T09:26:41.999Z</time></trkpt><trkpt lat="42.608671974273214" lon="13.53888100826108"><ele>914.0</ele><time>2026-04-18T09:26:43.999Z</time></trkpt><trkpt lat="42.6086428387612" lon="13.538795107232334"><ele>915.0</ele><time>2026-04-18T09:26:44.999Z</time></trkpt><trkpt lat="42.608663217514916" lon="13.538702885025513"><ele>908.6666666666666</ele><time>2026-04-18T09:26:45.999Z</time></trkpt><trkpt lat="42.60869559826738" lon="13.538600787006652"><ele>902.3333333333333</ele><time>2026-04-18T09:26:46.999Z</time></trkpt><trkpt lat="42.60872069901436" lon="13.53851670787498"><ele>896.0</ele><time>2026-04-18T09:26:47.999Z</time></trkpt><trkpt lat="42.60872445937617" lon="13.538363208263403"><ele>889.6666666666666</ele><time>2026-04-18T09:26:49.999Z</time></trkpt><trkpt lat="42.60871764240122" lon="13.538250588414579"><ele>883.3333333333333</ele><time>2026-04-18T09:26:50.999Z</time></trkpt><trkpt lat="42.60871352824453" lon="13.538111248275461"><ele>877.0</ele><time>2026-04-18T09:26:51.999Z</time></trkpt><trkpt lat="42.60869453215859" lon="13.537972367511399"><ele>876.8</ele><time>2026-04-18T09:26:52.999Z</time></trkpt><trkpt lat="42.608674306293274" lon="13.53779154794217"><ele>876.6</ele><time>2026-04-18T09:26:53.999Z</time></trkpt><trkpt lat="42.60865198127864" lon="13.537650661340557"><ele>876.3999999999999</ele><time>2026-04-18T09:26:54.999Z</time></trkpt><trkpt lat="42.608644324507345" lon="13.537548032152836"><ele>876.1999999999999</ele><time>2026-04-18T09:26:55.999Z</time></trkpt><trkpt lat="42.60865542716586" lon="13.537445808072356"><ele>876.0</ele><time>2026-04-18T09:26:56.999Z</time></trkpt><trkpt lat="42.60869379478926" lon="13.53735390004516"><ele>876.0</ele><time>2026-04-18T09:26:57.999Z</time></trkpt><trkpt lat="42.60872999302406" lon="13.53726626085118"><ele>876.0</ele><time>2026-04-18T09:26:59.999Z</time></trkpt><trkpt lat="42.608759594030445" lon="13.537169542680466"><ele>876.0</ele><time>2026-04-18T09:27:01.999Z</time></trkpt><trkpt lat="42.60876141310679" lon="13.537035282170182"><ele>876.0</ele><time>2026-04-18T09:27:03.999Z</time></trkpt><trkpt lat="42.60882817584196" lon="13.536998998469103"><ele>876.0</ele><time>2026-04-18T09:27:06.999Z</time></trkpt><trkpt lat="42.608876410029886" lon="13.537076195559008"><ele>876.0</ele><time>2026-04-18T09:27:09.999Z</time></trkpt><trkpt lat="42.60892647793501" lon="13.537177896509949"><ele>876.0</ele><time>2026-04-18T09:27:11.999Z</time></trkpt><trkpt lat="42.60895774742468" lon="13.537304051392589"><ele>875.9999999999999</ele><time>2026-04-18T09:27:14Z</time></trkpt><trkpt lat="42.60901237037476" lon="13.537411521808766"><ele>875.9999999999999</ele><time>2026-04-18T09:27:16Z</time></trkpt><trkpt lat="42.60906808735018" lon="13.537501342266625"><ele>876.0</ele><time>2026-04-18T09:27:18Z</time></trkpt><trkpt lat="42.60913302505631" lon="13.53747587753048"><ele>876.0</ele><time>2026-04-18T09:27:20Z</time></trkpt><trkpt lat="42.609232293057154" lon="13.537394079311497"><ele>876.0</ele><time>2026-04-18T09:27:22Z</time></trkpt><trkpt lat="42.60927610132876" lon="13.537307083806574"><ele>876.0</ele><time>2026-04-18T09:27:24Z</time></trkpt><trkpt lat="42.60934437209991" lon="13.537217647891815"><ele>876.0</ele><time>2026-04-18T09:27:26Z</time></trkpt><trkpt lat="42.60943061855611" lon="13.537194338341132"><ele>876.0</ele><time>2026-04-18T09:27:28Z</time></trkpt><trkpt lat="42.6094923031068" lon="13.53713721186565"><ele>876.0</ele><time>2026-04-18T09:27:31Z</time></trkpt><trkpt lat="42.60950682612587" lon="13.537042326246235"><ele>876.0</ele><time>2026-04-18T09:27:34Z</time></trkpt><trkpt lat="42.609471921191165" lon="13.536966258455346"><ele>873.5999999999999</ele><time>2026-04-18T09:27:36Z</time></trkpt><trkpt lat="42.60938405655733" lon="13.536867973689883"><ele>871.1999999999999</ele><time>2026-04-18T09:27:38Z</time></trkpt><trkpt lat="42.609328157919265" lon="13.536746043899226"><ele>868.8000000000001</ele><time>2026-04-18T09:27:40Z</time></trkpt><trkpt lat="42.609295464481576" lon="13.536647845341355"><ele>866.4000000000001</ele><time>2026-04-18T09:27:41Z</time></trkpt><trkpt lat="42.60924316223269" lon="13.536515089233077"><ele>864.0</ele><time>2026-04-18T09:27:43Z</time></trkpt><trkpt lat="42.60924049320879" lon="13.53640058573693"><ele>864.0</ele><time>2026-04-18T09:27:45Z</time></trkpt><trkpt lat="42.60927286015855" lon="13.53625468580721"><ele>864.0</ele><time>2026-04-18T09:27:47Z</time></trkpt><trkpt lat="42.6092924180011" lon="13.536151983206981"><ele>864.0</ele><time>2026-04-18T09:27:49Z</time></trkpt><trkpt lat="42.6092362951407" lon="13.536093392151562"><ele>864.0</ele><time>2026-04-18T09:27:50Z</time></trkpt><trkpt lat="42.60918872014035" lon="13.53601882538667"><ele>864.0</ele><time>2026-04-18T09:27:51Z</time></trkpt><trkpt lat="42.60915696460814" lon="13.535943141197551"><ele>864.0</ele><time>2026-04-18T09:27:52Z</time></trkpt><trkpt lat="42.609167385349046" lon="13.535853533447861"><ele>860.2</ele><time>2026-04-18T09:27:53Z</time></trkpt><trkpt lat="42.60920184504625" lon="13.53572918511045"><ele>856.4000000000001</ele><time>2026-04-18T09:27:55Z</time></trkpt><trkpt lat="42.60909491039339" lon="13.535628698107066"><ele>852.6</ele><time>2026-04-18T09:27:57Z</time></trkpt><trkpt lat="42.60908411758961" lon="13.535497080375821"><ele>848.8</ele><time>2026-04-18T09:27:59Z</time></trkpt><trkpt lat="42.609115989009084" lon="13.535353389947376"><ele>845.0</ele><time>2026-04-18T09:28:01Z</time></trkpt><trkpt lat="42.60911674206662" lon="13.535240356137006"><ele>840.8</ele><time>2026-04-18T09:28:04Z</time></trkpt><trkpt lat="42.60908412821806" lon="13.535118439981959"><ele>836.6</ele><time>2026-04-18T09:28:06Z</time></trkpt><trkpt lat="42.60906298425313" lon="13.53502654489085"><ele>832.4000000000001</ele><time>2026-04-18T09:28:08Z</time></trkpt><trkpt lat="42.60909127782365" lon="13.534913439041587"><ele>828.2</ele><time>2026-04-18T09:28:10Z</time></trkpt><trkpt lat="42.60910965087228" lon="13.534796713920294"><ele>824.0</ele><time>2026-04-18T09:28:12Z</time></trkpt><trkpt lat="42.60906004069557" lon="13.53465960763275"><ele>824.0000000000001</ele><time>2026-04-18T09:28:15Z</time></trkpt><trkpt lat="42.6090248579655" lon="13.534586507685813"><ele>824.0</ele><time>2026-04-18T09:28:16Z</time></trkpt><trkpt lat="42.608995010144696" lon="13.534471171080094"><ele>824.0</ele><time>2026-04-18T09:28:18Z</time></trkpt><trkpt lat="42.608943342683816" lon="13.534355356479056"><ele>824.0</ele><time>2026-04-18T09:28:20Z</time></trkpt><trkpt lat="42.60895375994318" lon="13.534226981297133"><ele>824.0000000000001</ele><time>2026-04-18T09:28:22Z</time></trkpt><trkpt lat="42.60895867001365" lon="13.534127693772003"><ele>824.0</ele><time>2026-04-18T09:28:23Z</time></trkpt><trkpt lat="42.608938497470575" lon="13.53400769471228"><ele>820.5000000000001</ele><time>2026-04-18T09:28:26Z</time></trkpt><trkpt lat="42.60894452787105" lon="13.53389606825665"><ele>817.0</ele><time>2026-04-18T09:28:28Z</time></trkpt><trkpt lat="42.608935505550164" lon="13.533744704134973"><ele>813.5</ele><time>2026-04-18T09:28:30Z</time></trkpt><trkpt lat="42.60893894731834" lon="13.533634118529138"><ele>810.0</ele><time>2026-04-18T09:28:31.999Z</time></trkpt><trkpt lat="42.60893736422005" lon="13.53354691703681"><ele>806.5000000000001</ele><time>2026-04-18T09:28:33.999Z</time></trkpt><trkpt lat="42.60890359745499" lon="13.533434954047685"><ele>803.0</ele><time>2026-04-18T09:28:38.999Z</time></trkpt><trkpt lat="42.608898668251186" lon="13.533328160490605"><ele>800.5999999999999</ele><time>2026-04-18T09:28:40.999Z</time></trkpt><trkpt lat="42.608906537676155" lon="13.533235182645015"><ele>798.1999999999999</ele><time>2026-04-18T09:28:42.999Z</time></trkpt><trkpt lat="42.60895222254816" lon="13.533153484106899"><ele>795.8</ele><time>2026-04-18T09:28:44.999Z</time></trkpt><trkpt lat="42.60899430288731" lon="13.533024638750478"><ele>793.4</ele><time>2026-04-18T09:28:46.999Z</time></trkpt><trkpt lat="42.60902550262066" lon="13.532873788387246"><ele>791.0</ele><time>2026-04-18T09:28:48.999Z</time></trkpt><trkpt lat="42.608987875019466" lon="13.532738777664157"><ele>791.0</ele><time>2026-04-18T09:28:50.999Z</time></trkpt><trkpt lat="42.608885118177376" lon="13.53265491335814"><ele>791.0</ele><time>2026-04-18T09:28:52.999Z</time></trkpt><trkpt lat="42.60881691531692" lon="13.532557968277604"><ele>791.0</ele><time>2026-04-18T09:28:54.999Z</time></trkpt><trkpt lat="42.60883124538112" lon="13.532471279783948"><ele>791.0</ele><time>2026-04-18T09:28:57.999Z</time></trkpt><trkpt lat="42.6089516026176" lon="13.532540640252977"><ele>791.0</ele><time>2026-04-18T09:28:59.999Z</time></trkpt><trkpt lat="42.60904917327177" lon="13.532576654057689"><ele>791.0</ele><time>2026-04-18T09:29:01.999Z</time></trkpt><trkpt lat="42.60913373613974" lon="13.53255900677162"><ele>791.0</ele><time>2026-04-18T09:29:03.999Z</time></trkpt><trkpt lat="42.6092028552387" lon="13.532540152012201"><ele>791.0</ele><time>2026-04-18T09:29:06.999Z</time></trkpt><trkpt lat="42.60927856808967" lon="13.532599974408761"><ele>791.0</ele><time>2026-04-18T09:29:09.999Z</time></trkpt><trkpt lat="42.60934176941804" lon="13.532622761621312"><ele>791.0</ele><time>2026-04-18T09:29:11.999Z</time></trkpt><trkpt lat="42.609405287762506" lon="13.532632741793496"><ele>791.0</ele><time>2026-04-18T09:29:13.999Z</time></trkpt><trkpt lat="42.60946515345363" lon="13.532568411500597"><ele>791.0</ele><time>2026-04-18T09:29:15.999Z</time></trkpt><trkpt lat="42.609582996077634" lon="13.532528172341367"><ele>790.5</ele><time>2026-04-18T09:29:23Z</time></trkpt><trkpt lat="42.6096897187685" lon="13.532513489758834"><ele>790.0</ele><time>2026-04-18T09:29:56Z</time></trkpt><trkpt lat="42.60968822306615" lon="13.532622675531698"><ele>789.5</ele><time>2026-04-18T09:30:01Z</time></trkpt><trkpt lat="42.609591184253475" lon="13.532697255398745"><ele>789.0</ele><time>2026-04-18T09:30:03Z</time></trkpt><trkpt lat="42.60959467803566" lon="13.53290590646658"><ele>789.0</ele><time>2026-04-18T09:30:05Z</time></trkpt><trkpt lat="42.609607352276186" lon="13.53301174314177"><ele>789.0</ele><time>2026-04-18T09:30:06Z</time></trkpt><trkpt lat="42.609680947407426" lon="13.53311333099426"><ele>789.0</ele><time>2026-04-18T09:30:08Z</time></trkpt><trkpt lat="42.60975397211064" lon="13.533173058102557"><ele>789.0</ele><time>2026-04-18T09:30:09Z</time></trkpt><trkpt lat="42.609813292126425" lon="13.533225203414007"><ele>789.0</ele><time>2026-04-18T09:30:10Z</time></trkpt><trkpt lat="42.60988810007362" lon="13.533363088041082"><ele>789.0</ele><time>2026-04-18T09:30:12Z</time></trkpt><trkpt lat="42.609959181622706" lon="13.533427793710727"><ele>789.0</ele><time>2026-04-18T09:30:13Z</time></trkpt><trkpt lat="42.610029741265684" lon="13.53347479848286"><ele>789.0</ele><time>2026-04-18T09:30:44.999Z</time></trkpt><trkpt lat="42.61007141254798" lon="13.533562460921368"><ele>789.0</ele><time>2026-04-18T09:30:45.999Z</time></trkpt><trkpt lat="42.61014820296419" lon="13.533634159641846"><ele>789.0</ele><time>2026-04-18T09:30:46.999Z</time></trkpt><trkpt lat="42.610223984185204" lon="13.533735027238498"><ele>789.0</ele><time>2026-04-18T09:30:47.999Z</time></trkpt><trkpt lat="42.6102821541764" lon="13.533811036447723"><ele>790.0</ele><time>2026-04-18T09:30:48.999Z</time></trkpt><trkpt lat="42.610334056606014" lon="13.533867542253285"><ele>791.0</ele><time>2026-04-18T09:30:49.999Z</time></trkpt><trkpt lat="42.61039755456258" lon="13.533947010788037"><ele>792.0</ele><time>2026-04-18T09:30:50.999Z</time></trkpt><trkpt lat="42.610433296982364" lon="13.534051949531914"><ele>793.0</ele><time>2026-04-18T09:30:51.999Z</time></trkpt><trkpt lat="42.61047366751305" lon="13.534182605079613"><ele>794.0</ele><time>2026-04-18T09:30:52.999Z</time></trkpt><trkpt lat="42.61052722320625" lon="13.534298222815488"><ele>795.0</ele><time>2026-04-18T09:30:53.999Z</time></trkpt><trkpt lat="42.61055681425541" lon="13.534379817183627"><ele>795.0</ele><time>2026-04-18T09:30:54.999Z</time></trkpt><trkpt lat="42.610631484424545" lon="13.534466538427"><ele>795.0</ele><time>2026-04-18T09:30:55.999Z</time></trkpt><trkpt lat="42.61072542537813" lon="13.534557438259382"><ele>795.0</ele><time>2026-04-18T09:30:56.999Z</time></trkpt><trkpt lat="42.610840735726754" lon="13.534646640453156"><ele>795.0</ele><time>2026-04-18T09:30:57.999Z</time></trkpt><trkpt lat="42.61092789227504" lon="13.534718104846162"><ele>795.0</ele><time>2026-04-18T09:30:58.999Z</time></trkpt><trkpt lat="42.61101173509677" lon="13.53472156098483"><ele>795.0</ele><time>2026-04-18T09:31:00.999Z</time></trkpt><trkpt lat="42.61105133520202" lon="13.534645896260876"><ele>795.0</ele><time>2026-04-18T09:31:02.999Z</time></trkpt><trkpt lat="42.61110399325238" lon="13.534471395154123"><ele>795.0</ele><time>2026-04-18T09:31:04.999Z</time></trkpt><trkpt lat="42.61116470448393" lon="13.534319215944487"><ele>795.0</ele><time>2026-04-18T09:31:05.999Z</time></trkpt><trkpt lat="42.611226421535484" lon="13.534191319022183"><ele>795.0</ele><time>2026-04-18T09:31:06.999Z</time></trkpt><trkpt lat="42.61129104597292" lon="13.534082293022887"><ele>795.8333333333334</ele><time>2026-04-18T09:31:07.999Z</time></trkpt><trkpt lat="42.61136045705583" lon="13.533990680070367"><ele>796.6666666666667</ele><time>2026-04-18T09:31:08.999Z</time></trkpt><trkpt lat="42.61142150347238" lon="13.533911104127354"><ele>797.5</ele><time>2026-04-18T09:31:09.999Z</time></trkpt><trkpt lat="42.61148933153394" lon="13.533828593823108"><ele>798.3333333333334</ele><time>2026-04-18T09:31:10.999Z</time></trkpt><trkpt lat="42.61156472817105" lon="13.533815438428638"><ele>799.1666666666667</ele><time>2026-04-18T09:31:11.999Z</time></trkpt><trkpt lat="42.61166367657797" lon="13.53383804350744"><ele>800.0</ele><time>2026-04-18T09:31:12.999Z</time></trkpt><trkpt lat="42.6117503435528" lon="13.533883621841602"><ele>800.0</ele><time>2026-04-18T09:31:13.999Z</time></trkpt><trkpt lat="42.611851939228934" lon="13.533839239019354"><ele>800.0</ele><time>2026-04-18T09:31:14.999Z</time></trkpt><trkpt lat="42.611980308604835" lon="13.533776547316105"><ele>800.0</ele><time>2026-04-18T09:31:15.999Z</time></trkpt><trkpt lat="42.61206967638018" lon="13.533733400302438"><ele>800.0</ele><time>2026-04-18T09:31:16.999Z</time></trkpt><trkpt lat="42.61212489099804" lon="13.5338326266883"><ele>800.0</ele><time>2026-04-18T09:31:18.999Z</time></trkpt><trkpt lat="42.612120534616686" lon="13.533948159417648"><ele>805.2</ele><time>2026-04-18T09:31:19.999Z</time></trkpt><trkpt lat="42.61206683949133" lon="13.534113781605098"><ele>810.4</ele><time>2026-04-18T09:31:20.999Z</time></trkpt><trkpt lat="42.61206429140575" lon="13.534289561358941"><ele>815.5999999999999</ele><time>2026-04-18T09:31:21.999Z</time></trkpt><trkpt lat="42.612120013061045" lon="13.534334455911363"><ele>820.8</ele><time>2026-04-18T09:31:23.999Z</time></trkpt><trkpt lat="42.61218207144047" lon="13.534277091587452"><ele>826.0</ele><time>2026-04-18T09:31:24.999Z</time></trkpt><trkpt lat="42.61224626550133" lon="13.534205578003434"><ele>826.0</ele><time>2026-04-18T09:31:26Z</time></trkpt><trkpt lat="42.61232168518074" lon="13.534142723367546"><ele>826.0</ele><time>2026-04-18T09:31:27Z</time></trkpt><trkpt lat="42.6124100391471" lon="13.534092383225142"><ele>826.0</ele><time>2026-04-18T09:31:28Z</time></trkpt><trkpt lat="42.61250839688472" lon="13.534021395967379"><ele>826.0</ele><time>2026-04-18T09:31:29Z</time></trkpt><trkpt lat="42.61261120105156" lon="13.5339434866067"><ele>826.0</ele><time>2026-04-18T09:31:30Z</time></trkpt><trkpt lat="42.612651733636454" lon="13.533843996695394"><ele>826.5999999999999</ele><time>2026-04-18T09:31:31Z</time></trkpt><trkpt lat="42.61267956426909" lon="13.533709927754876"><ele>827.2</ele><time>2026-04-18T09:31:32Z</time></trkpt><trkpt lat="42.61272938065514" lon="13.533600537787672"><ele>827.8</ele><time>2026-04-18T09:31:33Z</time></trkpt><trkpt lat="42.612778737161086" lon="13.533476348855626"><ele>828.4000000000001</ele><time>2026-04-18T09:31:34Z</time></trkpt><trkpt lat="42.61282951362342" lon="13.533347719197788"><ele>829.0</ele><time>2026-04-18T09:31:35Z</time></trkpt><trkpt lat="42.61289061376287" lon="13.533217783497884"><ele>834.6</ele><time>2026-04-18T09:31:36Z</time></trkpt><trkpt lat="42.6129309138309" lon="13.533147943227878"><ele>840.2</ele><time>2026-04-18T09:31:37Z</time></trkpt><trkpt lat="42.613015304654766" lon="13.533220999918864"><ele>845.8000000000001</ele><time>2026-04-18T09:31:41Z</time></trkpt><trkpt lat="42.61303765776526" lon="13.53335460343226"><ele>851.4000000000001</ele><time>2026-04-18T09:31:43Z</time></trkpt><trkpt lat="42.61303799622389" lon="13.533493638451235"><ele>857.0</ele><time>2026-04-18T09:31:45Z</time></trkpt><trkpt lat="42.61304438329228" lon="13.533648628658467"><ele>856.3333333333334</ele><time>2026-04-18T09:31:47Z</time></trkpt><trkpt lat="42.61304652214454" lon="13.533797715898602"><ele>855.6666666666667</ele><time>2026-04-18T09:31:49Z</time></trkpt><trkpt lat="42.61305668137542" lon="13.53390824542055"><ele>855.0</ele><time>2026-04-18T09:31:51Z</time></trkpt><trkpt lat="42.613062116989816" lon="13.53400109784319"><ele>854.3333333333333</ele><time>2026-04-18T09:31:54Z</time></trkpt><trkpt lat="42.61305367290804" lon="13.534130150874255"><ele>853.6666666666666</ele><time>2026-04-18T09:32:30Z</time></trkpt><trkpt lat="42.61303900062749" lon="13.534241401605154"><ele>853.0</ele><time>2026-04-18T09:32:31Z</time></trkpt><trkpt lat="42.613045002315" lon="13.534389515141497"><ele>853.0</ele><time>2026-04-18T09:32:33Z</time></trkpt><trkpt lat="42.613028622078254" lon="13.534506361652602"><ele>853.0</ele><time>2026-04-18T09:32:35Z</time></trkpt><trkpt lat="42.61307536895997" lon="13.534660238637278"><ele>853.0</ele><time>2026-04-18T09:32:37Z</time></trkpt><trkpt lat="42.61317657467089" lon="13.534763561986756"><ele>853.0</ele><time>2026-04-18T09:32:39Z</time></trkpt><trkpt lat="42.613239273161234" lon="13.534822767040625"><ele>853.0</ele><time>2026-04-18T09:32:40Z</time></trkpt><trkpt lat="42.61330426415334" lon="13.534872881793522"><ele>855.5</ele><time>2026-04-18T09:32:41Z</time></trkpt><trkpt lat="42.61341545634135" lon="13.534927212789388"><ele>858.0</ele><time>2026-04-18T09:32:43Z</time></trkpt><trkpt lat="42.6135245867488" lon="13.534928113324815"><ele>860.5</ele><time>2026-04-18T09:32:44Z</time></trkpt><trkpt lat="42.61363129289794" lon="13.534984909802352"><ele>863.0</ele><time>2026-04-18T09:32:45Z</time></trkpt><trkpt lat="42.613738892861" lon="13.535057555471752"><ele>863.0</ele><time>2026-04-18T09:32:46Z</time></trkpt><trkpt lat="42.61384455001063" lon="13.53514446838672"><ele>863.0</ele><time>2026-04-18T09:32:46.999Z</time></trkpt><trkpt lat="42.61390662793211" lon="13.535215545328809"><ele>863.0</ele><time>2026-04-18T09:32:47.999Z</time></trkpt><trkpt lat="42.61398824009924" lon="13.535303094033075"><ele>863.0</ele><time>2026-04-18T09:32:49.999Z</time></trkpt><trkpt lat="42.61406972277964" lon="13.535354447112903"><ele>863.0</ele><time>2026-04-18T09:32:50.999Z</time></trkpt><trkpt lat="42.61420060728121" lon="13.535399888725559"><ele>857.0</ele><time>2026-04-18T09:32:51.999Z</time></trkpt><trkpt lat="42.614290957493736" lon="13.535436281362381"><ele>851.0</ele><time>2026-04-18T09:32:52.999Z</time></trkpt><trkpt lat="42.614333136632624" lon="13.535544915486778"><ele>845.0</ele><time>2026-04-18T09:32:53.999Z</time></trkpt><trkpt lat="42.61434735829961" lon="13.535675170523717"><ele>839.0</ele><time>2026-04-18T09:32:54.999Z</time></trkpt><trkpt lat="42.614371789186954" lon="13.53580226068485"><ele>833.0</ele><time>2026-04-18T09:32:55.999Z</time></trkpt><trkpt lat="42.614420860188254" lon="13.535926750225142"><ele>833.0</ele><time>2026-04-18T09:32:56.999Z</time></trkpt><trkpt lat="42.61447215106331" lon="13.53608319674987"><ele>833.0</ele><time>2026-04-18T09:32:57.999Z</time></trkpt><trkpt lat="42.614501949244044" lon="13.536232535099057"><ele>833.0</ele><time>2026-04-18T09:32:58.999Z</time></trkpt><trkpt lat="42.614525503051155" lon="13.536342595429751"><ele>833.0</ele><time>2026-04-18T09:32:59.999Z</time></trkpt><trkpt lat="42.614651571243904" lon="13.53645276072964"><ele>832.0000000000001</ele><time>2026-04-18T09:33:01.999Z</time></trkpt><trkpt lat="42.614720706475985" lon="13.536480997675593"><ele>831.0</ele><time>2026-04-18T09:33:02.999Z</time></trkpt><trkpt lat="42.61478604559566" lon="13.536504723303935"><ele>830.0</ele><time>2026-04-18T09:33:03.999Z</time></trkpt><trkpt lat="42.6148526293032" lon="13.536570551693208"><ele>829.0</ele><time>2026-04-18T09:33:04.999Z</time></trkpt><trkpt lat="42.61491944788783" lon="13.536630395539596"><ele>828.0000000000001</ele><time>2026-04-18T09:33:05.999Z</time></trkpt><trkpt lat="42.61498139272056" lon="13.536675151429888"><ele>827.0</ele><time>2026-04-18T09:33:06.999Z</time></trkpt><trkpt lat="42.61507945081515" lon="13.536736406003907"><ele>827.0</ele><time>2026-04-18T09:33:07.999Z</time></trkpt><trkpt lat="42.61520278651057" lon="13.536800332257382"><ele>827.0</ele><time>2026-04-18T09:33:08.999Z</time></trkpt><trkpt lat="42.615312493444414" lon="13.536875105505244"><ele>827.0</ele><time>2026-04-18T09:33:09.999Z</time></trkpt><trkpt lat="42.61541680591956" lon="13.536948848569585"><ele>827.0</ele><time>2026-04-18T09:33:10.999Z</time></trkpt><trkpt lat="42.61548752498113" lon="13.537053669124285"><ele>824.1666666666667</ele><time>2026-04-18T09:33:11.999Z</time></trkpt><trkpt lat="42.61554959431848" lon="13.537101553029466"><ele>821.3333333333334</ele><time>2026-04-18T09:33:12.999Z</time></trkpt><trkpt lat="42.615621080186116" lon="13.537144955186168"><ele>818.5</ele><time>2026-04-18T09:33:13.999Z</time></trkpt><trkpt lat="42.61568677475185" lon="13.537205377532208"><ele>815.6666666666667</ele><time>2026-04-18T09:33:14.999Z</time></trkpt><trkpt lat="42.61577121768547" lon="13.537234172830694"><ele>812.8333333333334</ele><time>2026-04-18T09:33:15.999Z</time></trkpt><trkpt lat="42.61584565343271" lon="13.537226777589556"><ele>810.0</ele><time>2026-04-18T09:33:16.999Z</time></trkpt><trkpt lat="42.61592552588966" lon="13.537175165524125"><ele>810.0</ele><time>2026-04-18T09:33:17.999Z</time></trkpt><trkpt lat="42.61599373155759" lon="13.537069882442486"><ele>810.0</ele><time>2026-04-18T09:33:18.999Z</time></trkpt><trkpt lat="42.61606085937611" lon="13.536981342657947"><ele>810.0</ele><time>2026-04-18T09:33:19.999Z</time></trkpt><trkpt lat="42.61611571493807" lon="13.53690121587603"><ele>810.0</ele><time>2026-04-18T09:33:20.999Z</time></trkpt><trkpt lat="42.61615899382193" lon="13.536798863131038"><ele>810.0</ele><time>2026-04-18T09:33:21.999Z</time></trkpt><trkpt lat="42.61617911195433" lon="13.536662274797541"><ele>808.2</ele><time>2026-04-18T09:33:22.999Z</time></trkpt><trkpt lat="42.61622927300433" lon="13.53654137353642"><ele>806.4</ele><time>2026-04-18T09:33:23.999Z</time></trkpt><trkpt lat="42.61627025226973" lon="13.53643297169984"><ele>804.5999999999999</ele><time>2026-04-18T09:33:24.999Z</time></trkpt><trkpt lat="42.61630591246965" lon="13.536243686286735"><ele>802.8</ele><time>2026-04-18T09:33:26.999Z</time></trkpt><trkpt lat="42.61636249061922" lon="13.536146203653333"><ele>801.0</ele><time>2026-04-18T09:33:27.999Z</time></trkpt><trkpt lat="42.61641321969192" lon="13.536039857351318"><ele>801.0</ele><time>2026-04-18T09:33:28.999Z</time></trkpt><trkpt lat="42.61648405646495" lon="13.535903900908274"><ele>801.0</ele><time>2026-04-18T09:33:29.999Z</time></trkpt><trkpt lat="42.616564399875394" lon="13.535709038911982"><ele>801.0</ele><time>2026-04-18T09:33:30.999Z</time></trkpt><trkpt lat="42.61661391813107" lon="13.535531063825667"><ele>801.0</ele><time>2026-04-18T09:33:32Z</time></trkpt><trkpt lat="42.61667126966075" lon="13.535388912130724"><ele>801.8</ele><time>2026-04-18T09:33:33Z</time></trkpt><trkpt lat="42.61671887628161" lon="13.535261059586245"><ele>802.5999999999999</ele><time>2026-04-18T09:33:34Z</time></trkpt><trkpt lat="42.61672821501656" lon="13.535112155398872"><ele>803.4</ele><time>2026-04-18T09:33:35Z</time></trkpt><trkpt lat="42.61673788960468" lon="13.535005109009806"><ele>804.2</ele><time>2026-04-18T09:33:36Z</time></trkpt><trkpt lat="42.61675486490086" lon="13.534883437743348"><ele>805.0</ele><time>2026-04-18T09:33:37Z</time></trkpt><trkpt lat="42.61674257228546" lon="13.534754792661483"><ele>805.0</ele><time>2026-04-18T09:33:38Z</time></trkpt><trkpt lat="42.616732287191745" lon="13.534592237292328"><ele>805.0</ele><time>2026-04-18T09:33:39Z</time></trkpt><trkpt lat="42.61672102078339" lon="13.534411858509381"><ele>805.0</ele><time>2026-04-18T09:33:40Z</time></trkpt><trkpt lat="42.61671023402921" lon="13.534213679876403"><ele>805.0</ele><time>2026-04-18T09:33:41Z</time></trkpt><trkpt lat="42.61669632379816" lon="13.534052928600342"><ele>804.2</ele><time>2026-04-18T09:33:42Z</time></trkpt><trkpt lat="42.61667885192686" lon="13.533922965465564"><ele>803.4</ele><time>2026-04-18T09:33:43Z</time></trkpt><trkpt lat="42.61666753749177" lon="13.533765901507456"><ele>802.5999999999999</ele><time>2026-04-18T09:33:45Z</time></trkpt><trkpt lat="42.61668336487995" lon="13.533653481022634"><ele>801.8</ele><time>2026-04-18T09:33:46Z</time></trkpt><trkpt lat="42.61670119090631" lon="13.533507377010473"><ele>801.0</ele><time>2026-04-18T09:33:47Z</time></trkpt><trkpt lat="42.616732850170685" lon="13.533385048822364"><ele>800.6666666666666</ele><time>2026-04-18T09:33:48Z</time></trkpt><trkpt lat="42.616724500639116" lon="13.533288544026762"><ele>800.3333333333333</ele><time>2026-04-18T09:33:49Z</time></trkpt><trkpt lat="42.616681993446534" lon="13.53319287708115"><ele>800.0</ele><time>2026-04-18T09:33:51Z</time></trkpt><trkpt lat="42.61670844878786" lon="13.533108949645513"><ele>799.6666666666666</ele><time>2026-04-18T09:33:52Z</time></trkpt><trkpt lat="42.61676956183401" lon="13.533053480167302"><ele>799.3333333333333</ele><time>2026-04-18T09:33:53Z</time></trkpt><trkpt lat="42.616864073377194" lon="13.53303406597423"><ele>799.0</ele><time>2026-04-18T09:33:55Z</time></trkpt><trkpt lat="42.616973698448454" lon="13.533013385381693"><ele>797.4999999999999</ele><time>2026-04-18T09:34:06Z</time></trkpt><trkpt lat="42.617042076893156" lon="13.53298200260822"><ele>796.0</ele><time>2026-04-18T09:34:07Z</time></trkpt><trkpt lat="42.61711305674737" lon="13.532967511893395"><ele>794.5</ele><time>2026-04-18T09:34:08Z</time></trkpt><trkpt lat="42.617186705199494" lon="13.532954908409533"><ele>793.0</ele><time>2026-04-18T09:34:09Z</time></trkpt><trkpt lat="42.61727673439251" lon="13.532995421192748"><ele>791.4999999999999</ele><time>2026-04-18T09:34:10Z</time></trkpt><trkpt lat="42.61734476565187" lon="13.533031095710337"><ele>790.0</ele><time>2026-04-18T09:34:11Z</time></trkpt><trkpt lat="42.61743833815066" lon="13.533108748712145"><ele>789.9999999999999</ele><time>2026-04-18T09:34:13Z</time></trkpt><trkpt lat="42.617499607297134" lon="13.533144545015253"><ele>790.0</ele><time>2026-04-18T09:34:14Z</time></trkpt><trkpt lat="42.617581701888334" lon="13.533172243071947"><ele>790.0</ele><time>2026-04-18T09:34:15Z</time></trkpt><trkpt lat="42.61768385655679" lon="13.53320269641271"><ele>790.0</ele><time>2026-04-18T09:34:16Z</time></trkpt><trkpt lat="42.61775607529299" lon="13.533200704711017"><ele>789.9999999999999</ele><time>2026-04-18T09:34:17Z</time></trkpt><trkpt lat="42.617857783415424" lon="13.533187359525856"><ele>790.0</ele><time>2026-04-18T09:34:19Z</time></trkpt><trkpt lat="42.61794098275309" lon="13.533118004632755"><ele>788.3333333333333</ele><time>2026-04-18T09:34:21Z</time></trkpt><trkpt lat="42.61805075277069" lon="13.533041571681565"><ele>786.6666666666666</ele><time>2026-04-18T09:34:23Z</time></trkpt><trkpt lat="42.61810598829353" lon="13.532969020895289"><ele>785.0</ele><time>2026-04-18T09:34:24Z</time></trkpt><trkpt lat="42.618139010164995" lon="13.532872690713052"><ele>783.3333333333333</ele><time>2026-04-18T09:34:25Z</time></trkpt><trkpt lat="42.618168616255744" lon="13.532784745864387"><ele>781.6666666666666</ele><time>2026-04-18T09:34:26Z</time></trkpt><trkpt lat="42.61818771135364" lon="13.532691461908314"><ele>780.0</ele><time>2026-04-18T09:34:27Z</time></trkpt><trkpt lat="42.61820531776669" lon="13.5325659757875"><ele>780.0</ele><time>2026-04-18T09:34:28Z</time></trkpt><trkpt lat="42.618231191950166" lon="13.532430464129172"><ele>780.0</ele><time>2026-04-18T09:34:29Z</time></trkpt><trkpt lat="42.61822414238638" lon="13.532313760806264"><ele>780.0</ele><time>2026-04-18T09:34:30Z</time></trkpt><trkpt lat="42.61822412540866" lon="13.532191557945097"><ele>780.0</ele><time>2026-04-18T09:34:31Z</time></trkpt><trkpt lat="42.61822254307551" lon="13.532070573515785"><ele>780.0</ele><time>2026-04-18T09:34:32Z</time></trkpt><trkpt lat="42.61819070708505" lon="13.531903097968847"><ele>782.0</ele><time>2026-04-18T09:34:33Z</time></trkpt><trkpt lat="42.61817978958533" lon="13.531747316227316"><ele>784.0</ele><time>2026-04-18T09:34:34Z</time></trkpt><trkpt lat="42.61811469520564" lon="13.531646784732136"><ele>786.0</ele><time>2026-04-18T09:34:35Z</time></trkpt><trkpt lat="42.61807264706845" lon="13.531555558258964"><ele>788.0</ele><time>2026-04-18T09:34:41Z</time></trkpt><trkpt lat="42.618108278829965" lon="13.531462438122036"><ele>790.0</ele><time>2026-04-18T09:34:44Z</time></trkpt><trkpt lat="42.6181284625209" lon="13.531337662304098"><ele>789.9999999999999</ele><time>2026-04-18T09:34:48Z</time></trkpt><trkpt lat="42.61823300395013" lon="13.531316626407529"><ele>790.0</ele><time>2026-04-18T09:34:49.999Z</time></trkpt><trkpt lat="42.61833876388287" lon="13.53128248792285"><ele>790.0</ele><time>2026-04-18T09:34:51.999Z</time></trkpt><trkpt lat="42.61840067714793" lon="13.531266686599588"><ele>790.0</ele><time>2026-04-18T09:34:52.999Z</time></trkpt><trkpt lat="42.61849236795859" lon="13.531335613744648"><ele>789.9999999999999</ele><time>2026-04-18T09:34:54.999Z</time></trkpt><trkpt lat="42.61854990086161" lon="13.531373686168715"><ele>790.0</ele><time>2026-04-18T09:34:55.999Z</time></trkpt><trkpt lat="42.61866077014188" lon="13.531439692578259"><ele>786.8333333333333</ele><time>2026-04-18T09:34:57.999Z</time></trkpt><trkpt lat="42.618736695697145" lon="13.53143489052803"><ele>783.6666666666666</ele><time>2026-04-18T09:34:58.999Z</time></trkpt><trkpt lat="42.618840905738494" lon="13.531396029898675"><ele>780.5</ele><time>2026-04-18T09:34:59.999Z</time></trkpt><trkpt lat="42.61894277362542" lon="13.531369869586683"><ele>777.3333333333333</ele><time>2026-04-18T09:35:00.999Z</time></trkpt><trkpt lat="42.61900726646564" lon="13.531375015218526"><ele>774.1666666666666</ele><time>2026-04-18T09:35:01.999Z</time></trkpt><trkpt lat="42.61906943867196" lon="13.531361371054407"><ele>771.0</ele><time>2026-04-18T09:35:02.999Z</time></trkpt><trkpt lat="42.61914699529047" lon="13.531332637873392"><ele>771.0</ele><time>2026-04-18T09:35:03.999Z</time></trkpt><trkpt lat="42.61921308959244" lon="13.5312909383628"><ele>771.0</ele><time>2026-04-18T09:35:04.999Z</time></trkpt><trkpt lat="42.61927562266262" lon="13.531219855428816"><ele>771.0</ele><time>2026-04-18T09:35:05.999Z</time></trkpt><trkpt lat="42.619344360387956" lon="13.531160247646541"><ele>771.0</ele><time>2026-04-18T09:35:06.999Z</time></trkpt><trkpt lat="42.619432121385785" lon="13.531091584336208"><ele>771.0</ele><time>2026-04-18T09:35:07.999Z</time></trkpt><trkpt lat="42.61949466999933" lon="13.53106322527813"><ele>771.0</ele><time>2026-04-18T09:35:08.999Z</time></trkpt><trkpt lat="42.619572624114745" lon="13.531050672266385"><ele>772.1999999999999</ele><time>2026-04-18T09:35:09.999Z</time></trkpt><trkpt lat="42.61964741473632" lon="13.5310777426621"><ele>773.4</ele><time>2026-04-18T09:35:10.999Z</time></trkpt><trkpt lat="42.61976595190902" lon="13.531081470263048"><ele>774.6</ele><time>2026-04-18T09:35:12.999Z</time></trkpt><trkpt lat="42.61989972436279" lon="13.531047401143164"><ele>775.8</ele><time>2026-04-18T09:35:14.999Z</time></trkpt><trkpt lat="42.61996453798454" lon="13.531038231986583"><ele>777.0</ele><time>2026-04-18T09:35:15.999Z</time></trkpt><trkpt lat="42.62004671745062" lon="13.530993793899714"><ele>777.0</ele><time>2026-04-18T09:35:16.999Z</time></trkpt><trkpt lat="42.62016594327529" lon="13.530904369710337"><ele>777.0</ele><time>2026-04-18T09:35:17.999Z</time></trkpt><trkpt lat="42.62014231657577" lon="13.530806788766437"><ele>777.0</ele><time>2026-04-18T09:35:18.999Z</time></trkpt><trkpt lat="42.620170150180904" lon="13.530654021149724"><ele>777.0</ele><time>2026-04-18T09:35:20.999Z</time></trkpt><trkpt lat="42.6201908866077" lon="13.530559687539514"><ele>777.0</ele><time>2026-04-18T09:35:21.999Z</time></trkpt><trkpt lat="42.62016688039798" lon="13.530458235154757"><ele>776.5</ele><time>2026-04-18T09:35:22.999Z</time></trkpt><trkpt lat="42.62017754465631" lon="13.530361647531178"><ele>776.0</ele><time>2026-04-18T09:35:23.999Z</time></trkpt><trkpt lat="42.620261081816615" lon="13.530242164098686"><ele>775.5</ele><time>2026-04-18T09:35:24.999Z</time></trkpt><trkpt lat="42.62030099327172" lon="13.530164914951921"><ele>775.0</ele><time>2026-04-18T09:35:25.999Z</time></trkpt><trkpt lat="42.62035324752216" lon="13.530089769293491"><ele>774.5</ele><time>2026-04-18T09:35:26.999Z</time></trkpt><trkpt lat="42.62040487391558" lon="13.530011541148056"><ele>774.0</ele><time>2026-04-18T09:35:27.999Z</time></trkpt><trkpt lat="42.62042132841445" lon="13.529926319483558"><ele>771.6666666666666</ele><time>2026-04-18T09:35:28.999Z</time></trkpt><trkpt lat="42.620477141096416" lon="13.529843693667793"><ele>769.3333333333334</ele><time>2026-04-18T09:35:30.999Z</time></trkpt><trkpt lat="42.62048490524736" lon="13.529743146364584"><ele>767.0</ele><time>2026-04-18T09:35:33.999Z</time></trkpt><trkpt lat="42.62049688827478" lon="13.529656597306273"><ele>764.6666666666667</ele><time>2026-04-18T09:35:39Z</time></trkpt><trkpt lat="42.620578872892914" lon="13.529659086963237"><ele>762.3333333333334</ele><time>2026-04-18T09:36:20Z</time></trkpt><trkpt lat="42.62066175565185" lon="13.529681691223027"><ele>760.0</ele><time>2026-04-18T09:36:23Z</time></trkpt><trkpt lat="42.620724367099335" lon="13.529711826524325"><ele>760.0</ele><time>2026-04-18T09:36:25Z</time></trkpt><trkpt lat="42.6207834426313" lon="13.529756810165468"><ele>760.0</ele><time>2026-04-18T09:37:37.999Z</time></trkpt><trkpt lat="42.62085273052467" lon="13.529790528586735"><ele>760.0</ele><time>2026-04-18T09:37:40.999Z</time></trkpt><trkpt lat="42.62083464426677" lon="13.529902067894028"><ele>760.0</ele><time>2026-04-18T09:37:44Z</time></trkpt><trkpt lat="42.62077802890701" lon="13.529941706391126"><ele>760.0</ele><time>2026-04-18T09:37:47Z</time></trkpt><trkpt lat="42.620738640563864" lon="13.530010700717085"><ele>760.0</ele><time>2026-04-18T09:37:54Z</time></trkpt><trkpt lat="42.62071786685771" lon="13.530099620809624"><ele>760.0</ele><time>2026-04-18T09:37:56Z</time></trkpt><trkpt lat="42.62071982810329" lon="13.530217908271927"><ele>760.0</ele><time>2026-04-18T09:38:06Z</time></trkpt><trkpt lat="42.62070328977212" lon="13.530308665059414"><ele>760.0</ele><time>2026-04-18T09:38:11Z</time></trkpt><trkpt lat="42.62067833521692" lon="13.530428818410432"><ele>760.0</ele><time>2026-04-18T09:38:13Z</time></trkpt><trkpt lat="42.62068187684484" lon="13.530520969357383"><ele>760.0</ele><time>2026-04-18T09:38:14Z</time></trkpt><trkpt lat="42.62069619389923" lon="13.530608071978097"><ele>760.0</ele><time>2026-04-18T09:38:16Z</time></trkpt><trkpt lat="42.620773984034855" lon="13.530645856310239"><ele>760.0</ele><time>2026-04-18T09:38:18Z</time></trkpt><trkpt lat="42.62090254620238" lon="13.530643475080632"><ele>760.0</ele><time>2026-04-18T09:38:20Z</time></trkpt><trkpt lat="42.6209748018058" lon="13.530706053760753"><ele>760.0</ele><time>2026-04-18T09:38:22Z</time></trkpt><trkpt lat="42.62092771865089" lon="13.530854579640026"><ele>760.0</ele><time>2026-04-18T09:38:24Z</time></trkpt><trkpt lat="42.62090746824626" lon="13.530980898443008"><ele>760.0</ele><time>2026-04-18T09:38:26Z</time></trkpt><trkpt lat="42.62088413354034" lon="13.53112147862137"><ele>760.0</ele><time>2026-04-18T09:38:28Z</time></trkpt><trkpt lat="42.620832485986206" lon="13.531233761181799"><ele>761.6</ele><time>2026-04-18T09:38:32Z</time></trkpt><trkpt lat="42.620781289754106" lon="13.531351019378208"><ele>763.2</ele><time>2026-04-18T09:38:35Z</time></trkpt><trkpt lat="42.620698879313636" lon="13.531461808625814"><ele>764.8</ele><time>2026-04-18T09:38:37Z</time></trkpt><trkpt lat="42.620647507384305" lon="13.531534131824346"><ele>766.4</ele><time>2026-04-18T09:38:38Z</time></trkpt><trkpt lat="42.62055850516247" lon="13.531624149012497"><ele>768.0</ele><time>2026-04-18T09:38:40Z</time></trkpt><trkpt lat="42.62050358476152" lon="13.5316867964816"><ele>768.0</ele><time>2026-04-18T09:38:42Z</time></trkpt><trkpt lat="42.620525607333306" lon="13.531782586530378"><ele>768.0</ele><time>2026-04-18T09:38:58Z</time></trkpt><trkpt lat="42.62049555930302" lon="13.531884053650014"><ele>768.0</ele><time>2026-04-18T09:39:00Z</time></trkpt><trkpt lat="42.620479300593125" lon="13.53201591867512"><ele>768.0</ele><time>2026-04-18T09:39:02Z</time></trkpt><trkpt lat="42.62040370768526" lon="13.532129421572495"><ele>768.0</ele><time>2026-04-18T09:39:04Z</time></trkpt><trkpt lat="42.62035306126782" lon="13.532204332199091"><ele>768.0</ele><time>2026-04-18T09:39:05Z</time></trkpt><trkpt lat="42.62028416229454" lon="13.532259425792747"><ele>766.8333333333334</ele><time>2026-04-18T09:39:06Z</time></trkpt><trkpt lat="42.6201974653455" lon="13.532306458052004"><ele>765.6666666666666</ele><time>2026-04-18T09:39:07Z</time></trkpt><trkpt lat="42.62011551839111" lon="13.532339216792806"><ele>764.5</ele><time>2026-04-18T09:39:08Z</time></trkpt><trkpt lat="42.6200388920693" lon="13.532359569808353"><ele>763.3333333333333</ele><time>2026-04-18T09:39:09Z</time></trkpt><trkpt lat="42.61995406996973" lon="13.532341014213765"><ele>762.1666666666666</ele><time>2026-04-18T09:39:09.999Z</time></trkpt><trkpt lat="42.61986697448762" lon="13.532353256641757"><ele>761.0</ele><time>2026-04-18T09:39:10.999Z</time></trkpt><trkpt lat="42.61975888361966" lon="13.532394696745381"><ele>761.0</ele><time>2026-04-18T09:39:11.999Z</time></trkpt><trkpt lat="42.61971069315127" lon="13.53245400356432"><ele>761.0</ele><time>2026-04-18T09:39:12.999Z</time></trkpt><trkpt lat="42.61965678487678" lon="13.532528712754777"><ele>761.0</ele><time>2026-04-18T09:39:13.999Z</time></trkpt><trkpt lat="42.61960808084715" lon="13.532613051950962"><ele>761.0</ele><time>2026-04-18T09:39:14.999Z</time></trkpt><trkpt lat="42.619550361630594" lon="13.532709836652515"><ele>761.0</ele><time>2026-04-18T09:39:15.999Z</time></trkpt><trkpt lat="42.61951931572162" lon="13.532927467978602"><ele>764.1999999999999</ele><time>2026-04-18T09:39:17.999Z</time></trkpt><trkpt lat="42.61951028225139" lon="13.533058133494668"><ele>767.4</ele><time>2026-04-18T09:39:18.999Z</time></trkpt><trkpt lat="42.6195518778926" lon="13.533186556039507"><ele>770.6</ele><time>2026-04-18T09:39:20.999Z</time></trkpt><trkpt lat="42.61959772686949" lon="13.533279020002839"><ele>773.8</ele><time>2026-04-18T09:39:21.999Z</time></trkpt><trkpt lat="42.61967037427472" lon="13.533378718165054"><ele>777.0</ele><time>2026-04-18T09:39:22.999Z</time></trkpt><trkpt lat="42.619742757302035" lon="13.53349097127149"><ele>777.0</ele><time>2026-04-18T09:39:24.999Z</time></trkpt><trkpt lat="42.619777849223034" lon="13.533567114042716"><ele>777.0</ele><time>2026-04-18T09:39:25.999Z</time></trkpt><trkpt lat="42.6198350270756" lon="13.533661088703882"><ele>777.0</ele><time>2026-04-18T09:39:26.999Z</time></trkpt><trkpt lat="42.61988483985551" lon="13.533746924962923"><ele>777.0</ele><time>2026-04-18T09:39:27.999Z</time></trkpt><trkpt lat="42.6199064947463" lon="13.53383152971653"><ele>777.0</ele><time>2026-04-18T09:39:28.999Z</time></trkpt><trkpt lat="42.61992696358801" lon="13.533923540352662"><ele>777.0</ele><time>2026-04-18T09:39:29.999Z</time></trkpt><trkpt lat="42.62002632931689" lon="13.53397553260277"><ele>777.2</ele><time>2026-04-18T09:39:31.999Z</time></trkpt><trkpt lat="42.6201348741201" lon="13.533974870536927"><ele>777.4000000000001</ele><time>2026-04-18T09:39:32.999Z</time></trkpt><trkpt lat="42.620239027883024" lon="13.533992898810128"><ele>777.5999999999999</ele><time>2026-04-18T09:39:33.999Z</time></trkpt><trkpt lat="42.62030617849461" lon="13.534014791523875"><ele>777.8</ele><time>2026-04-18T09:39:34.999Z</time></trkpt><trkpt lat="42.62039795630076" lon="13.534047783229154"><ele>778.0</ele><time>2026-04-18T09:39:35.999Z</time></trkpt><trkpt lat="42.62046146804617" lon="13.534109930270677"><ele>777.9999999999999</ele><time>2026-04-18T09:39:36.999Z</time></trkpt><trkpt lat="42.620528307982596" lon="13.534169715700479"><ele>778.0</ele><time>2026-04-18T09:39:37.999Z</time></trkpt><trkpt lat="42.62059767051025" lon="13.534154568324126"><ele>778.0</ele><time>2026-04-18T09:39:38.999Z</time></trkpt><trkpt lat="42.6206701409287" lon="13.534169545781914"><ele>778.0</ele><time>2026-04-18T09:39:39.999Z</time></trkpt><trkpt lat="42.62074492990119" lon="13.53421894537427"><ele>777.9999999999999</ele><time>2026-04-18T09:39:40.999Z</time></trkpt><trkpt lat="42.62081599032391" lon="13.534246024150224"><ele>778.0</ele><time>2026-04-18T09:39:41.999Z</time></trkpt><trkpt lat="42.6209013509269" lon="13.534339285817893"><ele>778.0</ele><time>2026-04-18T09:39:43.999Z</time></trkpt><trkpt lat="42.62095473626056" lon="13.534400166196175"><ele>778.0</ele><time>2026-04-18T09:39:44.999Z</time></trkpt><trkpt lat="42.62102515930849" lon="13.534425297482985"><ele>778.0</ele><time>2026-04-18T09:39:46.999Z</time></trkpt><trkpt lat="42.62109836270504" lon="13.534481722480898"><ele>778.0</ele><time>2026-04-18T09:39:50Z</time></trkpt><trkpt lat="42.62118132699984" lon="13.534515267367455"><ele>778.0</ele><time>2026-04-18T09:39:52Z</time></trkpt><trkpt lat="42.62124671225417" lon="13.534525435704264"><ele>778.0</ele><time>2026-04-18T09:39:54Z</time></trkpt><trkpt lat="42.62123433301058" lon="13.534609373802166"><ele>778.0</ele><time>2026-04-18T09:39:55Z</time></trkpt><trkpt lat="42.621183820467415" lon="13.534662254838162"><ele>779.4999999999999</ele><time>2026-04-18T09:39:56Z</time></trkpt><trkpt lat="42.62111338227488" lon="13.534684201837573"><ele>781.0</ele><time>2026-04-18T09:39:58Z</time></trkpt><trkpt lat="42.62103980386042" lon="13.534737691953456"><ele>782.5</ele><time>2026-04-18T09:40:00Z</time></trkpt><trkpt lat="42.62092860413963" lon="13.534793329739772"><ele>784.0</ele><time>2026-04-18T09:40:02Z</time></trkpt><trkpt lat="42.62085007097832" lon="13.534854090412825"><ele>785.4999999999999</ele><time>2026-04-18T09:40:04Z</time></trkpt><trkpt lat="42.620783483159606" lon="13.534882191236424"><ele>787.0</ele><time>2026-04-18T09:40:06Z</time></trkpt><trkpt lat="42.62071737136218" lon="13.534846553243707"><ele>787.0</ele><time>2026-04-18T09:40:09Z</time></trkpt><trkpt lat="42.62064900828522" lon="13.534852179103206"><ele>787.0</ele><time>2026-04-18T09:40:10Z</time></trkpt><trkpt lat="42.62055643581432" lon="13.53485662038345"><ele>787.0</ele><time>2026-04-18T09:40:11Z</time></trkpt><trkpt lat="42.62045986938394" lon="13.53486394006023"><ele>787.0</ele><time>2026-04-18T09:40:12Z</time></trkpt><trkpt lat="42.620339944558836" lon="13.53489251114443"><ele>787.0</ele><time>2026-04-18T09:40:13Z</time></trkpt><trkpt lat="42.620231624187426" lon="13.534921553215977"><ele>788.5</ele><time>2026-04-18T09:40:14Z</time></trkpt><trkpt lat="42.62009683608068" lon="13.53494819307826"><ele>790.0</ele><time>2026-04-18T09:40:15Z</time></trkpt><trkpt lat="42.61999280406493" lon="13.534977869027722"><ele>791.5</ele><time>2026-04-18T09:40:16Z</time></trkpt><trkpt lat="42.61992242870918" lon="13.535023214392895"><ele>793.0</ele><time>2026-04-18T09:40:17Z</time></trkpt><trkpt lat="42.61979883986553" lon="13.535121282562894"><ele>793.0</ele><time>2026-04-18T09:40:19Z</time></trkpt><trkpt lat="42.619695325031195" lon="13.535121891692794"><ele>793.0</ele><time>2026-04-18T09:40:20Z</time></trkpt><trkpt lat="42.61956235766737" lon="13.535087595067019"><ele>793.0</ele><time>2026-04-18T09:40:21Z</time></trkpt><trkpt lat="42.61947186603739" lon="13.535056872143459"><ele>793.0</ele><time>2026-04-18T09:40:22Z</time></trkpt><trkpt lat="42.619399229398034" lon="13.53507665875382"><ele>793.0</ele><time>2026-04-18T09:40:23Z</time></trkpt><trkpt lat="42.61932216875305" lon="13.535173519804625"><ele>793.8</ele><time>2026-04-18T09:40:24Z</time></trkpt><trkpt lat="42.61926312876585" lon="13.535291808075272"><ele>794.5999999999999</ele><time>2026-04-18T09:40:25Z</time></trkpt><trkpt lat="42.6191949149044" lon="13.53541562720265"><ele>795.4000000000001</ele><time>2026-04-18T09:40:26Z</time></trkpt><trkpt lat="42.61914735746047" lon="13.535531371455122"><ele>796.2</ele><time>2026-04-18T09:40:27Z</time></trkpt><trkpt lat="42.619098238279356" lon="13.535668965863506"><ele>797.0</ele><time>2026-04-18T09:40:28Z</time></trkpt><trkpt lat="42.6190853180333" lon="13.535768788579546"><ele>797.0</ele><time>2026-04-18T09:40:29Z</time></trkpt><trkpt lat="42.61909139189947" lon="13.53591442544762"><ele>797.0</ele><time>2026-04-18T09:40:30Z</time></trkpt><trkpt lat="42.61908287246138" lon="13.536027937991411"><ele>797.0</ele><time>2026-04-18T09:40:31Z</time></trkpt><trkpt lat="42.6190241801958" lon="13.536126582467462"><ele>797.0</ele><time>2026-04-18T09:40:32Z</time></trkpt><trkpt lat="42.618961331307666" lon="13.536224934828091"><ele>797.0</ele><time>2026-04-18T09:40:33Z</time></trkpt><trkpt lat="42.61892416940116" lon="13.536310326880969"><ele>800.0</ele><time>2026-04-18T09:40:34Z</time></trkpt><trkpt lat="42.61891725458248" lon="13.536518699568386"><ele>803.0</ele><time>2026-04-18T09:40:36Z</time></trkpt><trkpt lat="42.61892732643159" lon="13.536628763577417"><ele>806.0</ele><time>2026-04-18T09:40:37Z</time></trkpt><trkpt lat="42.618963227627596" lon="13.536768228327022"><ele>809.0</ele><time>2026-04-18T09:40:38Z</time></trkpt><trkpt lat="42.61898588605365" lon="13.536937489307709"><ele>809.75</ele><time>2026-04-18T09:40:39Z</time></trkpt><trkpt lat="42.618992788171866" lon="13.537096292295168"><ele>810.5</ele><time>2026-04-18T09:40:40Z</time></trkpt><trkpt lat="42.61897887828092" lon="13.537264231667038"><ele>811.25</ele><time>2026-04-18T09:40:41Z</time></trkpt><trkpt lat="42.61896951235806" lon="13.537414183167998"><ele>812.0</ele><time>2026-04-18T09:40:42Z</time></trkpt><trkpt lat="42.61897792591538" lon="13.53756125343171"><ele>812.0</ele><time>2026-04-18T09:40:43Z</time></trkpt><trkpt lat="42.6190030239878" lon="13.537671248059556"><ele>812.0</ele><time>2026-04-18T09:40:44Z</time></trkpt><trkpt lat="42.61901550257642" lon="13.537830521550033"><ele>812.0</ele><time>2026-04-18T09:40:45Z</time></trkpt><trkpt lat="42.61901925598095" lon="13.537998378145225"><ele>812.0</ele><time>2026-04-18T09:40:46Z</time></trkpt><trkpt lat="42.61902002506653" lon="13.538140829154603"><ele>812.0</ele><time>2026-04-18T09:40:47Z</time></trkpt><trkpt lat="42.619027088127034" lon="13.538248312778387"><ele>812.2</ele><time>2026-04-18T09:40:48Z</time></trkpt><trkpt lat="42.619065899251304" lon="13.538340718005303"><ele>812.4000000000001</ele><time>2026-04-18T09:40:49Z</time></trkpt><trkpt lat="42.61910982508585" lon="13.538421146750604"><ele>812.5999999999999</ele><time>2026-04-18T09:40:50Z</time></trkpt><trkpt lat="42.619136564063744" lon="13.53855829515852"><ele>812.8</ele><time>2026-04-18T09:40:51Z</time></trkpt><trkpt lat="42.61914897522879" lon="13.538711557955434"><ele>813.0</ele><time>2026-04-18T09:40:52Z</time></trkpt><trkpt lat="42.619177440923686" lon="13.538856596545392"><ele>813.1666666666666</ele><time>2026-04-18T09:40:53Z</time></trkpt><trkpt lat="42.61921780838394" lon="13.538984355201599"><ele>813.3333333333333</ele><time>2026-04-18T09:40:54Z</time></trkpt><trkpt lat="42.61925345655714" lon="13.539083625977744"><ele>813.5</ele><time>2026-04-18T09:40:55Z</time></trkpt><trkpt lat="42.6192844871969" lon="13.539187328919297"><ele>813.6666666666666</ele><time>2026-04-18T09:40:56Z</time></trkpt><trkpt lat="42.61930931438948" lon="13.539271658328543"><ele>813.8333333333333</ele><time>2026-04-18T09:40:58Z</time></trkpt><trkpt lat="42.619375144763644" lon="13.539210196727678"><ele>814.0</ele><time>2026-04-18T09:41:01Z</time></trkpt><trkpt lat="42.61939430918151" lon="13.539098447661551"><ele>814.0000000000001</ele><time>2026-04-18T09:41:03Z</time></trkpt><trkpt lat="42.61941717834554" lon="13.53900851162513"><ele>814.0</ele><time>2026-04-18T09:41:04Z</time></trkpt><trkpt lat="42.61944688939928" lon="13.538927632465134"><ele>814.0</ele><time>2026-04-18T09:41:05Z</time></trkpt><trkpt lat="42.61947479365636" lon="13.538843057819664"><ele>814.0</ele><time>2026-04-18T09:41:06Z</time></trkpt><trkpt lat="42.61952052939666" lon="13.538757285234242"><ele>814.0</ele><time>2026-04-18T09:41:07Z</time></trkpt><trkpt lat="42.619588144991305" lon="13.538655775555272"><ele>814.0000000000001</ele><time>2026-04-18T09:41:09Z</time></trkpt><trkpt lat="42.61961257689784" lon="13.538574468763391"><ele>814.0</ele><time>2026-04-18T09:41:10.999Z</time></trkpt><trkpt lat="42.61963363467923" lon="13.538475648373629"><ele>820.4000000000001</ele><time>2026-04-18T09:41:21.999Z</time></trkpt><trkpt lat="42.61965033030208" lon="13.53837093589137"><ele>826.8</ele><time>2026-04-18T09:41:23.999Z</time></trkpt><trkpt lat="42.619669227394496" lon="13.538207902206414"><ele>833.2</ele><time>2026-04-18T09:41:25.999Z</time></trkpt><trkpt lat="42.61968442486533" lon="13.538105374790018"><ele>839.5999999999999</ele><time>2026-04-18T09:41:26.999Z</time></trkpt><trkpt lat="42.61970594773848" lon="13.537981038207635"><ele>846.0</ele><time>2026-04-18T09:41:27.999Z</time></trkpt><trkpt lat="42.61972643806412" lon="13.537875252659386"><ele>846.75</ele><time>2026-04-18T09:41:28.999Z</time></trkpt><trkpt lat="42.61973000578277" lon="13.537723660251727"><ele>847.5</ele><time>2026-04-18T09:41:29.999Z</time></trkpt><trkpt lat="42.61973189450086" lon="13.537554922043912"><ele>848.25</ele><time>2026-04-18T09:41:30.999Z</time></trkpt><trkpt lat="42.61976191680283" lon="13.537388822744814"><ele>849.0</ele><time>2026-04-18T09:41:31.999Z</time></trkpt><trkpt lat="42.619808848233156" lon="13.537271582769833"><ele>849.0</ele><time>2026-04-18T09:41:32.999Z</time></trkpt><trkpt lat="42.6198346988048" lon="13.537166727555698"><ele>849.0</ele><time>2026-04-18T09:41:33.999Z</time></trkpt><trkpt lat="42.61985897884734" lon="13.537078020882927"><ele>849.0</ele><time>2026-04-18T09:41:34.999Z</time></trkpt><trkpt lat="42.619907312001374" lon="13.536967733628648"><ele>849.0</ele><time>2026-04-18T09:41:35.999Z</time></trkpt><trkpt lat="42.61996305579706" lon="13.536872216993006"><ele>849.0</ele><time>2026-04-18T09:41:36.999Z</time></trkpt><trkpt lat="42.62004021725872" lon="13.5368622819369"><ele>849.0</ele><time>2026-04-18T09:42:38Z</time></trkpt><trkpt lat="42.62012866672152" lon="13.5368657338717"><ele>847.6</ele><time>2026-04-18T09:42:40Z</time></trkpt><trkpt lat="42.62023894209462" lon="13.53688405306125"><ele>846.2</ele><time>2026-04-18T09:42:42Z</time></trkpt><trkpt lat="42.6203415015362" lon="13.536960243018786"><ele>844.8000000000001</ele><time>2026-04-18T09:42:44Z</time></trkpt><trkpt lat="42.62040929063829" lon="13.537010567631793"><ele>843.4000000000001</ele><time>2026-04-18T09:42:45Z</time></trkpt><trkpt lat="42.62046551516865" lon="13.53706537085999"><ele>842.0</ele><time>2026-04-18T09:42:46Z</time></trkpt><trkpt lat="42.620598474914644" lon="13.537139623203387"><ele>848.0</ele><time>2026-04-18T09:42:48Z</time></trkpt><trkpt lat="42.62066044185864" lon="13.53715483363609"><ele>854.0</ele><time>2026-04-18T09:42:49Z</time></trkpt><trkpt lat="42.62073170042654" lon="13.537243201946008"><ele>860.0</ele><time>2026-04-18T09:42:51Z</time></trkpt><trkpt lat="42.62079231671831" lon="13.537292758568793"><ele>866.0</ele><time>2026-04-18T09:42:53Z</time></trkpt><trkpt lat="42.62090618329794" lon="13.537361798928115"><ele>872.0</ele><time>2026-04-18T09:42:55Z</time></trkpt><trkpt lat="42.62102666108525" lon="13.537437457256488"><ele>872.0</ele><time>2026-04-18T09:42:56Z</time></trkpt><trkpt lat="42.6211203332369" lon="13.537517721907946"><ele>872.0</ele><time>2026-04-18T09:42:57Z</time></trkpt><trkpt lat="42.62121293594119" lon="13.537621652609152"><ele>872.0</ele><time>2026-04-18T09:42:58Z</time></trkpt><trkpt lat="42.621309074254384" lon="13.537749030005088"><ele>872.0</ele><time>2026-04-18T09:42:59Z</time></trkpt><trkpt lat="42.62139758754299" lon="13.53790566536645"><ele>872.4000000000001</ele><time>2026-04-18T09:43:00Z</time></trkpt><trkpt lat="42.621415753156285" lon="13.538084838716479"><ele>872.8000000000001</ele><time>2026-04-18T09:43:01Z</time></trkpt><trkpt lat="42.62146524405789" lon="13.538185626850867"><ele>873.2</ele><time>2026-04-18T09:43:02Z</time></trkpt><trkpt lat="42.62149863403865" lon="13.538331228447971"><ele>873.6</ele><time>2026-04-18T09:43:04Z</time></trkpt><trkpt lat="42.62157668516712" lon="13.538400706032668"><ele>874.0</ele><time>2026-04-18T09:43:05Z</time></trkpt><trkpt lat="42.621665992332225" lon="13.538433824908063"><ele>873.9999999999999</ele><time>2026-04-18T09:43:06Z</time></trkpt><trkpt lat="42.62175028564188" lon="13.538495385776212"><ele>874.0</ele><time>2026-04-18T09:43:07Z</time></trkpt><trkpt lat="42.62182181115038" lon="13.538547720150552"><ele>874.0</ele><time>2026-04-18T09:43:08Z</time></trkpt><trkpt lat="42.621895685415254" lon="13.538571525347491"><ele>874.0</ele><time>2026-04-18T09:43:09Z</time></trkpt><trkpt lat="42.62196149547517" lon="13.538581589932507"><ele>873.9999999999999</ele><time>2026-04-18T09:43:10Z</time></trkpt><trkpt lat="42.62203339317803" lon="13.53862158603629"><ele>874.0</ele><time>2026-04-18T09:43:11Z</time></trkpt><trkpt lat="42.62211967715881" lon="13.538664880111142"><ele>875.25</ele><time>2026-04-18T09:43:12Z</time></trkpt><trkpt lat="42.62221803338338" lon="13.538686654060504"><ele>876.5</ele><time>2026-04-18T09:43:13Z</time></trkpt><trkpt lat="42.622342215196454" lon="13.538719467849353"><ele>877.75</ele><time>2026-04-18T09:43:13.999Z</time></trkpt><trkpt lat="42.62244908134399" lon="13.538785825335184"><ele>879.0</ele><time>2026-04-18T09:43:14.999Z</time></trkpt><trkpt lat="42.62257680979395" lon="13.538790806425977"><ele>882.25</ele><time>2026-04-18T09:43:15.999Z</time></trkpt><trkpt lat="42.62266890563093" lon="13.538753098576455"><ele>885.5</ele><time>2026-04-18T09:43:16.999Z</time></trkpt><trkpt lat="42.62281200256181" lon="13.53882382724803"><ele>888.75</ele><time>2026-04-18T09:43:18.999Z</time></trkpt><trkpt lat="42.62291788202068" lon="13.538873004122069"><ele>892.0</ele><time>2026-04-18T09:43:19.999Z</time></trkpt><trkpt lat="42.62303072143265" lon="13.538912740724818"><ele>892.0</ele><time>2026-04-18T09:43:20.999Z</time></trkpt><trkpt lat="42.62313335064901" lon="13.538945413718979"><ele>892.0</ele><time>2026-04-18T09:43:21.999Z</time></trkpt><trkpt lat="42.623236631854105" lon="13.538975616425132"><ele>892.0</ele><time>2026-04-18T09:43:22.999Z</time></trkpt><trkpt lat="42.623362251516326" lon="13.53901070054855"><ele>892.0</ele><time>2026-04-18T09:43:23.999Z</time></trkpt><trkpt lat="42.62345508268675" lon="13.539028906216622"><ele>892.0</ele><time>2026-04-18T09:43:24.999Z</time></trkpt><trkpt lat="42.623531407186206" lon="13.53904026204701"><ele>892.0</ele><time>2026-04-18T09:43:25.999Z</time></trkpt><trkpt lat="42.623645171606604" lon="13.539027243225675"><ele>892.0</ele><time>2026-04-18T09:43:26.999Z</time></trkpt><trkpt lat="42.623761430142764" lon="13.538998371270585"><ele>892.0</ele><time>2026-04-18T09:43:27.999Z</time></trkpt><trkpt lat="42.623862020938894" lon="13.538965315952279"><ele>892.0</ele><time>2026-04-18T09:43:28.999Z</time></trkpt><trkpt lat="42.623941658737266" lon="13.538920118449921"><ele>892.0</ele><time>2026-04-18T09:43:29.999Z</time></trkpt><trkpt lat="42.6240087880306" lon="13.538847037307056"><ele>893.0</ele><time>2026-04-18T09:43:30.999Z</time></trkpt><trkpt lat="42.6240795097552" lon="13.538753023305881"><ele>894.0</ele><time>2026-04-18T09:43:31.999Z</time></trkpt><trkpt lat="42.62413854123846" lon="13.538676731811297"><ele>895.0</ele><time>2026-04-18T09:43:32.999Z</time></trkpt><trkpt lat="42.62419519727321" lon="13.538570518537739"><ele>896.0</ele><time>2026-04-18T09:43:33.999Z</time></trkpt><trkpt lat="42.62424736613272" lon="13.538451936800758"><ele>897.0</ele><time>2026-04-18T09:43:34.999Z</time></trkpt><trkpt lat="42.62429321650626" lon="13.538350926864604"><ele>897.0</ele><time>2026-04-18T09:43:35.999Z</time></trkpt><trkpt lat="42.62436932553216" lon="13.538311466054328"><ele>897.0</ele><time>2026-04-18T09:43:37.999Z</time></trkpt><trkpt lat="42.624476724870966" lon="13.538269099459638"><ele>897.0</ele><time>2026-04-18T09:43:39.999Z</time></trkpt><trkpt lat="42.624595433533656" lon="13.538205112428932"><ele>897.0</ele><time>2026-04-18T09:43:41.999Z</time></trkpt><trkpt lat="42.62467230298785" lon="13.538164592093871"><ele>897.0</ele><time>2026-04-18T09:43:42.999Z</time></trkpt><trkpt lat="42.62477854559544" lon="13.538121908773409"><ele>898.8</ele><time>2026-04-18T09:43:43.999Z</time></trkpt><trkpt lat="42.624880205683645" lon="13.538073615622752"><ele>900.6</ele><time>2026-04-18T09:43:44.999Z</time></trkpt><trkpt lat="42.62499600807943" lon="13.538036283332701"><ele>902.3999999999999</ele><time>2026-04-18T09:43:45.999Z</time></trkpt><trkpt lat="42.62510870371418" lon="13.538007470959306"><ele>904.1999999999999</ele><time>2026-04-18T09:43:46.999Z</time></trkpt><trkpt lat="42.625203338496505" lon="13.537944507850284"><ele>906.0</ele><time>2026-04-18T09:43:47.999Z</time></trkpt><trkpt lat="42.62528787580056" lon="13.537956369742208"><ele>906.3333333333334</ele><time>2026-04-18T09:43:48.999Z</time></trkpt><trkpt lat="42.625351755824255" lon="13.53796452176562"><ele>906.6666666666667</ele><time>2026-04-18T09:43:49.999Z</time></trkpt><trkpt lat="42.6254179878298" lon="13.537998573609627"><ele>907.0</ele><time>2026-04-18T09:43:50.999Z</time></trkpt><trkpt lat="42.6254985488005" lon="13.538009234077524"><ele>907.3333333333334</ele><time>2026-04-18T09:43:51.999Z</time></trkpt><trkpt lat="42.62559090260876" lon="13.538034385799707"><ele>907.6666666666667</ele><time>2026-04-18T09:43:52.999Z</time></trkpt><trkpt lat="42.62568101267838" lon="13.538052597599123"><ele>908.0</ele><time>2026-04-18T09:43:53.999Z</time></trkpt><trkpt lat="42.62577356631507" lon="13.53807427088549"><ele>908.0</ele><time>2026-04-18T09:43:54.999Z</time></trkpt><trkpt lat="42.62587137383728" lon="13.538085242938294"><ele>908.0</ele><time>2026-04-18T09:43:55.999Z</time></trkpt><trkpt lat="42.62596320234836" lon="13.538053399425728"><ele>908.0</ele><time>2026-04-18T09:43:56.999Z</time></trkpt><trkpt lat="42.62606030843447" lon="13.538068013665436"><ele>908.0</ele><time>2026-04-18T09:43:57.999Z</time></trkpt><trkpt lat="42.626185489956534" lon="13.538073882230613"><ele>908.0</ele><time>2026-04-18T09:43:58.999Z</time></trkpt><trkpt lat="42.62629787426471" lon="13.538049832681308"><ele>909.6666666666667</ele><time>2026-04-18T09:43:59.999Z</time></trkpt><trkpt lat="42.62643857791179" lon="13.538010409179797"><ele>911.3333333333333</ele><time>2026-04-18T09:44:00.999Z</time></trkpt><trkpt lat="42.62662205466475" lon="13.537945528348558"><ele>913.0</ele><time>2026-04-18T09:44:02Z</time></trkpt><trkpt lat="42.62674371061546" lon="13.537907703115739"><ele>912.8</ele><time>2026-04-18T09:44:03Z</time></trkpt><trkpt lat="42.62684253916545" lon="13.537876681352113"><ele>912.5999999999999</ele><time>2026-04-18T09:44:04Z</time></trkpt><trkpt lat="42.6269273439358" lon="13.537826585935433"><ele>912.4000000000001</ele><time>2026-04-18T09:44:05Z</time></trkpt><trkpt lat="42.627015662674715" lon="13.53776673716617"><ele>912.2</ele><time>2026-04-18T09:44:06Z</time></trkpt><trkpt lat="42.62712463164851" lon="13.53772474234808"><ele>912.0</ele><time>2026-04-18T09:44:07Z</time></trkpt><trkpt lat="42.62723095030648" lon="13.537681862036164"><ele>916.8</ele><time>2026-04-18T09:44:08Z</time></trkpt><trkpt lat="42.627335267713306" lon="13.537661603843834"><ele>921.6</ele><time>2026-04-18T09:44:09Z</time></trkpt><trkpt lat="42.627445599401284" lon="13.537668426058884"><ele>926.3999999999999</ele><time>2026-04-18T09:44:10Z</time></trkpt><trkpt lat="42.62755377705831" lon="13.537720968978691"><ele>931.1999999999999</ele><time>2026-04-18T09:44:11Z</time></trkpt><trkpt lat="42.62764342441073" lon="13.537786664715217"><ele>936.0</ele><time>2026-04-18T09:44:12Z</time></trkpt><trkpt lat="42.62773503374362" lon="13.537814237062983"><ele>937.3333333333334</ele><time>2026-04-18T09:44:13Z</time></trkpt><trkpt lat="42.62781951186753" lon="13.537817719246938"><ele>938.6666666666667</ele><time>2026-04-18T09:44:14Z</time></trkpt><trkpt lat="42.6278967958856" lon="13.537816554482571"><ele>940.0</ele><time>2026-04-18T09:44:15Z</time></trkpt><trkpt lat="42.62796364903955" lon="13.537778774986139"><ele>941.3333333333334</ele><time>2026-04-18T09:44:16Z</time></trkpt><trkpt lat="42.62803780851393" lon="13.53774222689491"><ele>942.6666666666667</ele><time>2026-04-18T09:44:17Z</time></trkpt><trkpt lat="42.62811735037848" lon="13.53770347982795"><ele>944.0</ele><time>2026-04-18T09:44:18Z</time></trkpt><trkpt lat="42.62817676752748" lon="13.537599042775728"><ele>944.0</ele><time>2026-04-18T09:44:19Z</time></trkpt><trkpt lat="42.628235881196616" lon="13.537494428443768"><ele>944.0</ele><time>2026-04-18T09:44:20Z</time></trkpt><trkpt lat="42.62827772199316" lon="13.537356009249311"><ele>944.0</ele><time>2026-04-18T09:44:21Z</time></trkpt><trkpt lat="42.628329120531674" lon="13.53720211323337"><ele>944.0</ele><time>2026-04-18T09:44:22Z</time></trkpt><trkpt lat="42.62841206979201" lon="13.537037658802792"><ele>944.6</ele><time>2026-04-18T09:44:23Z</time></trkpt><trkpt lat="42.62849174415677" lon="13.536891623940983"><ele>945.2</ele><time>2026-04-18T09:44:24Z</time></trkpt><trkpt lat="42.628548777235814" lon="13.536767025248734"><ele>945.8000000000001</ele><time>2026-04-18T09:44:25Z</time></trkpt><trkpt lat="42.62863319048907" lon="13.536709034551214"><ele>946.4000000000001</ele><time>2026-04-18T09:44:26Z</time></trkpt><trkpt lat="42.62873250182512" lon="13.536644230343017"><ele>947.0</ele><time>2026-04-18T09:44:28Z</time></trkpt><trkpt lat="42.62880128916046" lon="13.53664214840073"><ele>950.6</ele><time>2026-04-18T09:44:29Z</time></trkpt><trkpt lat="42.62887628131125" lon="13.536678733641025"><ele>954.2</ele><time>2026-04-18T09:44:30Z</time></trkpt><trkpt lat="42.62897394104257" lon="13.536742161957832"><ele>957.8</ele><time>2026-04-18T09:44:31Z</time></trkpt><trkpt lat="42.62905404885755" lon="13.53672169586411"><ele>961.4</ele><time>2026-04-18T09:44:32Z</time></trkpt><trkpt lat="42.62913904771945" lon="13.536708473433126"><ele>965.0</ele><time>2026-04-18T09:44:33Z</time></trkpt><trkpt lat="42.62923524751724" lon="13.536751929376408"><ele>965.0</ele><time>2026-04-18T09:44:34Z</time></trkpt><trkpt lat="42.62934867799724" lon="13.536816251277795"><ele>965.0</ele><time>2026-04-18T09:44:35Z</time></trkpt><trkpt lat="42.629464793691454" lon="13.536866963671855"><ele>965.0</ele><time>2026-04-18T09:44:36Z</time></trkpt><trkpt lat="42.629588828316386" lon="13.536887762719005"><ele>965.0</ele><time>2026-04-18T09:44:37Z</time></trkpt><trkpt lat="42.62974632975694" lon="13.53693271615267"><ele>970.75</ele><time>2026-04-18T09:44:38Z</time></trkpt><trkpt lat="42.62988621814854" lon="13.53692924222693"><ele>976.5</ele><time>2026-04-18T09:44:39Z</time></trkpt><trkpt lat="42.630017170410895" lon="13.53693149126319"><ele>982.25</ele><time>2026-04-18T09:44:40Z</time></trkpt><trkpt lat="42.63015769706826" lon="13.536974339454565"><ele>988.0</ele><time>2026-04-18T09:44:41Z</time></trkpt><trkpt lat="42.63026332126059" lon="13.537037019592377"><ele>987.5</ele><time>2026-04-18T09:44:42Z</time></trkpt><trkpt lat="42.63034498273033" lon="13.537120802620892"><ele>987.0</ele><time>2026-04-18T09:44:43Z</time></trkpt><trkpt lat="42.630417846470024" lon="13.53728550614491"><ele>986.5</ele><time>2026-04-18T09:44:44Z</time></trkpt><trkpt lat="42.63050356385962" lon="13.53741611643364"><ele>986.0</ele><time>2026-04-18T09:44:45Z</time></trkpt><trkpt lat="42.63056309426241" lon="13.537484780951223"><ele>986.0</ele><time>2026-04-18T09:44:46Z</time></trkpt><trkpt lat="42.630644118472986" lon="13.537539496663717"><ele>985.9999999999999</ele><time>2026-04-18T09:44:47Z</time></trkpt><trkpt lat="42.63074072804405" lon="13.537549475271298"><ele>985.9999999999999</ele><time>2026-04-18T09:44:48Z</time></trkpt><trkpt lat="42.630851157475156" lon="13.537533323082599"><ele>986.0</ele><time>2026-04-18T09:44:49Z</time></trkpt><trkpt lat="42.63095594992255" lon="13.537530228966194"><ele>986.0</ele><time>2026-04-18T09:44:50Z</time></trkpt><trkpt lat="42.631046518812774" lon="13.537558308628126"><ele>986.0</ele><time>2026-04-18T09:44:51Z</time></trkpt><trkpt lat="42.63113371600223" lon="13.537610788326749"><ele>985.9999999999999</ele><time>2026-04-18T09:44:52Z</time></trkpt><trkpt lat="42.63122673133076" lon="13.537669975410559"><ele>985.9999999999999</ele><time>2026-04-18T09:44:53Z</time></trkpt><trkpt lat="42.63131203812644" lon="13.537717711060596"><ele>986.0</ele><time>2026-04-18T09:44:54Z</time></trkpt><trkpt lat="42.63137447140306" lon="13.53775325442734"><ele>986.0</ele><time>2026-04-18T09:44:55Z</time></trkpt><trkpt lat="42.63148271525473" lon="13.537858420689245"><ele>985.8333333333334</ele><time>2026-04-18T09:44:57Z</time></trkpt><trkpt lat="42.63153600393943" lon="13.537947723922812"><ele>985.6666666666667</ele><time>2026-04-18T09:44:58Z</time></trkpt><trkpt lat="42.63158701114382" lon="13.5380342679536"><ele>985.5</ele><time>2026-04-18T09:44:59Z</time></trkpt><trkpt lat="42.63164295452637" lon="13.538103475999812"><ele>985.3333333333333</ele><time>2026-04-18T09:45:00Z</time></trkpt><trkpt lat="42.631705271558936" lon="13.53818644013905"><ele>985.1666666666666</ele><time>2026-04-18T09:45:01Z</time></trkpt><trkpt lat="42.63175598019929" lon="13.53827792427539"><ele>985.0</ele><time>2026-04-18T09:45:02Z</time></trkpt><trkpt lat="42.631793643216355" lon="13.538372628579827"><ele>984.9999999999999</ele><time>2026-04-18T09:45:03Z</time></trkpt><trkpt lat="42.63182043105492" lon="13.538464145974379"><ele>985.0</ele><time>2026-04-18T09:45:04Z</time></trkpt><trkpt lat="42.63184873420116" lon="13.538570859843269"><ele>985.0</ele><time>2026-04-18T09:45:05Z</time></trkpt><trkpt lat="42.63186760694227" lon="13.538687529712451"><ele>985.0</ele><time>2026-04-18T09:45:06Z</time></trkpt><trkpt lat="42.631881845247285" lon="13.538818387027083"><ele>984.9999999999999</ele><time>2026-04-18T09:45:07Z</time></trkpt><trkpt lat="42.631898087802334" lon="13.538952227221545"><ele>985.0</ele><time>2026-04-18T09:45:08Z</time></trkpt><trkpt lat="42.631912189317404" lon="13.539087029293666"><ele>985.0</ele><time>2026-04-18T09:45:09Z</time></trkpt><trkpt lat="42.63193101489855" lon="13.539224966870433"><ele>985.0</ele><time>2026-04-18T09:45:10Z</time></trkpt><trkpt lat="42.631953541025396" lon="13.539357982977743"><ele>985.0</ele><time>2026-04-18T09:45:11Z</time></trkpt><trkpt lat="42.6319840819442" lon="13.539492428402413"><ele>985.0</ele><time>2026-04-18T09:45:12Z</time></trkpt><trkpt lat="42.63201459126408" lon="13.539621211145436"><ele>985.0</ele><time>2026-04-18T09:45:13Z</time></trkpt><trkpt lat="42.63204430425491" lon="13.539750680543875"><ele>984.1666666666666</ele><time>2026-04-18T09:45:14Z</time></trkpt><trkpt lat="42.632072642233204" lon="13.539863072977727"><ele>983.3333333333333</ele><time>2026-04-18T09:45:15Z</time></trkpt><trkpt lat="42.63209151636076" lon="13.539976460254417"><ele>982.5</ele><time>2026-04-18T09:45:15.999Z</time></trkpt><trkpt lat="42.632104225017684" lon="13.540095986476524"><ele>981.6666666666667</ele><time>2026-04-18T09:45:16.999Z</time></trkpt><trkpt lat="42.63210817068741" lon="13.540203261672595"><ele>980.8333333333334</ele><time>2026-04-18T09:45:17.999Z</time></trkpt><trkpt lat="42.63210814106222" lon="13.540306401482193"><ele>980.0</ele><time>2026-04-18T09:45:18.999Z</time></trkpt><trkpt lat="42.63212744040093" lon="13.54042039310549"><ele>979.5000000000001</ele><time>2026-04-18T09:45:20.999Z</time></trkpt><trkpt lat="42.63214282356417" lon="13.540513050822815"><ele>979.0</ele><time>2026-04-18T09:45:26.999Z</time></trkpt><trkpt lat="42.63209966714079" lon="13.540687702050427"><ele>978.5</ele><time>2026-04-18T09:45:28.999Z</time></trkpt><trkpt lat="42.632072008364524" lon="13.540778731886588"><ele>978.0</ele><time>2026-04-18T09:45:29.999Z</time></trkpt><trkpt lat="42.63202921861573" lon="13.54086502468123"><ele>977.5000000000001</ele><time>2026-04-18T09:45:30.999Z</time></trkpt><trkpt lat="42.63199458238272" lon="13.540953149095511"><ele>977.0</ele><time>2026-04-18T09:45:31.999Z</time></trkpt><trkpt lat="42.631975291996454" lon="13.541041093718192"><ele>976.8333333333334</ele><time>2026-04-18T09:45:32.999Z</time></trkpt><trkpt lat="42.63197189518772" lon="13.541128892992912"><ele>976.6666666666667</ele><time>2026-04-18T09:45:33.999Z</time></trkpt><trkpt lat="42.631975989600384" lon="13.541222667819195"><ele>976.5</ele><time>2026-04-18T09:45:34.999Z</time></trkpt><trkpt lat="42.63196715460813" lon="13.541379858495294"><ele>976.3333333333333</ele><time>2026-04-18T09:45:36.999Z</time></trkpt><trkpt lat="42.631961687669445" lon="13.541508263231211"><ele>976.1666666666666</ele><time>2026-04-18T09:45:38.999Z</time></trkpt><trkpt lat="42.63199214747974" lon="13.54162371560872"><ele>976.0</ele><time>2026-04-18T09:45:40.999Z</time></trkpt><trkpt lat="42.63197583380829" lon="13.54178399369188"><ele>974.1999999999999</ele><time>2026-04-18T09:45:42.999Z</time></trkpt><trkpt lat="42.631969849791425" lon="13.541871013976802"><ele>972.3999999999999</ele><time>2026-04-18T09:45:43.999Z</time></trkpt><trkpt lat="42.631909712644635" lon="13.542009145064002"><ele>970.6</ele><time>2026-04-18T09:45:45.999Z</time></trkpt><trkpt lat="42.63188585536921" lon="13.542089279173346"><ele>968.8</ele><time>2026-04-18T09:45:46.999Z</time></trkpt><trkpt lat="42.63184849029183" lon="13.542249049620562"><ele>967.0</ele><time>2026-04-18T09:45:48.999Z</time></trkpt><trkpt lat="42.63183829488622" lon="13.542422180256027"><ele>967.0</ele><time>2026-04-18T09:45:50.999Z</time></trkpt><trkpt lat="42.631833365101144" lon="13.54256876900502"><ele>967.0</ele><time>2026-04-18T09:45:52.999Z</time></trkpt><trkpt lat="42.63182873550594" lon="13.542663541180051"><ele>967.0</ele><time>2026-04-18T09:45:55.999Z</time></trkpt><trkpt lat="42.63192277753377" lon="13.54272133654801"><ele>967.0</ele><time>2026-04-18T09:48:06.999Z</time></trkpt><trkpt lat="42.631928252017396" lon="13.542601793861607"><ele>967.0</ele><time>2026-04-18T09:48:36Z</time></trkpt><trkpt lat="42.63201186486095" lon="13.542704917985144"><ele>975.0</ele><time>2026-04-18T09:48:49Z</time></trkpt><trkpt lat="42.63194152319771" lon="13.54268092698337"><ele>967.0</ele><time>2026-04-18T09:48:56Z</time></trkpt><trkpt lat="42.631864118446984" lon="13.542642588215015"><ele>967.0</ele><time>2026-04-18T09:49:01Z</time></trkpt><trkpt lat="42.63182958624024" lon="13.542554758882225"><ele>967.0</ele><time>2026-04-18T09:49:07Z</time></trkpt></trkseg></trk></gpx>